Wetterdaten: Dienstag, 07.02.2023
Datum Zeit Temp. 2m Temp +5 cm Feuchte A. Luftdruck Regen Wind Richtung Richtung Sonnenschein UV Solar Taupunkt Windchill Windben
07.02.2023 00:00 -1,8 C -3,3 C 89 % 1040,2 hPa 0,0 l/m 6,4 km/h (2 Bft) N-NO 22 0 min 0,0 UV-I 0 W/m -3,4 C -1,8 C 9,7 km/h (2 Bft)
07.02.2023 00:01 -1,8 C -3,3 C 89 % 1040,1 hPa 0,0 l/m 6,4 km/h (2 Bft) NO 45 0 min 0,0 UV-I 0 W/m -3,4 C -1,8 C 6,4 km/h (2 Bft)
07.02.2023 00:02 -1,8 C -3,3 C 89 % 1040,3 hPa 0,0 l/m 6,4 km/h (2 Bft) N 0 0 min 0,0 UV-I 0 W/m -3,4 C -1,8 C 0,0 km/h (0 Bft)
07.02.2023 00:03 -1,8 C -3,3 C 89 % 1040,3 hPa 0,0 l/m 4,8 km/h (1 Bft) NO 45 0 min 0,0 UV-I 0 W/m -3,4 C -1,8 C 4,8 km/h (1 Bft)
07.02.2023 00:04 -1,8 C -3,3 C 89 % 1040,4 hPa 0,0 l/m 4,8 km/h (1 Bft) NO 45 0 min 0,0 UV-I 0 W/m -3,4 C -1,8 C 6,4 km/h (2 Bft)
07.02.2023 00:05 -1,8 C -3,3 C 89 % 1040,3 hPa 0,0 l/m 6,4 km/h (2 Bft) NO 45 0 min 0,0 UV-I 0 W/m -3,4 C -1,8 C 6,4 km/h (2 Bft)
07.02.2023 00:06 -1,8 C -3,3 C 89 % 1040,3 hPa 0,0 l/m 3,2 km/h (1 Bft) NO 45 0 min 0,0 UV-I 0 W/m -3,4 C -1,8 C 6,4 km/h (2 Bft)
07.02.2023 00:07 -1,8 C -3,3 C 89 % 1040,3 hPa 0,0 l/m 6,4 km/h (2 Bft) NO 45 0 min 0,0 UV-I 0 W/m -3,4 C -1,8 C 9,7 km/h (2 Bft)
07.02.2023 00:08 -1,9 C -3,3 C 89 % 1040,3 hPa 0,0 l/m 6,4 km/h (2 Bft) NO 45 0 min 0,0 UV-I 0 W/m -3,5 C -1,9 C 8,0 km/h (2 Bft)
07.02.2023 00:09 -1,9 C -3,3 C 89 % 1040,3 hPa 0,0 l/m 4,8 km/h (1 Bft) NO 45 0 min 0,0 UV-I 0 W/m -3,5 C -1,9 C 6,4 km/h (2 Bft)
07.02.2023 00:10 -1,8 C -3,3 C 89 % 1040,4 hPa 0,0 l/m 4,8 km/h (1 Bft) NO 45 0 min 0,0 UV-I 0 W/m -3,4 C -1,8 C 4,8 km/h (1 Bft)
07.02.2023 00:11 -1,8 C -3,3 C 89 % 1040,3 hPa 0,0 l/m 3,2 km/h (1 Bft) NO 45 0 min 0,0 UV-I 0 W/m -3,4 C -1,8 C 4,8 km/h (1 Bft)
07.02.2023 00:12 -1,9 C -3,3 C 89 % 1040,3 hPa 0,0 l/m 3,2 km/h (1 Bft) NO 45 0 min 0,0 UV-I 0 W/m -3,5 C -1,9 C 4,8 km/h (1 Bft)
07.02.2023 00:13 -1,9 C -3,3 C 89 % 1040,3 hPa 0,0 l/m 4,8 km/h (1 Bft) NO 45 0 min 0,0 UV-I 0 W/m -3,5 C -1,9 C 6,4 km/h (2 Bft)
07.02.2023 00:14 -1,9 C -3,3 C 89 % 1040,2 hPa 0,0 l/m 6,4 km/h (2 Bft) NO 45 0 min 0,0 UV-I 0 W/m -3,5 C -1,9 C 6,4 km/h (2 Bft)
07.02.2023 00:15 -2,0 C -3,3 C 89 % 1040,2 hPa 0,0 l/m 6,4 km/h (2 Bft) NO 45 0 min 0,0 UV-I 0 W/m -3,6 C -2,0 C 6,4 km/h (2 Bft)
07.02.2023 00:16 -2,1 C -3,9 C 89 % 1040,2 hPa 0,0 l/m 6,4 km/h (2 Bft) NO 45 0 min 0,0 UV-I 0 W/m -3,7 C -2,1 C 9,7 km/h (2 Bft)
07.02.2023 00:17 -2,0 C -3,9 C 90 % 1040,2 hPa 0,0 l/m 6,4 km/h (2 Bft) NO 45 0 min 0,0 UV-I 0 W/m -3,4 C -2,0 C 9,7 km/h (2 Bft)
07.02.2023 00:18 -2,0 C -3,3 C 90 % 1040,2 hPa 0,0 l/m 4,8 km/h (1 Bft) O-NO 67 0 min 0,0 UV-I 0 W/m -3,4 C -2,0 C 6,4 km/h (2 Bft)
07.02.2023 00:19 -1,9 C -3,9 C 90 % 1040,2 hPa 0,0 l/m 3,2 km/h (1 Bft) NO 45 0 min 0,0 UV-I 0 W/m -3,3 C -1,9 C 4,8 km/h (1 Bft)
07.02.2023 00:20 -1,9 C -3,9 C 90 % 1040,2 hPa 0,0 l/m 3,2 km/h (1 Bft) NO 45 0 min 0,0 UV-I 0 W/m -3,3 C -1,9 C 4,8 km/h (1 Bft)
07.02.2023 00:21 -1,9 C -3,9 C 90 % 1040,2 hPa 0,0 l/m 3,2 km/h (1 Bft) NO 45 0 min 0,0 UV-I 0 W/m -3,3 C -1,9 C 3,2 km/h (1 Bft)
07.02.2023 00:22 -2,0 C -3,9 C 90 % 1040,2 hPa 0,0 l/m 4,8 km/h (1 Bft) NO 45 0 min 0,0 UV-I 0 W/m -3,4 C -2,0 C 8,0 km/h (2 Bft)
07.02.2023 00:23 -2,1 C -3,9 C 89 % 1040,1 hPa 0,0 l/m 4,8 km/h (1 Bft) NO 45 0 min 0,0 UV-I 0 W/m -3,7 C -2,1 C 6,4 km/h (2 Bft)
07.02.2023 00:24 -2,1 C -3,9 C 89 % 1040,1 hPa 0,0 l/m 3,2 km/h (1 Bft) NO 45 0 min 0,0 UV-I 0 W/m -3,7 C -2,1 C 4,8 km/h (1 Bft)
07.02.2023 00:25 -2,2 C -3,9 C 89 % 1040,1 hPa 0,0 l/m 4,8 km/h (1 Bft) NO 45 0 min 0,0 UV-I 0 W/m -3,8 C -2,2 C 6,4 km/h (2 Bft)
07.02.2023 00:26 -2,2 C -3,9 C 89 % 1040,1 hPa 0,0 l/m 6,4 km/h (2 Bft) NO 45 0 min 0,0 UV-I 0 W/m -3,8 C -2,2 C 8,0 km/h (2 Bft)
07.02.2023 00:27 -2,2 C -4,4 C 89 % 1040,1 hPa 0,0 l/m 4,8 km/h (1 Bft) NO 45 0 min 0,0 UV-I 0 W/m -3,8 C -2,2 C 6,4 km/h (2 Bft)
07.02.2023 00:28 -2,2 C -3,9 C 89 % 1040,2 hPa 0,0 l/m 4,8 km/h (1 Bft) NO 45 0 min 0,0 UV-I 0 W/m -3,8 C -2,2 C 8,0 km/h (2 Bft)
07.02.2023 00:29 -2,2 C -3,9 C 90 % 1040,2 hPa 0,0 l/m 4,8 km/h (1 Bft) NO 45 0 min 0,0 UV-I 0 W/m -3,6 C -2,2 C 6,4 km/h (2 Bft)
07.02.2023 00:30 -2,2 C -3,9 C 90 % 1040,2 hPa 0,0 l/m 6,4 km/h (2 Bft) NO 45 0 min 0,0 UV-I 0 W/m -3,6 C -2,2 C 9,7 km/h (2 Bft)
07.02.2023 00:31 -2,2 C -3,9 C 90 % 1040,1 hPa 0,0 l/m 4,8 km/h (1 Bft) NO 45 0 min 0,0 UV-I 0 W/m -3,6 C -2,2 C 8,0 km/h (2 Bft)
07.02.2023 00:32 -2,2 C -3,9 C 90 % 1040,1 hPa 0,0 l/m 6,4 km/h (2 Bft) NO 45 0 min 0,0 UV-I 0 W/m -3,6 C -2,2 C 9,7 km/h (2 Bft)
07.02.2023 00:33 -2,1 C -3,9 C 90 % 1040,1 hPa 0,0 l/m 4,8 km/h (1 Bft) NO 45 0 min 0,0 UV-I 0 W/m -3,5 C -2,1 C 8,0 km/h (2 Bft)
07.02.2023 00:34 -2,2 C -3,9 C 90 % 1040,1 hPa 0,0 l/m 6,4 km/h (2 Bft) NO 45 0 min 0,0 UV-I 0 W/m -3,6 C -2,2 C 8,0 km/h (2 Bft)
07.02.2023 00:35 -2,2 C -3,9 C 90 % 1040,0 hPa 0,0 l/m 4,8 km/h (1 Bft) NO 45 0 min 0,0 UV-I 0 W/m -3,6 C -2,2 C 6,4 km/h (2 Bft)
07.02.2023 00:36 -2,1 C -3,9 C 90 % 1040,1 hPa 0,0 l/m 6,4 km/h (2 Bft) NO 45 0 min 0,0 UV-I 0 W/m -3,5 C -2,1 C 9,7 km/h (2 Bft)
07.02.2023 00:37 -2,1 C -3,9 C 90 % 1040,1 hPa 0,0 l/m 6,4 km/h (2 Bft) NO 45 0 min 0,0 UV-I 0 W/m -3,5 C -2,1 C 8,0 km/h (2 Bft)
07.02.2023 00:38 -2,1 C -3,9 C 90 % 1040,1 hPa 0,0 l/m 4,8 km/h (1 Bft) NO 45 0 min 0,0 UV-I 0 W/m -3,5 C -2,1 C 8,0 km/h (2 Bft)
07.02.2023 00:39 -2,2 C -3,9 C 90 % 1040,1 hPa 0,0 l/m 8,0 km/h (2 Bft) NO 45 0 min 0,0 UV-I 0 W/m -3,6 C -4,0 C 12,9 km/h (3 Bft)
07.02.2023 00:40 -2,2 C -3,9 C 90 % 1040,1 hPa 0,0 l/m 6,4 km/h (2 Bft) NO 45 0 min 0,0 UV-I 0 W/m -3,6 C -2,2 C 9,7 km/h (2 Bft)
07.02.2023 00:41 -2,1 C -3,9 C 90 % 1040,1 hPa 0,0 l/m 4,8 km/h (1 Bft) NO 45 0 min 0,0 UV-I 0 W/m -3,5 C -2,1 C 8,0 km/h (2 Bft)
07.02.2023 00:42 -2,2 C -3,9 C 90 % 1040,1 hPa 0,0 l/m 6,4 km/h (2 Bft) NO 45 0 min 0,0 UV-I 0 W/m -3,6 C -2,2 C 8,0 km/h (2 Bft)
07.02.2023 00:43 -2,2 C -3,9 C 90 % 1040,0 hPa 0,0 l/m 6,4 km/h (2 Bft) O-NO 67 0 min 0,0 UV-I 0 W/m -3,6 C -2,2 C 8,0 km/h (2 Bft)
07.02.2023 00:44 -2,2 C -3,9 C 90 % 1040,1 hPa 0,0 l/m 3,2 km/h (1 Bft) O-NO 67 0 min 0,0 UV-I 0 W/m -3,6 C -2,2 C 4,8 km/h (1 Bft)
07.02.2023 00:45 -2,2 C -3,9 C 90 % 1040,1 hPa 0,0 l/m 3,2 km/h (1 Bft) O-NO 67 0 min 0,0 UV-I 0 W/m -3,6 C -2,2 C 6,4 km/h (2 Bft)
07.02.2023 00:46 -2,2 C -3,9 C 90 % 1040,1 hPa 0,0 l/m 1,6 km/h (1 Bft) O-NO 67 0 min 0,0 UV-I 0 W/m -3,6 C -2,2 C 3,2 km/h (1 Bft)
07.02.2023 00:47 -2,2 C -3,9 C 90 % 1040,0 hPa 0,0 l/m 3,2 km/h (1 Bft) O-NO 67 0 min 0,0 UV-I 0 W/m -3,6 C -2,2 C 4,8 km/h (1 Bft)
07.02.2023 00:48 -2,3 C -3,9 C 90 % 1039,9 hPa 0,0 l/m 1,6 km/h (1 Bft) O-NO 67 0 min 0,0 UV-I 0 W/m -3,7 C -2,3 C 3,2 km/h (1 Bft)
07.02.2023 00:49 -2,3 C -3,9 C 90 % 1040,0 hPa 0,0 l/m 3,2 km/h (1 Bft) O-NO 67 0 min 0,0 UV-I 0 W/m -3,7 C -2,3 C 4,8 km/h (1 Bft)
07.02.2023 00:50 -2,3 C -3,9 C 90 % 1040,0 hPa 0,0 l/m 3,2 km/h (1 Bft) O-NO 67 0 min 0,0 UV-I 0 W/m -3,7 C -2,3 C 4,8 km/h (1 Bft)
07.02.2023 00:51 -2,3 C -4,4 C 90 % 1040,0 hPa 0,0 l/m 3,2 km/h (1 Bft) O-NO 67 0 min 0,0 UV-I 0 W/m -3,7 C -2,3 C 4,8 km/h (1 Bft)
07.02.2023 00:52 -2,4 C -4,4 C 90 % 1040,0 hPa 0,0 l/m 3,2 km/h (1 Bft) O-NO 67 0 min 0,0 UV-I 0 W/m -3,8 C -2,4 C 6,4 km/h (2 Bft)
07.02.2023 00:53 -2,4 C -4,4 C 90 % 1040,0 hPa 0,0 l/m 1,6 km/h (1 Bft) NO 45 0 min 0,0 UV-I 0 W/m -3,8 C -2,4 C 3,2 km/h (1 Bft)
07.02.2023 00:54 -2,5 C -4,4 C 90 % 1040,1 hPa 0,0 l/m 3,2 km/h (1 Bft) NO 45 0 min 0,0 UV-I 0 W/m -3,9 C -2,5 C 4,8 km/h (1 Bft)
07.02.2023 00:55 -2,5 C -4,4 C 90 % 1040,1 hPa 0,0 l/m 4,8 km/h (1 Bft) NO 45 0 min 0,0 UV-I 0 W/m -3,9 C -2,5 C 6,4 km/h (2 Bft)
07.02.2023 00:56 -2,5 C -4,4 C 90 % 1040,1 hPa 0,0 l/m 4,8 km/h (1 Bft) O-NO 67 0 min 0,0 UV-I 0 W/m -3,9 C -2,5 C 6,4 km/h (2 Bft)
07.02.2023 00:57 -2,4 C -4,4 C 90 % 1040,1 hPa 0,0 l/m 3,2 km/h (1 Bft) O-NO 67 0 min 0,0 UV-I 0 W/m -3,8 C -2,4 C 4,8 km/h (1 Bft)
07.02.2023 00:58 -2,4 C -4,4 C 90 % 1040,2 hPa 0,0 l/m 3,2 km/h (1 Bft) O-NO 67 0 min 0,0 UV-I 0 W/m -3,8 C -2,4 C 4,8 km/h (1 Bft)
07.02.2023 00:59 -2,4 C -3,9 C 90 % 1040,1 hPa 0,0 l/m 4,8 km/h (1 Bft) O-NO 67 0 min 0,0 UV-I 0 W/m -3,8 C -2,4 C 6,4 km/h (2 Bft)
07.02.2023 01:00 -2,4 C -3,9 C 90 % 1040,1 hPa 0,0 l/m 4,8 km/h (1 Bft) NO 45 0 min 0,0 UV-I 0 W/m -3,8 C -2,4 C 6,4 km/h (2 Bft)
07.02.2023 01:01 -2,4 C -3,9 C 90 % 1040,2 hPa 0,0 l/m 4,8 km/h (1 Bft) NO 45 0 min 0,0 UV-I 0 W/m -3,8 C -2,4 C 6,4 km/h (2 Bft)
07.02.2023 01:02 -2,5 C -3,9 C 90 % 1040,0 hPa 0,0 l/m 4,8 km/h (1 Bft) NO 45 0 min 0,0 UV-I 0 W/m -3,9 C -2,5 C 8,0 km/h (2 Bft)
07.02.2023 01:03 -2,5 C -3,3 C 90 % 1040,1 hPa 0,0 l/m 4,8 km/h (1 Bft) NO 45 0 min 0,0 UV-I 0 W/m -3,9 C -2,5 C 6,4 km/h (2 Bft)
07.02.2023 01:04 -2,5 C -3,3 C 90 % 1040,1 hPa 0,0 l/m 4,8 km/h (1 Bft) NO 45 0 min 0,0 UV-I 0 W/m -3,9 C -2,5 C 6,4 km/h (2 Bft)
07.02.2023 01:05 -2,4 C -3,3 C 90 % 1040,1 hPa 0,0 l/m 4,8 km/h (1 Bft) NO 45 0 min 0,0 UV-I 0 W/m -3,8 C -2,4 C 8,0 km/h (2 Bft)
07.02.2023 01:06 -2,3 C -3,3 C 91 % 1040,2 hPa 0,0 l/m 4,8 km/h (1 Bft) NO 45 0 min 0,0 UV-I 0 W/m -3,6 C -2,3 C 8,0 km/h (2 Bft)
07.02.2023 01:07 -2,3 C -2,8 C 91 % 1040,2 hPa 0,0 l/m 3,2 km/h (1 Bft) O-NO 67 0 min 0,0 UV-I 0 W/m -3,6 C -2,3 C 6,4 km/h (2 Bft)
07.02.2023 01:08 -2,2 C -2,8 C 91 % 1040,2 hPa 0,0 l/m 4,8 km/h (1 Bft) O-NO 67 0 min 0,0 UV-I 0 W/m -3,5 C -2,2 C 6,4 km/h (2 Bft)
07.02.2023 01:09 -2,2 C -2,8 C 91 % 1040,2 hPa 0,0 l/m 3,2 km/h (1 Bft) NO 45 0 min 0,0 UV-I 0 W/m -3,5 C -2,2 C 4,8 km/h (1 Bft)
07.02.2023 01:10 -2,2 C -2,8 C 91 % 1040,2 hPa 0,0 l/m 6,4 km/h (2 Bft) NO 45 0 min 0,0 UV-I 0 W/m -3,5 C -2,2 C 8,0 km/h (2 Bft)
07.02.2023 01:11 -2,2 C -2,8 C 91 % 1040,2 hPa 0,0 l/m 6,4 km/h (2 Bft) NO 45 0 min 0,0 UV-I 0 W/m -3,5 C -2,2 C 9,7 km/h (2 Bft)
07.02.2023 01:12 -2,1 C -2,8 C 91 % 1040,2 hPa 0,0 l/m 6,4 km/h (2 Bft) NO 45 0 min 0,0 UV-I 0 W/m -3,4 C -2,1 C 9,7 km/h (2 Bft)
07.02.2023 01:13 -2,1 C -2,2 C 91 % 1040,2 hPa 0,0 l/m 8,0 km/h (2 Bft) NO 45 0 min 0,0 UV-I 0 W/m -3,4 C -3,9 C 14,5 km/h (3 Bft)
07.02.2023 01:14 -2,1 C -2,2 C 91 % 1040,2 hPa 0,0 l/m 8,0 km/h (2 Bft) NO 45 0 min 0,0 UV-I 0 W/m -3,4 C -3,9 C 14,5 km/h (3 Bft)
07.02.2023 01:15 -2,1 C -2,2 C 91 % 1040,1 hPa 0,0 l/m 9,7 km/h (2 Bft) NO 45 0 min 0,0 UV-I 0 W/m -3,4 C -5,5 C 14,5 km/h (3 Bft)
07.02.2023 01:16 -2,0 C -2,2 C 91 % 1040,1 hPa 0,0 l/m 11,3 km/h (2 Bft) NO 45 0 min 0,0 UV-I 0 W/m -3,3 C -6,8 C 16,1 km/h (3 Bft)
07.02.2023 01:17 -1,9 C -2,2 C 91 % 1040,2 hPa 0,0 l/m 11,3 km/h (2 Bft) NO 45 0 min 0,0 UV-I 0 W/m -3,2 C -6,6 C 17,7 km/h (3 Bft)
07.02.2023 01:18 -1,9 C -2,2 C 91 % 1040,2 hPa 0,0 l/m 9,7 km/h (2 Bft) NO 45 0 min 0,0 UV-I 0 W/m -3,2 C -5,3 C 17,7 km/h (3 Bft)
07.02.2023 01:19 -1,9 C -2,2 C 91 % 1040,1 hPa 0,0 l/m 9,7 km/h (2 Bft) O-NO 67 0 min 0,0 UV-I 0 W/m -3,2 C -5,3 C 16,1 km/h (3 Bft)
07.02.2023 01:20 -1,9 C -2,2 C 91 % 1040,2 hPa 0,0 l/m 6,4 km/h (2 Bft) NO 45 0 min 0,0 UV-I 0 W/m -3,2 C -1,9 C 8,0 km/h (2 Bft)
07.02.2023 01:21 -1,8 C -2,2 C 90 % 1040,2 hPa 0,0 l/m 6,4 km/h (2 Bft) NO 45 0 min 0,0 UV-I 0 W/m -3,2 C -1,8 C 11,3 km/h (2 Bft)
07.02.2023 01:22 -1,8 C -2,2 C 90 % 1040,3 hPa 0,0 l/m 9,7 km/h (2 Bft) NO 45 0 min 0,0 UV-I 0 W/m -3,2 C -5,2 C 11,3 km/h (2 Bft)
07.02.2023 01:23 -1,8 C -2,2 C 90 % 1040,3 hPa 0,0 l/m 8,0 km/h (2 Bft) NO 45 0 min 0,0 UV-I 0 W/m -3,2 C -3,5 C 9,7 km/h (2 Bft)
07.02.2023 01:24 -1,8 C -2,2 C 90 % 1040,3 hPa 0,0 l/m 8,0 km/h (2 Bft) NO 45 0 min 0,0 UV-I 0 W/m -3,2 C -3,5 C 16,1 km/h (3 Bft)
07.02.2023 01:25 -1,8 C -2,2 C 90 % 1040,2 hPa 0,0 l/m 11,3 km/h (2 Bft) NO 45 0 min 0,0 UV-I 0 W/m -3,2 C -6,5 C 16,1 km/h (3 Bft)
07.02.2023 01:26 -1,8 C -2,2 C 90 % 1040,2 hPa 0,0 l/m 12,9 km/h (3 Bft) NO 45 0 min 0,0 UV-I 0 W/m -3,2 C -7,7 C 17,7 km/h (3 Bft)
07.02.2023 01:27 -1,8 C -2,2 C 91 % 1040,2 hPa 0,0 l/m 9,7 km/h (2 Bft) NO 45 0 min 0,0 UV-I 0 W/m -3,1 C -5,2 C 14,5 km/h (3 Bft)
07.02.2023 01:28 -1,8 C -1,7 C 90 % 1040,2 hPa 0,0 l/m 11,3 km/h (2 Bft) N-NO 22 0 min 0,0 UV-I 0 W/m -3,2 C -6,5 C 14,5 km/h (3 Bft)
07.02.2023 01:29 -1,8 C -1,7 C 90 % 1040,3 hPa 0,0 l/m 11,3 km/h (2 Bft) NO 45 0 min 0,0 UV-I 0 W/m -3,2 C -6,5 C 19,3 km/h (3 Bft)
07.02.2023 01:30 -1,8 C -1,7 C 90 % 1040,3 hPa 0,0 l/m 12,9 km/h (3 Bft) NO 45 0 min 0,0 UV-I 0 W/m -3,2 C -7,7 C 17,7 km/h (3 Bft)
07.02.2023 01:31 -1,8 C -1,7 C 90 % 1040,2 hPa 0,0 l/m 9,7 km/h (2 Bft) O-NO 67 0 min 0,0 UV-I 0 W/m -3,2 C -5,2 C 19,3 km/h (3 Bft)
07.02.2023 01:32 -1,8 C -1,7 C 90 % 1040,2 hPa 0,0 l/m 16,1 km/h (3 Bft) NO 45 0 min 0,0 UV-I 0 W/m -3,2 C -9,8 C 24,1 km/h (4 Bft)
07.02.2023 01:33 -1,8 C -1,7 C 90 % 1040,2 hPa 0,0 l/m 16,1 km/h (3 Bft) NO 45 0 min 0,0 UV-I 0 W/m -3,2 C -9,8 C 24,1 km/h (4 Bft)
07.02.2023 01:34 -1,8 C -1,7 C 90 % 1040,2 hPa 0,0 l/m 17,7 km/h (3 Bft) NO 45 0 min 0,0 UV-I 0 W/m -3,2 C -10,8 C 22,5 km/h (4 Bft)
07.02.2023 01:35 -1,8 C -1,7 C 90 % 1040,2 hPa 0,0 l/m 20,9 km/h (4 Bft) NO 45 0 min 0,0 UV-I 0 W/m -3,2 C -12,4 C 27,4 km/h (4 Bft)
07.02.2023 01:36 -1,8 C -1,7 C 90 % 1040,2 hPa 0,0 l/m 12,9 km/h (3 Bft) NO 45 0 min 0,0 UV-I 0 W/m -3,2 C -7,7 C 27,4 km/h (4 Bft)
07.02.2023 01:37 -1,8 C -1,7 C 90 % 1040,2 hPa 0,0 l/m 16,1 km/h (3 Bft) NO 45 0 min 0,0 UV-I 0 W/m -3,2 C -9,8 C 24,1 km/h (4 Bft)
07.02.2023 01:38 -1,8 C -1,7 C 90 % 1040,2 hPa 0,0 l/m 17,7 km/h (3 Bft) NO 45 0 min 0,0 UV-I 0 W/m -3,2 C -10,8 C 22,5 km/h (4 Bft)
07.02.2023 01:39 -1,8 C -1,7 C 90 % 1040,3 hPa 0,0 l/m 16,1 km/h (3 Bft) O-NO 67 0 min 0,0 UV-I 0 W/m -3,2 C -9,8 C 22,5 km/h (4 Bft)
07.02.2023 01:40 -1,8 C -1,7 C 90 % 1040,3 hPa 0,0 l/m 11,3 km/h (2 Bft) O-NO 67 0 min 0,0 UV-I 0 W/m -3,2 C -6,5 C 16,1 km/h (3 Bft)
07.02.2023 01:41 -1,8 C -1,7 C 90 % 1040,2 hPa 0,0 l/m 9,7 km/h (2 Bft) O-NO 67 0 min 0,0 UV-I 0 W/m -3,2 C -5,2 C 16,1 km/h (3 Bft)
07.02.2023 01:42 -1,8 C -1,7 C 90 % 1040,2 hPa 0,0 l/m 6,4 km/h (2 Bft) O-NO 67 0 min 0,0 UV-I 0 W/m -3,2 C -1,8 C 9,7 km/h (2 Bft)
07.02.2023 01:43 -1,7 C -1,7 C 90 % 1040,3 hPa 0,0 l/m 4,8 km/h (1 Bft) O-NO 67 0 min 0,0 UV-I 0 W/m -3,1 C -1,7 C 9,7 km/h (2 Bft)
07.02.2023 01:44 -1,7 C -1,7 C 90 % 1040,2 hPa 0,0 l/m 6,4 km/h (2 Bft) O-NO 67 0 min 0,0 UV-I 0 W/m -3,1 C -1,7 C 9,7 km/h (2 Bft)
07.02.2023 01:45 -1,7 C -1,7 C 90 % 1040,1 hPa 0,0 l/m 9,7 km/h (2 Bft) NO 45 0 min 0,0 UV-I 0 W/m -3,1 C -5,1 C 14,5 km/h (3 Bft)
07.02.2023 01:46 -1,7 C -1,7 C 90 % 1040,3 hPa 0,0 l/m 9,7 km/h (2 Bft) O-NO 67 0 min 0,0 UV-I 0 W/m -3,1 C -5,1 C 17,7 km/h (3 Bft)
07.02.2023 01:47 -1,7 C -1,7 C 90 % 1040,1 hPa 0,0 l/m 8,0 km/h (2 Bft) O-NO 67 0 min 0,0 UV-I 0 W/m -3,1 C -3,4 C 12,9 km/h (3 Bft)
07.02.2023 01:48 -1,7 C -1,7 C 90 % 1040,1 hPa 0,0 l/m 11,3 km/h (2 Bft) O-NO 67 0 min 0,0 UV-I 0 W/m -3,1 C -6,4 C 16,1 km/h (3 Bft)
07.02.2023 01:49 -1,7 C -1,7 C 89 % 1040,1 hPa 0,0 l/m 9,7 km/h (2 Bft) NO 45 0 min 0,0 UV-I 0 W/m -3,3 C -5,1 C 12,9 km/h (3 Bft)
07.02.2023 01:50 -1,7 C -1,7 C 89 % 1040,1 hPa 0,0 l/m 9,7 km/h (2 Bft) O-NO 67 0 min 0,0 UV-I 0 W/m -3,3 C -5,1 C 16,1 km/h (3 Bft)
07.02.2023 01:51 -1,7 C -1,7 C 89 % 1040,1 hPa 0,0 l/m 8,0 km/h (2 Bft) O-NO 67 0 min 0,0 UV-I 0 W/m -3,3 C -3,4 C 11,3 km/h (2 Bft)
07.02.2023 01:52 -1,7 C -1,7 C 89 % 1040,2 hPa 0,0 l/m 14,5 km/h (3 Bft) O-NO 67 0 min 0,0 UV-I 0 W/m -3,3 C -8,7 C 20,9 km/h (4 Bft)
07.02.2023 01:53 -1,8 C -1,7 C 89 % 1040,1 hPa 0,0 l/m 16,1 km/h (3 Bft) O-NO 67 0 min 0,0 UV-I 0 W/m -3,4 C -9,8 C 22,5 km/h (4 Bft)
07.02.2023 01:54 -1,8 C -1,7 C 89 % 1040,0 hPa 0,0 l/m 9,7 km/h (2 Bft) O 90 0 min 0,0 UV-I 0 W/m -3,4 C -5,2 C 17,7 km/h (3 Bft)
07.02.2023 01:55 -1,7 C -1,7 C 89 % 1040,1 hPa 0,0 l/m 8,0 km/h (2 Bft) O-NO 67 0 min 0,0 UV-I 0 W/m -3,3 C -3,4 C 11,3 km/h (2 Bft)
07.02.2023 01:56 -1,7 C -1,7 C 89 % 1040,1 hPa 0,0 l/m 6,4 km/h (2 Bft) O-NO 67 0 min 0,0 UV-I 0 W/m -3,3 C -1,7 C 9,7 km/h (2 Bft)
07.02.2023 01:57 -1,7 C -1,7 C 89 % 1040,1 hPa 0,0 l/m 6,4 km/h (2 Bft) O-NO 67 0 min 0,0 UV-I 0 W/m -3,3 C -1,7 C 11,3 km/h (2 Bft)
07.02.2023 01:58 -1,7 C -1,7 C 89 % 1040,2 hPa 0,0 l/m 9,7 km/h (2 Bft) O-NO 67 0 min 0,0 UV-I 0 W/m -3,3 C -5,1 C 14,5 km/h (3 Bft)
07.02.2023 01:59 -1,7 C -1,7 C 89 % 1040,1 hPa 0,0 l/m 12,9 km/h (3 Bft) O-NO 67 0 min 0,0 UV-I 0 W/m -3,3 C -7,6 C 17,7 km/h (3 Bft)
07.02.2023 02:00 -1,7 C -1,7 C 89 % 1040,1 hPa 0,0 l/m 16,1 km/h (3 Bft) O-NO 67 0 min 0,0 UV-I 0 W/m -3,3 C -9,7 C 22,5 km/h (4 Bft)
07.02.2023 02:01 -1,7 C -1,7 C 89 % 1040,1 hPa 0,0 l/m 11,3 km/h (2 Bft) O-NO 67 0 min 0,0 UV-I 0 W/m -3,3 C -6,4 C 17,7 km/h (3 Bft)
07.02.2023 02:02 -1,7 C -1,7 C 88 % 1040,2 hPa 0,0 l/m 14,5 km/h (3 Bft) NO 45 0 min 0,0 UV-I 0 W/m -3,4 C -8,7 C 24,1 km/h (4 Bft)
07.02.2023 02:03 -1,7 C -1,7 C 88 % 1040,2 hPa 0,0 l/m 14,5 km/h (3 Bft) O-NO 67 0 min 0,0 UV-I 0 W/m -3,4 C -8,7 C 22,5 km/h (4 Bft)
07.02.2023 02:04 -1,8 C -1,7 C 88 % 1040,2 hPa 0,0 l/m 16,1 km/h (3 Bft) O-NO 67 0 min 0,0 UV-I 0 W/m -3,5 C -9,8 C 22,5 km/h (4 Bft)
07.02.2023 02:05 -1,8 C -2,2 C 88 % 1040,2 hPa 0,0 l/m 14,5 km/h (3 Bft) NO 45 0 min 0,0 UV-I 0 W/m -3,5 C -8,8 C 20,9 km/h (4 Bft)
07.02.2023 02:06 -1,8 C -2,2 C 88 % 1040,2 hPa 0,0 l/m 8,0 km/h (2 Bft) O-NO 67 0 min 0,0 UV-I 0 W/m -3,5 C -3,5 C 12,9 km/h (3 Bft)
07.02.2023 02:07 -1,8 C -2,2 C 88 % 1040,2 hPa 0,0 l/m 8,0 km/h (2 Bft) NO 45 0 min 0,0 UV-I 0 W/m -3,5 C -3,5 C 12,9 km/h (3 Bft)
07.02.2023 02:08 -1,8 C -2,2 C 88 % 1040,2 hPa 0,0 l/m 11,3 km/h (2 Bft) NO 45 0 min 0,0 UV-I 0 W/m -3,5 C -6,5 C 17,7 km/h (3 Bft)
07.02.2023 02:09 -1,8 C -2,2 C 88 % 1040,3 hPa 0,0 l/m 9,7 km/h (2 Bft) NO 45 0 min 0,0 UV-I 0 W/m -3,5 C -5,2 C 17,7 km/h (3 Bft)
07.02.2023 02:10 -1,8 C -2,2 C 88 % 1040,1 hPa 0,0 l/m 12,9 km/h (3 Bft) NO 45 0 min 0,0 UV-I 0 W/m -3,5 C -7,7 C 19,3 km/h (3 Bft)
07.02.2023 02:11 -1,8 C -2,2 C 88 % 1040,3 hPa 0,0 l/m 12,9 km/h (3 Bft) O-NO 67 0 min 0,0 UV-I 0 W/m -3,5 C -7,7 C 17,7 km/h (3 Bft)
07.02.2023 02:12 -1,7 C -2,2 C 88 % 1040,3 hPa 0,0 l/m 9,7 km/h (2 Bft) O-NO 67 0 min 0,0 UV-I 0 W/m -3,4 C -5,1 C 16,1 km/h (3 Bft)
07.02.2023 02:13 -1,8 C -2,2 C 88 % 1040,2 hPa 0,0 l/m 11,3 km/h (2 Bft) O-NO 67 0 min 0,0 UV-I 0 W/m -3,5 C -6,5 C 14,5 km/h (3 Bft)
07.02.2023 02:14 -1,8 C -2,2 C 88 % 1040,3 hPa 0,0 l/m 9,7 km/h (2 Bft) O-NO 67 0 min 0,0 UV-I 0 W/m -3,5 C -5,2 C 14,5 km/h (3 Bft)
07.02.2023 02:15 -1,8 C -2,2 C 88 % 1040,3 hPa 0,0 l/m 12,9 km/h (3 Bft) NO 45 0 min 0,0 UV-I 0 W/m -3,5 C -7,7 C 17,7 km/h (3 Bft)
07.02.2023 02:16 -1,8 C -2,2 C 88 % 1040,3 hPa 0,0 l/m 14,5 km/h (3 Bft) O-NO 67 0 min 0,0 UV-I 0 W/m -3,5 C -8,8 C 19,3 km/h (3 Bft)
07.02.2023 02:17 -1,8 C -2,2 C 88 % 1040,2 hPa 0,0 l/m 14,5 km/h (3 Bft) O-NO 67 0 min 0,0 UV-I 0 W/m -3,5 C -8,8 C 17,7 km/h (3 Bft)
07.02.2023 02:18 -1,8 C -2,2 C 88 % 1040,2 hPa 0,0 l/m 9,7 km/h (2 Bft) NO 45 0 min 0,0 UV-I 0 W/m -3,5 C -5,2 C 16,1 km/h (3 Bft)
07.02.2023 02:19 -1,7 C -2,2 C 88 % 1040,2 hPa 0,0 l/m 9,7 km/h (2 Bft) NO 45 0 min 0,0 UV-I 0 W/m -3,4 C -5,1 C 14,5 km/h (3 Bft)
07.02.2023 02:20 -1,7 C -2,2 C 87 % 1040,3 hPa 0,0 l/m 8,0 km/h (2 Bft) NO 45 0 min 0,0 UV-I 0 W/m -3,6 C -3,4 C 11,3 km/h (2 Bft)
07.02.2023 02:21 -1,8 C -2,2 C 87 % 1040,2 hPa 0,0 l/m 6,4 km/h (2 Bft) O-NO 67 0 min 0,0 UV-I 0 W/m -3,7 C -1,8 C 11,3 km/h (2 Bft)
07.02.2023 02:22 -1,8 C -2,2 C 87 % 1040,2 hPa 0,0 l/m 8,0 km/h (2 Bft) NO 45 0 min 0,0 UV-I 0 W/m -3,7 C -3,5 C 14,5 km/h (3 Bft)
07.02.2023 02:23 -1,8 C -2,2 C 87 % 1040,1 hPa 0,0 l/m 9,7 km/h (2 Bft) O-NO 67 0 min 0,0 UV-I 0 W/m -3,7 C -5,2 C 16,1 km/h (3 Bft)
07.02.2023 02:24 -1,8 C -2,2 C 87 % 1040,3 hPa 0,0 l/m 9,7 km/h (2 Bft) O-NO 67 0 min 0,0 UV-I 0 W/m -3,7 C -5,2 C 12,9 km/h (3 Bft)
07.02.2023 02:25 -1,8 C -2,2 C 87 % 1040,2 hPa 0,0 l/m 11,3 km/h (2 Bft) NO 45 0 min 0,0 UV-I 0 W/m -3,7 C -6,5 C 17,7 km/h (3 Bft)
07.02.2023 02:26 -1,8 C -2,2 C 87 % 1040,2 hPa 0,0 l/m 12,9 km/h (3 Bft) O-NO 67 0 min 0,0 UV-I 0 W/m -3,7 C -7,7 C 17,7 km/h (3 Bft)
07.02.2023 02:27 -1,8 C -2,2 C 88 % 1040,2 hPa 0,0 l/m 9,7 km/h (2 Bft) O-NO 67 0 min 0,0 UV-I 0 W/m -3,5 C -5,2 C 16,1 km/h (3 Bft)
07.02.2023 02:28 -1,8 C -2,2 C 88 % 1040,2 hPa 0,0 l/m 9,7 km/h (2 Bft) NO 45 0 min 0,0 UV-I 0 W/m -3,5 C -5,2 C 16,1 km/h (3 Bft)
07.02.2023 02:29 -1,8 C -2,2 C 87 % 1040,2 hPa 0,0 l/m 11,3 km/h (2 Bft) NO 45 0 min 0,0 UV-I 0 W/m -3,7 C -6,5 C 16,1 km/h (3 Bft)
07.02.2023 02:30 -1,8 C -2,2 C 88 % 1040,1 hPa 0,0 l/m 9,7 km/h (2 Bft) O-NO 67 0 min 0,0 UV-I 0 W/m -3,5 C -5,2 C 16,1 km/h (3 Bft)
07.02.2023 02:31 -1,8 C -2,2 C 88 % 1040,1 hPa 0,0 l/m 9,7 km/h (2 Bft) O-NO 67 0 min 0,0 UV-I 0 W/m -3,5 C -5,2 C 14,5 km/h (3 Bft)
07.02.2023 02:32 -1,8 C -2,2 C 88 % 1040,1 hPa 0,0 l/m 11,3 km/h (2 Bft) NO 45 0 min 0,0 UV-I 0 W/m -3,5 C -6,5 C 16,1 km/h (3 Bft)
07.02.2023 02:33 -1,8 C -2,2 C 87 % 1040,2 hPa 0,0 l/m 11,3 km/h (2 Bft) O-NO 67 0 min 0,0 UV-I 0 W/m -3,7 C -6,5 C 17,7 km/h (3 Bft)
07.02.2023 02:34 -1,9 C -2,2 C 88 % 1040,2 hPa 0,0 l/m 6,4 km/h (2 Bft) O-NO 67 0 min 0,0 UV-I 0 W/m -3,6 C -1,9 C 8,0 km/h (2 Bft)
07.02.2023 02:35 -1,9 C -2,2 C 88 % 1040,1 hPa 0,0 l/m 9,7 km/h (2 Bft) O-NO 67 0 min 0,0 UV-I 0 W/m -3,6 C -5,3 C 17,7 km/h (3 Bft)
07.02.2023 02:36 -1,9 C -2,2 C 88 % 1040,1 hPa 0,0 l/m 11,3 km/h (2 Bft) O-NO 67 0 min 0,0 UV-I 0 W/m -3,6 C -6,6 C 19,3 km/h (3 Bft)
07.02.2023 02:37 -1,8 C -2,2 C 88 % 1040,2 hPa 0,0 l/m 11,3 km/h (2 Bft) NO 45 0 min 0,0 UV-I 0 W/m -3,5 C -6,5 C 16,1 km/h (3 Bft)
07.02.2023 02:38 -1,8 C -2,2 C 87 % 1040,1 hPa 0,0 l/m 11,3 km/h (2 Bft) O-NO 67 0 min 0,0 UV-I 0 W/m -3,7 C -6,5 C 17,7 km/h (3 Bft)
07.02.2023 02:39 -1,9 C -2,2 C 87 % 1040,1 hPa 0,0 l/m 11,3 km/h (2 Bft) NO 45 0 min 0,0 UV-I 0 W/m -3,8 C -6,6 C 22,5 km/h (4 Bft)
07.02.2023 02:40 -1,8 C -2,2 C 87 % 1040,1 hPa 0,0 l/m 12,9 km/h (3 Bft) NO 45 0 min 0,0 UV-I 0 W/m -3,7 C -7,7 C 24,1 km/h (4 Bft)
07.02.2023 02:41 -1,8 C -2,2 C 87 % 1040,1 hPa 0,0 l/m 12,9 km/h (3 Bft) O-NO 67 0 min 0,0 UV-I 0 W/m -3,7 C -7,7 C 19,3 km/h (3 Bft)
07.02.2023 02:42 -1,9 C -2,2 C 87 % 1040,1 hPa 0,0 l/m 14,5 km/h (3 Bft) O 90 0 min 0,0 UV-I 0 W/m -3,8 C -9,0 C 20,9 km/h (4 Bft)
07.02.2023 02:43 -1,9 C -2,2 C 87 % 1040,1 hPa 0,0 l/m 8,0 km/h (2 Bft) O-NO 67 0 min 0,0 UV-I 0 W/m -3,8 C -3,6 C 12,9 km/h (3 Bft)
07.02.2023 02:44 -1,9 C -2,2 C 87 % 1040,0 hPa 0,0 l/m 11,3 km/h (2 Bft) O 90 0 min 0,0 UV-I 0 W/m -3,8 C -6,6 C 16,1 km/h (3 Bft)
07.02.2023 02:45 -1,8 C -2,8 C 87 % 1040,1 hPa 0,0 l/m 6,4 km/h (2 Bft) O-NO 67 0 min 0,0 UV-I 0 W/m -3,7 C -1,8 C 12,9 km/h (3 Bft)
07.02.2023 02:46 -1,9 C -2,8 C 87 % 1040,1 hPa 0,0 l/m 8,0 km/h (2 Bft) O-NO 67 0 min 0,0 UV-I 0 W/m -3,8 C -3,6 C 14,5 km/h (3 Bft)
07.02.2023 02:47 -1,9 C -2,8 C 87 % 1040,0 hPa 0,0 l/m 6,4 km/h (2 Bft) O-NO 67 0 min 0,0 UV-I 0 W/m -3,8 C -1,9 C 9,7 km/h (2 Bft)
07.02.2023 02:48 -1,9 C -2,8 C 87 % 1040,1 hPa 0,0 l/m 8,0 km/h (2 Bft) O-NO 67 0 min 0,0 UV-I 0 W/m -3,8 C -3,6 C 12,9 km/h (3 Bft)
07.02.2023 02:49 -1,9 C -2,8 C 87 % 1040,0 hPa 0,0 l/m 11,3 km/h (2 Bft) O-NO 67 0 min 0,0 UV-I 0 W/m -3,8 C -6,6 C 14,5 km/h (3 Bft)
07.02.2023 02:50 -1,9 C -2,8 C 87 % 1040,0 hPa 0,0 l/m 9,7 km/h (2 Bft) O-NO 67 0 min 0,0 UV-I 0 W/m -3,8 C -5,3 C 14,5 km/h (3 Bft)
07.02.2023 02:51 -1,9 C -2,8 C 87 % 1040,1 hPa 0,0 l/m 4,8 km/h (1 Bft) O-NO 67 0 min 0,0 UV-I 0 W/m -3,8 C -1,9 C 8,0 km/h (2 Bft)
07.02.2023 02:52 -1,9 C -2,8 C 87 % 1040,2 hPa 0,0 l/m 8,0 km/h (2 Bft) O-NO 67 0 min 0,0 UV-I 0 W/m -3,8 C -3,6 C 14,5 km/h (3 Bft)
07.02.2023 02:53 -1,9 C -2,8 C 87 % 1040,1 hPa 0,0 l/m 9,7 km/h (2 Bft) O 90 0 min 0,0 UV-I 0 W/m -3,8 C -5,3 C 14,5 km/h (3 Bft)
07.02.2023 02:54 -1,9 C -2,8 C 87 % 1040,2 hPa 0,0 l/m 4,8 km/h (1 Bft) O-NO 67 0 min 0,0 UV-I 0 W/m -3,8 C -1,9 C 8,0 km/h (2 Bft)
07.02.2023 02:55 -1,9 C -2,8 C 87 % 1040,2 hPa 0,0 l/m 8,0 km/h (2 Bft) O-NO 67 0 min 0,0 UV-I 0 W/m -3,8 C -3,6 C 12,9 km/h (3 Bft)
07.02.2023 02:56 -2,0 C -2,8 C 87 % 1040,1 hPa 0,0 l/m 8,0 km/h (2 Bft) O-NO 67 0 min 0,0 UV-I 0 W/m -3,9 C -3,7 C 12,9 km/h (3 Bft)
07.02.2023 02:57 -1,9 C -2,8 C 87 % 1040,3 hPa 0,0 l/m 8,0 km/h (2 Bft) O-NO 67 0 min 0,0 UV-I 0 W/m -3,8 C -3,6 C 14,5 km/h (3 Bft)
07.02.2023 02:58 -2,0 C -2,8 C 87 % 1040,2 hPa 0,0 l/m 9,7 km/h (2 Bft) O 90 0 min 0,0 UV-I 0 W/m -3,9 C -5,4 C 11,3 km/h (2 Bft)
07.02.2023 02:59 -2,0 C -2,8 C 87 % 1040,2 hPa 0,0 l/m 6,4 km/h (2 Bft) O-NO 67 0 min 0,0 UV-I 0 W/m -3,9 C -2,0 C 8,0 km/h (2 Bft)
07.02.2023 03:00 -1,9 C -2,8 C 87 % 1040,2 hPa 0,0 l/m 9,7 km/h (2 Bft) O-NO 67 0 min 0,0 UV-I 0 W/m -3,8 C -5,3 C 14,5 km/h (3 Bft)
07.02.2023 03:01 -1,9 C -2,8 C 87 % 1040,2 hPa 0,0 l/m 12,9 km/h (3 Bft) O-NO 67 0 min 0,0 UV-I 0 W/m -3,8 C -7,9 C 19,3 km/h (3 Bft)
07.02.2023 03:02 -2,0 C -2,8 C 87 % 1040,2 hPa 0,0 l/m 12,9 km/h (3 Bft) O-NO 67 0 min 0,0 UV-I 0 W/m -3,9 C -8,0 C 16,1 km/h (3 Bft)
07.02.2023 03:03 -2,0 C -2,8 C 86 % 1040,2 hPa 0,0 l/m 17,7 km/h (3 Bft) O-NO 67 0 min 0,0 UV-I 0 W/m -4,0 C -11,0 C 19,3 km/h (3 Bft)
07.02.2023 03:04 -2,0 C -2,8 C 86 % 1040,3 hPa 0,0 l/m 12,9 km/h (3 Bft) O 90 0 min 0,0 UV-I 0 W/m -4,0 C -8,0 C 17,7 km/h (3 Bft)
07.02.2023 03:05 -2,0 C -2,8 C 86 % 1040,2 hPa 0,0 l/m 12,9 km/h (3 Bft) O-NO 67 0 min 0,0 UV-I 0 W/m -4,0 C -8,0 C 14,5 km/h (3 Bft)
07.02.2023 03:06 -1,9 C -2,8 C 86 % 1040,2 hPa 0,0 l/m 11,3 km/h (2 Bft) O-NO 67 0 min 0,0 UV-I 0 W/m -3,9 C -6,6 C 16,1 km/h (3 Bft)
07.02.2023 03:07 -1,9 C -2,8 C 86 % 1040,2 hPa 0,0 l/m 17,7 km/h (3 Bft) O-NO 67 0 min 0,0 UV-I 0 W/m -3,9 C -10,9 C 24,1 km/h (4 Bft)
07.02.2023 03:08 -2,0 C -2,8 C 86 % 1040,2 hPa 0,0 l/m 19,3 km/h (3 Bft) O-NO 67 0 min 0,0 UV-I 0 W/m -4,0 C -11,9 C 30,6 km/h (5 Bft)
07.02.2023 03:09 -1,9 C -2,2 C 86 % 1040,2 hPa 0,0 l/m 22,5 km/h (4 Bft) O-NO 67 0 min 0,0 UV-I 0 W/m -3,9 C -13,3 C 32,2 km/h (5 Bft)
07.02.2023 03:10 -1,9 C -2,2 C 86 % 1040,2 hPa 0,0 l/m 14,5 km/h (3 Bft) O 90 0 min 0,0 UV-I 0 W/m -3,9 C -9,0 C 32,2 km/h (5 Bft)
07.02.2023 03:11 -1,9 C -2,2 C 86 % 1040,1 hPa 0,0 l/m 19,3 km/h (3 Bft) O-NO 67 0 min 0,0 UV-I 0 W/m -3,9 C -11,7 C 24,1 km/h (4 Bft)
07.02.2023 03:12 -1,9 C -2,2 C 86 % 1040,1 hPa 0,0 l/m 11,3 km/h (2 Bft) O-NO 67 0 min 0,0 UV-I 0 W/m -3,9 C -6,6 C 17,7 km/h (3 Bft)
07.02.2023 03:13 -1,9 C -2,8 C 86 % 1040,1 hPa 0,0 l/m 11,3 km/h (2 Bft) O-NO 67 0 min 0,0 UV-I 0 W/m -3,9 C -6,6 C 19,3 km/h (3 Bft)
07.02.2023 03:14 -1,9 C -2,8 C 85 % 1039,9 hPa 0,0 l/m 12,9 km/h (3 Bft) O-NO 67 0 min 0,0 UV-I 0 W/m -4,1 C -7,9 C 19,3 km/h (3 Bft)
07.02.2023 03:15 -1,9 C -2,8 C 85 % 1040,0 hPa 0,0 l/m 8,0 km/h (2 Bft) O-NO 67 0 min 0,0 UV-I 0 W/m -4,1 C -3,6 C 14,5 km/h (3 Bft)
07.02.2023 03:16 -2,0 C -2,8 C 85 % 1040,1 hPa 0,0 l/m 8,0 km/h (2 Bft) O-NO 67 0 min 0,0 UV-I 0 W/m -4,2 C -3,7 C 14,5 km/h (3 Bft)
07.02.2023 03:17 -2,0 C -3,3 C 85 % 1040,0 hPa 0,0 l/m 11,3 km/h (2 Bft) O-NO 67 0 min 0,0 UV-I 0 W/m -4,2 C -6,8 C 16,1 km/h (3 Bft)
07.02.2023 03:18 -2,1 C -3,3 C 85 % 1040,0 hPa 0,0 l/m 11,3 km/h (2 Bft) O-NO 67 0 min 0,0 UV-I 0 W/m -4,3 C -6,9 C 16,1 km/h (3 Bft)
07.02.2023 03:19 -2,1 C -3,3 C 85 % 1040,1 hPa 0,0 l/m 9,7 km/h (2 Bft) O 90 0 min 0,0 UV-I 0 W/m -4,3 C -5,5 C 14,5 km/h (3 Bft)
07.02.2023 03:20 -2,1 C -3,3 C 85 % 1040,1 hPa 0,0 l/m 11,3 km/h (2 Bft) O-NO 67 0 min 0,0 UV-I 0 W/m -4,3 C -6,9 C 14,5 km/h (3 Bft)
07.02.2023 03:21 -2,1 C -3,3 C 85 % 1040,0 hPa 0,0 l/m 8,0 km/h (2 Bft) O-NO 67 0 min 0,0 UV-I 0 W/m -4,3 C -3,9 C 14,5 km/h (3 Bft)
07.02.2023 03:22 -2,1 C -3,3 C 85 % 1040,0 hPa 0,0 l/m 8,0 km/h (2 Bft) O-NO 67 0 min 0,0 UV-I 0 W/m -4,3 C -3,9 C 11,3 km/h (2 Bft)
07.02.2023 03:23 -2,2 C -3,3 C 85 % 1040,0 hPa 0,0 l/m 8,0 km/h (2 Bft) NO 45 0 min 0,0 UV-I 0 W/m -4,4 C -4,0 C 16,1 km/h (3 Bft)
07.02.2023 03:24 -2,2 C -3,3 C 85 % 1039,9 hPa 0,0 l/m 4,8 km/h (1 Bft) O-NO 67 0 min 0,0 UV-I 0 W/m -4,4 C -2,2 C 8,0 km/h (2 Bft)
07.02.2023 03:25 -2,2 C -3,3 C 85 % 1039,9 hPa 0,0 l/m 8,0 km/h (2 Bft) O-NO 67 0 min 0,0 UV-I 0 W/m -4,4 C -4,0 C 12,9 km/h (3 Bft)
07.02.2023 03:26 -2,2 C -3,9 C 85 % 1039,9 hPa 0,0 l/m 4,8 km/h (1 Bft) O-NO 67 0 min 0,0 UV-I 0 W/m -4,4 C -2,2 C 6,4 km/h (2 Bft)
07.02.2023 03:27 -2,2 C -3,9 C 85 % 1040,0 hPa 0,0 l/m 8,0 km/h (2 Bft) O-NO 67 0 min 0,0 UV-I 0 W/m -4,4 C -4,0 C 11,3 km/h (2 Bft)
07.02.2023 03:28 -2,3 C -3,9 C 85 % 1039,9 hPa 0,0 l/m 6,4 km/h (2 Bft) O-NO 67 0 min 0,0 UV-I 0 W/m -4,5 C -2,3 C 8,0 km/h (2 Bft)
07.02.2023 03:29 -2,3 C -3,9 C 85 % 1039,9 hPa 0,0 l/m 4,8 km/h (1 Bft) O-NO 67 0 min 0,0 UV-I 0 W/m -4,5 C -2,3 C 6,4 km/h (2 Bft)
07.02.2023 03:30 -2,3 C -3,9 C 85 % 1039,9 hPa 0,0 l/m 8,0 km/h (2 Bft) O-NO 67 0 min 0,0 UV-I 0 W/m -4,5 C -4,1 C 11,3 km/h (2 Bft)
07.02.2023 03:31 -2,3 C -3,9 C 85 % 1039,9 hPa 0,0 l/m 8,0 km/h (2 Bft) NO 45 0 min 0,0 UV-I 0 W/m -4,5 C -4,1 C 12,9 km/h (3 Bft)
07.02.2023 03:32 -2,3 C -3,9 C 85 % 1039,7 hPa 0,0 l/m 9,7 km/h (2 Bft) O-NO 67 0 min 0,0 UV-I 0 W/m -4,5 C -5,7 C 12,9 km/h (3 Bft)
07.02.2023 03:33 -2,3 C -3,9 C 85 % 1039,8 hPa 0,0 l/m 8,0 km/h (2 Bft) O-NO 67 0 min 0,0 UV-I 0 W/m -4,5 C -4,1 C 11,3 km/h (2 Bft)
07.02.2023 03:34 -2,3 C -3,9 C 85 % 1039,7 hPa 0,0 l/m 8,0 km/h (2 Bft) O-NO 67 0 min 0,0 UV-I 0 W/m -4,5 C -4,1 C 16,1 km/h (3 Bft)
07.02.2023 03:35 -2,3 C -3,9 C 85 % 1039,8 hPa 0,0 l/m 8,0 km/h (2 Bft) O-NO 67 0 min 0,0 UV-I 0 W/m -4,5 C -4,1 C 17,7 km/h (3 Bft)
07.02.2023 03:36 -2,4 C -3,9 C 86 % 1039,8 hPa 0,0 l/m 9,7 km/h (2 Bft) O-NO 67 0 min 0,0 UV-I 0 W/m -4,4 C -5,8 C 14,5 km/h (3 Bft)
07.02.2023 03:37 -2,4 C -3,9 C 86 % 1039,7 hPa 0,0 l/m 12,9 km/h (3 Bft) O-NO 67 0 min 0,0 UV-I 0 W/m -4,4 C -8,4 C 16,1 km/h (3 Bft)
07.02.2023 03:38 -2,4 C -3,9 C 86 % 1039,7 hPa 0,0 l/m 11,3 km/h (2 Bft) O-NO 67 0 min 0,0 UV-I 0 W/m -4,4 C -7,2 C 16,1 km/h (3 Bft)
07.02.2023 03:39 -2,4 C -3,9 C 86 % 1039,8 hPa 0,0 l/m 3,2 km/h (1 Bft) NO 45 0 min 0,0 UV-I 0 W/m -4,4 C -2,4 C 6,4 km/h (2 Bft)
07.02.2023 03:40 -2,4 C -3,9 C 86 % 1039,7 hPa 0,0 l/m 4,8 km/h (1 Bft) NO 45 0 min 0,0 UV-I 0 W/m -4,4 C -2,4 C 8,0 km/h (2 Bft)
07.02.2023 03:41 -2,4 C -3,9 C 86 % 1039,7 hPa 0,0 l/m 4,8 km/h (1 Bft) NO 45 0 min 0,0 UV-I 0 W/m -4,4 C -2,4 C 8,0 km/h (2 Bft)
07.02.2023 03:42 -2,5 C -4,4 C 86 % 1039,6 hPa 0,0 l/m 6,4 km/h (2 Bft) O-NO 67 0 min 0,0 UV-I 0 W/m -4,5 C -2,5 C 11,3 km/h (2 Bft)
07.02.2023 03:43 -2,5 C -3,9 C 86 % 1039,7 hPa 0,0 l/m 6,4 km/h (2 Bft) O-NO 67 0 min 0,0 UV-I 0 W/m -4,5 C -2,5 C 12,9 km/h (3 Bft)
07.02.2023 03:44 -2,5 C -3,9 C 86 % 1039,7 hPa 0,0 l/m 3,2 km/h (1 Bft) O-NO 67 0 min 0,0 UV-I 0 W/m -4,5 C -2,5 C 6,4 km/h (2 Bft)
07.02.2023 03:45 -2,6 C -4,4 C 86 % 1039,8 hPa 0,0 l/m 6,4 km/h (2 Bft) NO 45 0 min 0,0 UV-I 0 W/m -4,6 C -2,6 C 8,0 km/h (2 Bft)
07.02.2023 03:46 -2,6 C -4,4 C 86 % 1039,6 hPa 0,0 l/m 6,4 km/h (2 Bft) NO 45 0 min 0,0 UV-I 0 W/m -4,6 C -2,6 C 9,7 km/h (2 Bft)
07.02.2023 03:47 -2,6 C -4,4 C 86 % 1039,7 hPa 0,0 l/m 6,4 km/h (2 Bft) O-NO 67 0 min 0,0 UV-I 0 W/m -4,6 C -2,6 C 8,0 km/h (2 Bft)
07.02.2023 03:48 -2,6 C -4,4 C 86 % 1039,7 hPa 0,0 l/m 6,4 km/h (2 Bft) O-NO 67 0 min 0,0 UV-I 0 W/m -4,6 C -2,6 C 11,3 km/h (2 Bft)
07.02.2023 03:49 -2,6 C -4,4 C 86 % 1039,7 hPa 0,0 l/m 3,2 km/h (1 Bft) O-NO 67 0 min 0,0 UV-I 0 W/m -4,6 C -2,6 C 6,4 km/h (2 Bft)
07.02.2023 03:50 -2,6 C -4,4 C 86 % 1039,7 hPa 0,0 l/m 6,4 km/h (2 Bft) NO 45 0 min 0,0 UV-I 0 W/m -4,6 C -2,6 C 11,3 km/h (2 Bft)
07.02.2023 03:51 -2,7 C -4,4 C 86 % 1039,7 hPa 0,0 l/m 6,4 km/h (2 Bft) NO 45 0 min 0,0 UV-I 0 W/m -4,7 C -2,7 C 14,5 km/h (3 Bft)
07.02.2023 03:52 -2,7 C -4,4 C 86 % 1039,7 hPa 0,0 l/m 12,9 km/h (3 Bft) O-NO 67 0 min 0,0 UV-I 0 W/m -4,7 C -8,8 C 16,1 km/h (3 Bft)
07.02.2023 03:53 -2,7 C -4,4 C 86 % 1039,7 hPa 0,0 l/m 6,4 km/h (2 Bft) O-NO 67 0 min 0,0 UV-I 0 W/m -4,7 C -2,7 C 12,9 km/h (3 Bft)
07.02.2023 03:54 -2,6 C -4,4 C 86 % 1039,7 hPa 0,0 l/m 6,4 km/h (2 Bft) NO 45 0 min 0,0 UV-I 0 W/m -4,6 C -2,6 C 11,3 km/h (2 Bft)
07.02.2023 03:55 -2,6 C -4,4 C 86 % 1039,7 hPa 0,0 l/m 6,4 km/h (2 Bft) NO 45 0 min 0,0 UV-I 0 W/m -4,6 C -2,6 C 8,0 km/h (2 Bft)
07.02.2023 03:56 -2,7 C -4,4 C 86 % 1039,7 hPa 0,0 l/m 4,8 km/h (1 Bft) NO 45 0 min 0,0 UV-I 0 W/m -4,7 C -2,7 C 8,0 km/h (2 Bft)
07.02.2023 03:57 -2,7 C -4,4 C 86 % 1039,7 hPa 0,0 l/m 6,4 km/h (2 Bft) N-NO 22 0 min 0,0 UV-I 0 W/m -4,7 C -2,7 C 9,7 km/h (2 Bft)
07.02.2023 03:58 -2,7 C -4,4 C 86 % 1039,6 hPa 0,0 l/m 8,0 km/h (2 Bft) N-NO 22 0 min 0,0 UV-I 0 W/m -4,7 C -4,5 C 9,7 km/h (2 Bft)
07.02.2023 03:59 -2,7 C -4,4 C 86 % 1039,6 hPa 0,0 l/m 8,0 km/h (2 Bft) N-NO 22 0 min 0,0 UV-I 0 W/m -4,7 C -4,5 C 11,3 km/h (2 Bft)
07.02.2023 04:00 -2,7 C -4,4 C 86 % 1039,7 hPa 0,0 l/m 8,0 km/h (2 Bft) N-NO 22 0 min 0,0 UV-I 0 W/m -4,7 C -4,5 C 9,7 km/h (2 Bft)
07.02.2023 04:01 -2,8 C -4,4 C 86 % 1039,7 hPa 0,0 l/m 6,4 km/h (2 Bft) N-NO 22 0 min 0,0 UV-I 0 W/m -4,8 C -2,8 C 9,7 km/h (2 Bft)
07.02.2023 04:02 -2,8 C -4,4 C 86 % 1039,7 hPa 0,0 l/m 8,0 km/h (2 Bft) N-NO 22 0 min 0,0 UV-I 0 W/m -4,8 C -4,6 C 11,3 km/h (2 Bft)
07.02.2023 04:03 -2,8 C -4,4 C 86 % 1039,6 hPa 0,0 l/m 8,0 km/h (2 Bft) N-NO 22 0 min 0,0 UV-I 0 W/m -4,8 C -4,6 C 12,9 km/h (3 Bft)
07.02.2023 04:04 -2,8 C -4,4 C 86 % 1039,8 hPa 0,0 l/m 8,0 km/h (2 Bft) N-NO 22 0 min 0,0 UV-I 0 W/m -4,8 C -4,6 C 12,9 km/h (3 Bft)
07.02.2023 04:05 -2,8 C -4,4 C 86 % 1039,7 hPa 0,0 l/m 8,0 km/h (2 Bft) NO 45 0 min 0,0 UV-I 0 W/m -4,8 C -4,6 C 11,3 km/h (2 Bft)
07.02.2023 04:06 -2,8 C -3,9 C 86 % 1039,8 hPa 0,0 l/m 8,0 km/h (2 Bft) N-NO 22 0 min 0,0 UV-I 0 W/m -4,8 C -4,6 C 11,3 km/h (2 Bft)
07.02.2023 04:07 -2,8 C -4,4 C 86 % 1039,9 hPa 0,0 l/m 8,0 km/h (2 Bft) N-NO 22 0 min 0,0 UV-I 0 W/m -4,8 C -4,6 C 9,7 km/h (2 Bft)
07.02.2023 04:08 -2,8 C -4,4 C 86 % 1039,8 hPa 0,0 l/m 8,0 km/h (2 Bft) N-NO 22 0 min 0,0 UV-I 0 W/m -4,8 C -4,6 C 12,9 km/h (3 Bft)
07.02.2023 04:09 -2,8 C -4,4 C 86 % 1039,8 hPa 0,0 l/m 8,0 km/h (2 Bft) N-NO 22 0 min 0,0 UV-I 0 W/m -4,8 C -4,6 C 12,9 km/h (3 Bft)
07.02.2023 04:10 -2,8 C -4,4 C 86 % 1039,8 hPa 0,0 l/m 8,0 km/h (2 Bft) N-NO 22 0 min 0,0 UV-I 0 W/m -4,8 C -4,6 C 11,3 km/h (2 Bft)
07.02.2023 04:11 -2,9 C -4,4 C 86 % 1039,7 hPa 0,0 l/m 8,0 km/h (2 Bft) N-NO 22 0 min 0,0 UV-I 0 W/m -4,9 C -4,7 C 11,3 km/h (2 Bft)
07.02.2023 04:12 -2,9 C -4,4 C 86 % 1039,8 hPa 0,0 l/m 8,0 km/h (2 Bft) N-NO 22 0 min 0,0 UV-I 0 W/m -4,9 C -4,7 C 9,7 km/h (2 Bft)
07.02.2023 04:13 -2,9 C -4,4 C 86 % 1039,8 hPa 0,0 l/m 8,0 km/h (2 Bft) NO 45 0 min 0,0 UV-I 0 W/m -4,9 C -4,7 C 9,7 km/h (2 Bft)
07.02.2023 04:14 -2,9 C -4,4 C 86 % 1039,8 hPa 0,0 l/m 11,3 km/h (2 Bft) N-NO 22 0 min 0,0 UV-I 0 W/m -4,9 C -7,8 C 14,5 km/h (3 Bft)
07.02.2023 04:15 -2,9 C -4,4 C 87 % 1039,7 hPa 0,0 l/m 8,0 km/h (2 Bft) N-NO 22 0 min 0,0 UV-I 0 W/m -4,8 C -4,7 C 12,9 km/h (3 Bft)
07.02.2023 04:16 -2,9 C -4,4 C 86 % 1039,8 hPa 0,0 l/m 8,0 km/h (2 Bft) NO 45 0 min 0,0 UV-I 0 W/m -4,9 C -4,7 C 9,7 km/h (2 Bft)
07.02.2023 04:17 -2,9 C -4,4 C 86 % 1039,7 hPa 0,0 l/m 6,4 km/h (2 Bft) NO 45 0 min 0,0 UV-I 0 W/m -4,9 C -2,9 C 9,7 km/h (2 Bft)
07.02.2023 04:18 -2,9 C -4,4 C 87 % 1039,7 hPa 0,0 l/m 8,0 km/h (2 Bft) NO 45 0 min 0,0 UV-I 0 W/m -4,8 C -4,7 C 9,7 km/h (2 Bft)
07.02.2023 04:19 -2,9 C -4,4 C 87 % 1039,8 hPa 0,0 l/m 8,0 km/h (2 Bft) NO 45 0 min 0,0 UV-I 0 W/m -4,8 C -4,7 C 14,5 km/h (3 Bft)
07.02.2023 04:20 -2,9 C -4,4 C 87 % 1039,8 hPa 0,0 l/m 9,7 km/h (2 Bft) NO 45 0 min 0,0 UV-I 0 W/m -4,8 C -6,4 C 14,5 km/h (3 Bft)
07.02.2023 04:21 -2,9 C -4,4 C 87 % 1039,8 hPa 0,0 l/m 9,7 km/h (2 Bft) N-NO 22 0 min 0,0 UV-I 0 W/m -4,8 C -6,4 C 12,9 km/h (3 Bft)
07.02.2023 04:22 -2,9 C -4,4 C 87 % 1039,8 hPa 0,0 l/m 6,4 km/h (2 Bft) N-NO 22 0 min 0,0 UV-I 0 W/m -4,8 C -2,9 C 8,0 km/h (2 Bft)
07.02.2023 04:23 -3,0 C -4,4 C 87 % 1039,7 hPa 0,0 l/m 6,4 km/h (2 Bft) NO 45 0 min 0,0 UV-I 0 W/m -4,9 C -3,0 C 8,0 km/h (2 Bft)
07.02.2023 04:24 -3,1 C -4,4 C 87 % 1039,8 hPa 0,0 l/m 6,4 km/h (2 Bft) N-NO 22 0 min 0,0 UV-I 0 W/m -4,9 C -3,1 C 9,7 km/h (2 Bft)
07.02.2023 04:25 -3,1 C -4,4 C 87 % 1039,8 hPa 0,0 l/m 9,7 km/h (2 Bft) N-NO 22 0 min 0,0 UV-I 0 W/m -4,9 C -6,6 C 14,5 km/h (3 Bft)
07.02.2023 04:26 -3,1 C -4,4 C 87 % 1039,8 hPa 0,0 l/m 9,7 km/h (2 Bft) N-NO 22 0 min 0,0 UV-I 0 W/m -4,9 C -6,6 C 12,9 km/h (3 Bft)
07.02.2023 04:27 -3,1 C -4,4 C 87 % 1039,7 hPa 0,0 l/m 6,4 km/h (2 Bft) N-NO 22 0 min 0,0 UV-I 0 W/m -4,9 C -3,1 C 8,0 km/h (2 Bft)
07.02.2023 04:28 -3,1 C -4,4 C 87 % 1039,7 hPa 0,0 l/m 8,0 km/h (2 Bft) NO 45 0 min 0,0 UV-I 0 W/m -4,9 C -4,9 C 11,3 km/h (2 Bft)
07.02.2023 04:29 -3,1 C -4,4 C 87 % 1039,8 hPa 0,0 l/m 6,4 km/h (2 Bft) N-NO 22 0 min 0,0 UV-I 0 W/m -4,9 C -3,1 C 8,0 km/h (2 Bft)
07.02.2023 04:30 -3,1 C -4,4 C 87 % 1039,8 hPa 0,0 l/m 6,4 km/h (2 Bft) NO 45 0 min 0,0 UV-I 0 W/m -4,9 C -3,1 C 8,0 km/h (2 Bft)
07.02.2023 04:31 -3,2 C -4,4 C 87 % 1039,8 hPa 0,0 l/m 6,4 km/h (2 Bft) N-NO 22 0 min 0,0 UV-I 0 W/m -5,0 C -3,2 C 8,0 km/h (2 Bft)
07.02.2023 04:32 -3,2 C -4,4 C 87 % 1039,7 hPa 0,0 l/m 4,8 km/h (1 Bft) N-NO 22 0 min 0,0 UV-I 0 W/m -5,0 C -3,2 C 6,4 km/h (2 Bft)
07.02.2023 04:33 -3,2 C -4,4 C 87 % 1039,8 hPa 0,0 l/m 4,8 km/h (1 Bft) N-NO 22 0 min 0,0 UV-I 0 W/m -5,0 C -3,2 C 6,4 km/h (2 Bft)
07.02.2023 04:34 -3,2 C -5,0 C 87 % 1039,7 hPa 0,0 l/m 6,4 km/h (2 Bft) N-NO 22 0 min 0,0 UV-I 0 W/m -5,0 C -3,2 C 9,7 km/h (2 Bft)
07.02.2023 04:35 -3,2 C -5,0 C 87 % 1039,8 hPa 0,0 l/m 4,8 km/h (1 Bft) N-NO 22 0 min 0,0 UV-I 0 W/m -5,0 C -3,2 C 8,0 km/h (2 Bft)
07.02.2023 04:36 -3,2 C -4,4 C 88 % 1039,8 hPa 0,0 l/m 6,4 km/h (2 Bft) N-NO 22 0 min 0,0 UV-I 0 W/m -4,9 C -3,2 C 8,0 km/h (2 Bft)
07.02.2023 04:37 -3,2 C -4,4 C 87 % 1039,7 hPa 0,0 l/m 6,4 km/h (2 Bft) NO 45 0 min 0,0 UV-I 0 W/m -5,0 C -3,2 C 9,7 km/h (2 Bft)
07.02.2023 04:38 -3,2 C -4,4 C 87 % 1039,8 hPa 0,0 l/m 6,4 km/h (2 Bft) N-NO 22 0 min 0,0 UV-I 0 W/m -5,0 C -3,2 C 8,0 km/h (2 Bft)
07.02.2023 04:39 -3,2 C -4,4 C 87 % 1039,6 hPa 0,0 l/m 8,0 km/h (2 Bft) N-NO 22 0 min 0,0 UV-I 0 W/m -5,0 C -5,0 C 12,9 km/h (3 Bft)
07.02.2023 04:40 -3,2 C -5,0 C 88 % 1039,7 hPa 0,0 l/m 6,4 km/h (2 Bft) NO 45 0 min 0,0 UV-I 0 W/m -4,9 C -3,2 C 8,0 km/h (2 Bft)
07.02.2023 04:41 -3,2 C -4,4 C 88 % 1039,7 hPa 0,0 l/m 11,3 km/h (2 Bft) N-NO 22 0 min 0,0 UV-I 0 W/m -4,9 C -8,1 C 17,7 km/h (3 Bft)
07.02.2023 04:42 -3,2 C -4,4 C 88 % 1039,7 hPa 0,0 l/m 9,7 km/h (2 Bft) N-NO 22 0 min 0,0 UV-I 0 W/m -4,9 C -6,7 C 12,9 km/h (3 Bft)
07.02.2023 04:43 -3,2 C -4,4 C 88 % 1039,7 hPa 0,0 l/m 8,0 km/h (2 Bft) N-NO 22 0 min 0,0 UV-I 0 W/m -4,9 C -5,0 C 9,7 km/h (2 Bft)
07.02.2023 04:44 -3,2 C -5,0 C 88 % 1039,7 hPa 0,0 l/m 8,0 km/h (2 Bft) N-NO 22 0 min 0,0 UV-I 0 W/m -4,9 C -5,0 C 11,3 km/h (2 Bft)
07.02.2023 04:45 -3,2 C -4,4 C 87 % 1039,7 hPa 0,0 l/m 8,0 km/h (2 Bft) N-NO 22 0 min 0,0 UV-I 0 W/m -5,0 C -5,0 C 9,7 km/h (2 Bft)
07.02.2023 04:46 -3,2 C -5,0 C 87 % 1039,7 hPa 0,0 l/m 8,0 km/h (2 Bft) N-NO 22 0 min 0,0 UV-I 0 W/m -5,0 C -5,0 C 9,7 km/h (2 Bft)
07.02.2023 04:47 -3,2 C -5,0 C 87 % 1039,7 hPa 0,0 l/m 6,4 km/h (2 Bft) NO 45 0 min 0,0 UV-I 0 W/m -5,0 C -3,2 C 9,7 km/h (2 Bft)
07.02.2023 04:48 -3,3 C -4,4 C 87 % 1039,6 hPa 0,0 l/m 6,4 km/h (2 Bft) NO 45 0 min 0,0 UV-I 0 W/m -5,1 C -3,2 C 8,0 km/h (2 Bft)
07.02.2023 04:49 -3,3 C -4,4 C 87 % 1039,6 hPa 0,0 l/m 6,4 km/h (2 Bft) NO 45 0 min 0,0 UV-I 0 W/m -5,1 C -3,2 C 8,0 km/h (2 Bft)
07.02.2023 04:50 -3,3 C -5,0 C 87 % 1039,6 hPa 0,0 l/m 6,4 km/h (2 Bft) N-NO 22 0 min 0,0 UV-I 0 W/m -5,1 C -3,2 C 9,7 km/h (2 Bft)
07.02.2023 04:51 -3,3 C -4,4 C 87 % 1039,6 hPa 0,0 l/m 6,4 km/h (2 Bft) N-NO 22 0 min 0,0 UV-I 0 W/m -5,1 C -3,2 C 9,7 km/h (2 Bft)
07.02.2023 04:52 -3,4 C -5,0 C 87 % 1039,5 hPa 0,0 l/m 8,0 km/h (2 Bft) NO 45 0 min 0,0 UV-I 0 W/m -5,2 C -5,2 C 11,3 km/h (2 Bft)
07.02.2023 04:53 -3,4 C -5,0 C 87 % 1039,5 hPa 0,0 l/m 8,0 km/h (2 Bft) NO 45 0 min 0,0 UV-I 0 W/m -5,2 C -5,2 C 11,3 km/h (2 Bft)
07.02.2023 04:54 -3,3 C -5,0 C 87 % 1039,6 hPa 0,0 l/m 8,0 km/h (2 Bft) NO 45 0 min 0,0 UV-I 0 W/m -5,1 C -5,1 C 9,7 km/h (2 Bft)
07.02.2023 04:55 -3,3 C -5,0 C 88 % 1039,6 hPa 0,0 l/m 6,4 km/h (2 Bft) NO 45 0 min 0,0 UV-I 0 W/m -5,0 C -3,2 C 9,7 km/h (2 Bft)
07.02.2023 04:56 -3,3 C -5,0 C 87 % 1039,5 hPa 0,0 l/m 6,4 km/h (2 Bft) NO 45 0 min 0,0 UV-I 0 W/m -5,1 C -3,2 C 8,0 km/h (2 Bft)
07.02.2023 04:57 -3,3 C -5,0 C 88 % 1039,5 hPa 0,0 l/m 8,0 km/h (2 Bft) NO 45 0 min 0,0 UV-I 0 W/m -5,0 C -5,1 C 9,7 km/h (2 Bft)
07.02.2023 04:58 -3,4 C -5,0 C 88 % 1039,5 hPa 0,0 l/m 6,4 km/h (2 Bft) NO 45 0 min 0,0 UV-I 0 W/m -5,1 C -3,3 C 8,0 km/h (2 Bft)
07.02.2023 04:59 -3,4 C -5,0 C 88 % 1039,5 hPa 0,0 l/m 8,0 km/h (2 Bft) NO 45 0 min 0,0 UV-I 0 W/m -5,1 C -5,2 C 9,7 km/h (2 Bft)
07.02.2023 05:00 -3,3 C -5,0 C 88 % 1039,5 hPa 0,0 l/m 6,4 km/h (2 Bft) O-NO 67 0 min 0,0 UV-I 0 W/m -5,0 C -3,2 C 8,0 km/h (2 Bft)
07.02.2023 05:01 -3,3 C -5,0 C 88 % 1039,5 hPa 0,0 l/m 4,8 km/h (1 Bft) O-NO 67 0 min 0,0 UV-I 0 W/m -5,0 C -3,3 C 8,0 km/h (2 Bft)
07.02.2023 05:02 -3,3 C -5,0 C 88 % 1039,4 hPa 0,0 l/m 6,4 km/h (2 Bft) NO 45 0 min 0,0 UV-I 0 W/m -5,0 C -3,2 C 9,7 km/h (2 Bft)
07.02.2023 05:03 -3,3 C -5,0 C 88 % 1039,4 hPa 0,0 l/m 8,0 km/h (2 Bft) O-NO 67 0 min 0,0 UV-I 0 W/m -5,0 C -5,1 C 9,7 km/h (2 Bft)
07.02.2023 05:04 -3,4 C -5,0 C 88 % 1039,4 hPa 0,0 l/m 9,7 km/h (2 Bft) O-NO 67 0 min 0,0 UV-I 0 W/m -5,1 C -6,9 C 14,5 km/h (3 Bft)
07.02.2023 05:05 -3,4 C -5,0 C 88 % 1039,4 hPa 0,0 l/m 8,0 km/h (2 Bft) O-NO 67 0 min 0,0 UV-I 0 W/m -5,1 C -5,2 C 11,3 km/h (2 Bft)
07.02.2023 05:06 -3,4 C -5,0 C 88 % 1039,4 hPa 0,0 l/m 8,0 km/h (2 Bft) NO 45 0 min 0,0 UV-I 0 W/m -5,1 C -5,2 C 11,3 km/h (2 Bft)
07.02.2023 05:07 -3,4 C -5,0 C 88 % 1039,3 hPa 0,0 l/m 8,0 km/h (2 Bft) NO 45 0 min 0,0 UV-I 0 W/m -5,1 C -5,2 C 12,9 km/h (3 Bft)
07.02.2023 05:08 -3,4 C -5,0 C 88 % 1039,3 hPa 0,0 l/m 11,3 km/h (2 Bft) NO 45 0 min 0,0 UV-I 0 W/m -5,1 C -8,3 C 16,1 km/h (3 Bft)
07.02.2023 05:09 -3,4 C -5,0 C 88 % 1039,3 hPa 0,0 l/m 9,7 km/h (2 Bft) O-NO 67 0 min 0,0 UV-I 0 W/m -5,1 C -6,9 C 16,1 km/h (3 Bft)
07.02.2023 05:10 -3,4 C -5,0 C 88 % 1039,3 hPa 0,0 l/m 9,7 km/h (2 Bft) NO 45 0 min 0,0 UV-I 0 W/m -5,1 C -6,9 C 14,5 km/h (3 Bft)
07.02.2023 05:11 -3,4 C -4,4 C 88 % 1039,3 hPa 0,0 l/m 12,9 km/h (3 Bft) NO 45 0 min 0,0 UV-I 0 W/m -5,1 C -9,6 C 17,7 km/h (3 Bft)
07.02.2023 05:12 -3,4 C -4,4 C 88 % 1039,3 hPa 0,0 l/m 9,7 km/h (2 Bft) NO 45 0 min 0,0 UV-I 0 W/m -5,1 C -6,9 C 14,5 km/h (3 Bft)
07.02.2023 05:13 -3,4 C -4,4 C 88 % 1039,3 hPa 0,0 l/m 9,7 km/h (2 Bft) NO 45 0 min 0,0 UV-I 0 W/m -5,1 C -6,9 C 12,9 km/h (3 Bft)
07.02.2023 05:14 -3,3 C -4,4 C 88 % 1039,4 hPa 0,0 l/m 9,7 km/h (2 Bft) NO 45 0 min 0,0 UV-I 0 W/m -5,0 C -6,8 C 16,1 km/h (3 Bft)
07.02.2023 05:15 -3,3 C -4,4 C 88 % 1039,3 hPa 0,0 l/m 9,7 km/h (2 Bft) NO 45 0 min 0,0 UV-I 0 W/m -5,0 C -6,8 C 16,1 km/h (3 Bft)
07.02.2023 05:16 -3,3 C -4,4 C 88 % 1039,4 hPa 0,0 l/m 8,0 km/h (2 Bft) O-NO 67 0 min 0,0 UV-I 0 W/m -5,0 C -5,1 C 12,9 km/h (3 Bft)
07.02.2023 05:17 -3,3 C -4,4 C 88 % 1039,3 hPa 0,0 l/m 8,0 km/h (2 Bft) NO 45 0 min 0,0 UV-I 0 W/m -5,0 C -5,1 C 9,7 km/h (2 Bft)
07.02.2023 05:18 -3,3 C -5,0 C 88 % 1039,3 hPa 0,0 l/m 9,7 km/h (2 Bft) O-NO 67 0 min 0,0 UV-I 0 W/m -5,0 C -6,8 C 14,5 km/h (3 Bft)
07.02.2023 05:19 -3,4 C -4,4 C 88 % 1039,4 hPa 0,0 l/m 9,7 km/h (2 Bft) O-NO 67 0 min 0,0 UV-I 0 W/m -5,1 C -6,9 C 12,9 km/h (3 Bft)
07.02.2023 05:20 -3,3 C -4,4 C 88 % 1039,4 hPa 0,0 l/m 6,4 km/h (2 Bft) NO 45 0 min 0,0 UV-I 0 W/m -5,0 C -3,2 C 14,5 km/h (3 Bft)
07.02.2023 05:21 -3,3 C -5,0 C 88 % 1039,5 hPa 0,0 l/m 8,0 km/h (2 Bft) O-NO 67 0 min 0,0 UV-I 0 W/m -5,0 C -5,1 C 12,9 km/h (3 Bft)
07.02.2023 05:22 -3,4 C -4,4 C 88 % 1039,4 hPa 0,0 l/m 8,0 km/h (2 Bft) O-NO 67 0 min 0,0 UV-I 0 W/m -5,1 C -5,2 C 14,5 km/h (3 Bft)
07.02.2023 05:23 -3,4 C -5,0 C 88 % 1039,3 hPa 0,0 l/m 9,7 km/h (2 Bft) O-NO 67 0 min 0,0 UV-I 0 W/m -5,1 C -6,9 C 14,5 km/h (3 Bft)
07.02.2023 05:24 -3,4 C -4,4 C 88 % 1039,4 hPa 0,0 l/m 6,4 km/h (2 Bft) O-NO 67 0 min 0,0 UV-I 0 W/m -5,1 C -3,3 C 8,0 km/h (2 Bft)
07.02.2023 05:25 -3,4 C -5,0 C 88 % 1039,4 hPa 0,0 l/m 8,0 km/h (2 Bft) NO 45 0 min 0,0 UV-I 0 W/m -5,1 C -5,2 C 9,7 km/h (2 Bft)
07.02.2023 05:26 -3,4 C -5,0 C 88 % 1039,4 hPa 0,0 l/m 9,7 km/h (2 Bft) NO 45 0 min 0,0 UV-I 0 W/m -5,1 C -6,9 C 14,5 km/h (3 Bft)
07.02.2023 05:27 -3,4 C -5,0 C 88 % 1039,3 hPa 0,0 l/m 8,0 km/h (2 Bft) O-NO 67 0 min 0,0 UV-I 0 W/m -5,1 C -5,2 C 9,7 km/h (2 Bft)
07.02.2023 05:28 -3,4 C -5,0 C 88 % 1039,3 hPa 0,0 l/m 6,4 km/h (2 Bft) NO 45 0 min 0,0 UV-I 0 W/m -5,1 C -3,3 C 9,7 km/h (2 Bft)
07.02.2023 05:29 -3,4 C -5,0 C 88 % 1039,5 hPa 0,0 l/m 8,0 km/h (2 Bft) NO 45 0 min 0,0 UV-I 0 W/m -5,1 C -5,2 C 9,7 km/h (2 Bft)
07.02.2023 05:30 -3,4 C -5,0 C 88 % 1039,4 hPa 0,0 l/m 11,3 km/h (2 Bft) NO 45 0 min 0,0 UV-I 0 W/m -5,1 C -8,3 C 14,5 km/h (3 Bft)
07.02.2023 05:31 -3,4 C -5,0 C 88 % 1039,3 hPa 0,0 l/m 8,0 km/h (2 Bft) O-NO 67 0 min 0,0 UV-I 0 W/m -5,1 C -5,2 C 9,7 km/h (2 Bft)
07.02.2023 05:32 -3,4 C -5,0 C 88 % 1039,3 hPa 0,0 l/m 6,4 km/h (2 Bft) NO 45 0 min 0,0 UV-I 0 W/m -5,1 C -3,3 C 11,3 km/h (2 Bft)
07.02.2023 05:33 -3,4 C -5,0 C 88 % 1039,2 hPa 0,0 l/m 8,0 km/h (2 Bft) NO 45 0 min 0,0 UV-I 0 W/m -5,1 C -5,2 C 14,5 km/h (3 Bft)
07.02.2023 05:34 -3,4 C -5,0 C 88 % 1039,2 hPa 0,0 l/m 9,7 km/h (2 Bft) NO 45 0 min 0,0 UV-I 0 W/m -5,1 C -6,9 C 14,5 km/h (3 Bft)
07.02.2023 05:35 -3,4 C -5,0 C 88 % 1039,3 hPa 0,0 l/m 8,0 km/h (2 Bft) NO 45 0 min 0,0 UV-I 0 W/m -5,1 C -5,2 C 11,3 km/h (2 Bft)
07.02.2023 05:36 -3,4 C -5,0 C 88 % 1039,3 hPa 0,0 l/m 9,7 km/h (2 Bft) NO 45 0 min 0,0 UV-I 0 W/m -5,1 C -6,9 C 12,9 km/h (3 Bft)
07.02.2023 05:37 -3,4 C -5,0 C 88 % 1039,4 hPa 0,0 l/m 9,7 km/h (2 Bft) NO 45 0 min 0,0 UV-I 0 W/m -5,1 C -6,9 C 12,9 km/h (3 Bft)
07.02.2023 05:38 -3,5 C -5,0 C 88 % 1039,3 hPa 0,0 l/m 8,0 km/h (2 Bft) NO 45 0 min 0,0 UV-I 0 W/m -5,2 C -5,3 C 9,7 km/h (2 Bft)
07.02.2023 05:39 -3,5 C -5,0 C 88 % 1039,3 hPa 0,0 l/m 8,0 km/h (2 Bft) NO 45 0 min 0,0 UV-I 0 W/m -5,2 C -5,3 C 11,3 km/h (2 Bft)
07.02.2023 05:40 -3,6 C -5,0 C 88 % 1039,3 hPa 0,0 l/m 8,0 km/h (2 Bft) NO 45 0 min 0,0 UV-I 0 W/m -5,3 C -5,4 C 9,7 km/h (2 Bft)
07.02.2023 05:41 -3,6 C -5,0 C 88 % 1039,4 hPa 0,0 l/m 8,0 km/h (2 Bft) NO 45 0 min 0,0 UV-I 0 W/m -5,3 C -5,4 C 9,7 km/h (2 Bft)
07.02.2023 05:42 -3,6 C -5,0 C 88 % 1039,4 hPa 0,0 l/m 6,4 km/h (2 Bft) N-NO 22 0 min 0,0 UV-I 0 W/m -5,3 C -3,5 C 9,7 km/h (2 Bft)
07.02.2023 05:43 -3,6 C -5,0 C 88 % 1039,3 hPa 0,0 l/m 8,0 km/h (2 Bft) NO 45 0 min 0,0 UV-I 0 W/m -5,3 C -5,4 C 11,3 km/h (2 Bft)
07.02.2023 05:44 -3,6 C -5,0 C 88 % 1039,3 hPa 0,0 l/m 8,0 km/h (2 Bft) NO 45 0 min 0,0 UV-I 0 W/m -5,3 C -5,4 C 9,7 km/h (2 Bft)
07.02.2023 05:45 -3,6 C -5,0 C 88 % 1039,4 hPa 0,0 l/m 9,7 km/h (2 Bft) NO 45 0 min 0,0 UV-I 0 W/m -5,3 C -7,1 C 12,9 km/h (3 Bft)
07.02.2023 05:46 -3,7 C -5,0 C 88 % 1039,3 hPa 0,0 l/m 8,0 km/h (2 Bft) NO 45 0 min 0,0 UV-I 0 W/m -5,4 C -5,5 C 11,3 km/h (2 Bft)
07.02.2023 05:47 -3,7 C -5,0 C 88 % 1039,3 hPa 0,0 l/m 11,3 km/h (2 Bft) NO 45 0 min 0,0 UV-I 0 W/m -5,4 C -8,7 C 14,5 km/h (3 Bft)
07.02.2023 05:48 -3,7 C -5,0 C 88 % 1039,3 hPa 0,0 l/m 8,0 km/h (2 Bft) NO 45 0 min 0,0 UV-I 0 W/m -5,4 C -5,5 C 12,9 km/h (3 Bft)
07.02.2023 05:49 -3,7 C -5,0 C 88 % 1039,2 hPa 0,0 l/m 8,0 km/h (2 Bft) N-NO 22 0 min 0,0 UV-I 0 W/m -5,4 C -5,5 C 9,7 km/h (2 Bft)
07.02.2023 05:50 -3,7 C -5,0 C 88 % 1039,3 hPa 0,0 l/m 9,7 km/h (2 Bft) NO 45 0 min 0,0 UV-I 0 W/m -5,4 C -7,3 C 14,5 km/h (3 Bft)
07.02.2023 05:51 -3,7 C -5,0 C 88 % 1039,3 hPa 0,0 l/m 8,0 km/h (2 Bft) NO 45 0 min 0,0 UV-I 0 W/m -5,4 C -5,5 C 9,7 km/h (2 Bft)
07.02.2023 05:52 -3,7 C -5,0 C 88 % 1039,4 hPa 0,0 l/m 8,0 km/h (2 Bft) NO 45 0 min 0,0 UV-I 0 W/m -5,4 C -5,5 C 11,3 km/h (2 Bft)
07.02.2023 05:53 -3,7 C -5,0 C 88 % 1039,3 hPa 0,0 l/m 8,0 km/h (2 Bft) NO 45 0 min 0,0 UV-I 0 W/m -5,4 C -5,5 C 9,7 km/h (2 Bft)
07.02.2023 05:54 -3,7 C -5,0 C 88 % 1039,4 hPa 0,0 l/m 6,4 km/h (2 Bft) NO 45 0 min 0,0 UV-I 0 W/m -5,4 C -3,6 C 9,7 km/h (2 Bft)
07.02.2023 05:55 -3,7 C -5,0 C 88 % 1039,4 hPa 0,0 l/m 6,4 km/h (2 Bft) NO 45 0 min 0,0 UV-I 0 W/m -5,4 C -3,6 C 9,7 km/h (2 Bft)
07.02.2023 05:56 -3,8 C -5,0 C 88 % 1039,5 hPa 0,0 l/m 6,4 km/h (2 Bft) NO 45 0 min 0,0 UV-I 0 W/m -5,5 C -3,7 C 8,0 km/h (2 Bft)
07.02.2023 05:57 -3,8 C -5,0 C 88 % 1039,5 hPa 0,0 l/m 6,4 km/h (2 Bft) NO 45 0 min 0,0 UV-I 0 W/m -5,5 C -3,7 C 8,0 km/h (2 Bft)
07.02.2023 05:58 -3,8 C -5,0 C 88 % 1039,4 hPa 0,0 l/m 6,4 km/h (2 Bft) NO 45 0 min 0,0 UV-I 0 W/m -5,5 C -3,7 C 8,0 km/h (2 Bft)
07.02.2023 05:59 -3,8 C -5,0 C 88 % 1039,4 hPa 0,0 l/m 6,4 km/h (2 Bft) NO 45 0 min 0,0 UV-I 0 W/m -5,5 C -3,7 C 8,0 km/h (2 Bft)
07.02.2023 06:00 -3,9 C -5,0 C 88 % 1039,4 hPa 0,0 l/m 8,0 km/h (2 Bft) NO 45 0 min 0,0 UV-I 0 W/m -5,6 C -5,7 C 9,7 km/h (2 Bft)
07.02.2023 06:01 -3,9 C -5,0 C 88 % 1039,4 hPa 0,0 l/m 6,4 km/h (2 Bft) NO 45 0 min 0,0 UV-I 0 W/m -5,6 C -3,8 C 9,7 km/h (2 Bft)
07.02.2023 06:02 -3,9 C -5,6 C 88 % 1039,4 hPa 0,0 l/m 3,2 km/h (1 Bft) NO 45 0 min 0,0 UV-I 0 W/m -5,6 C -3,9 C 4,8 km/h (1 Bft)
07.02.2023 06:03 -3,9 C -5,6 C 88 % 1039,5 hPa 0,0 l/m 3,2 km/h (1 Bft) NO 45 0 min 0,0 UV-I 0 W/m -5,6 C -3,9 C 6,4 km/h (2 Bft)
07.02.2023 06:04 -3,9 C -5,6 C 88 % 1039,5 hPa 0,0 l/m 3,2 km/h (1 Bft) NO 45 0 min 0,0 UV-I 0 W/m -5,6 C -3,9 C 3,2 km/h (1 Bft)
07.02.2023 06:05 -3,9 C -5,6 C 88 % 1039,5 hPa 0,0 l/m 3,2 km/h (1 Bft) NO 45 0 min 0,0 UV-I 0 W/m -5,6 C -3,9 C 6,4 km/h (2 Bft)
07.02.2023 06:06 -3,9 C -5,6 C 88 % 1039,4 hPa 0,0 l/m 4,8 km/h (1 Bft) NO 45 0 min 0,0 UV-I 0 W/m -5,6 C -3,9 C 8,0 km/h (2 Bft)
07.02.2023 06:07 -3,9 C -5,6 C 88 % 1039,5 hPa 0,0 l/m 4,8 km/h (1 Bft) NO 45 0 min 0,0 UV-I 0 W/m -5,6 C -3,9 C 6,4 km/h (2 Bft)
07.02.2023 06:08 -3,9 C -5,6 C 88 % 1039,5 hPa 0,0 l/m 3,2 km/h (1 Bft) NO 45 0 min 0,0 UV-I 0 W/m -5,6 C -3,9 C 6,4 km/h (2 Bft)
07.02.2023 06:09 -3,9 C -5,6 C 89 % 1039,3 hPa 0,0 l/m 4,8 km/h (1 Bft) NO 45 0 min 0,0 UV-I 0 W/m -5,4 C -3,9 C 6,4 km/h (2 Bft)
07.02.2023 06:10 -3,8 C -5,0 C 89 % 1039,5 hPa 0,0 l/m 6,4 km/h (2 Bft) NO 45 0 min 0,0 UV-I 0 W/m -5,3 C -3,7 C 9,7 km/h (2 Bft)
07.02.2023 06:11 -3,8 C -5,0 C 89 % 1039,5 hPa 0,0 l/m 6,4 km/h (2 Bft) NO 45 0 min 0,0 UV-I 0 W/m -5,3 C -3,7 C 8,0 km/h (2 Bft)
07.02.2023 06:12 -3,8 C -5,6 C 89 % 1039,6 hPa 0,0 l/m 6,4 km/h (2 Bft) NO 45 0 min 0,0 UV-I 0 W/m -5,3 C -3,7 C 9,7 km/h (2 Bft)
07.02.2023 06:13 -3,8 C -5,0 C 88 % 1039,6 hPa 0,0 l/m 6,4 km/h (2 Bft) NO 45 0 min 0,0 UV-I 0 W/m -5,5 C -3,7 C 9,7 km/h (2 Bft)
07.02.2023 06:14 -3,8 C -5,6 C 89 % 1039,5 hPa 0,0 l/m 4,8 km/h (1 Bft) O-NO 67 0 min 0,0 UV-I 0 W/m -5,3 C -3,8 C 8,0 km/h (2 Bft)
07.02.2023 06:15 -3,8 C -5,6 C 89 % 1039,5 hPa 0,0 l/m 3,2 km/h (1 Bft) O-NO 67 0 min 0,0 UV-I 0 W/m -5,3 C -3,8 C 6,4 km/h (2 Bft)
07.02.2023 06:16 -3,8 C -5,6 C 89 % 1039,5 hPa 0,0 l/m 3,2 km/h (1 Bft) O-NO 67 0 min 0,0 UV-I 0 W/m -5,3 C -3,8 C 6,4 km/h (2 Bft)
07.02.2023 06:17 -3,8 C -5,6 C 88 % 1039,5 hPa 0,0 l/m 4,8 km/h (1 Bft) O-NO 67 0 min 0,0 UV-I 0 W/m -5,5 C -3,8 C 6,4 km/h (2 Bft)
07.02.2023 06:18 -3,8 C -5,6 C 88 % 1039,4 hPa 0,0 l/m 3,2 km/h (1 Bft) O-NO 67 0 min 0,0 UV-I 0 W/m -5,5 C -3,8 C 4,8 km/h (1 Bft)
07.02.2023 06:19 -3,8 C -5,6 C 89 % 1039,4 hPa 0,0 l/m 3,2 km/h (1 Bft) O-NO 67 0 min 0,0 UV-I 0 W/m -5,3 C -3,8 C 6,4 km/h (2 Bft)
07.02.2023 06:20 -3,8 C -5,6 C 88 % 1039,5 hPa 0,0 l/m 1,6 km/h (1 Bft) O-NO 67 0 min 0,0 UV-I 0 W/m -5,5 C -3,8 C 3,2 km/h (1 Bft)
07.02.2023 06:21 -3,9 C -5,6 C 88 % 1039,4 hPa 0,0 l/m 4,8 km/h (1 Bft) O-NO 67 0 min 0,0 UV-I 0 W/m -5,6 C -3,9 C 8,0 km/h (2 Bft)
07.02.2023 06:22 -3,9 C -6,1 C 88 % 1039,5 hPa 0,0 l/m 6,4 km/h (2 Bft) NO 45 0 min 0,0 UV-I 0 W/m -5,6 C -3,8 C 9,7 km/h (2 Bft)
07.02.2023 06:23 -3,9 C -5,6 C 89 % 1039,3 hPa 0,0 l/m 4,8 km/h (1 Bft) NO 45 0 min 0,0 UV-I 0 W/m -5,4 C -3,9 C 8,0 km/h (2 Bft)
07.02.2023 06:24 -3,9 C -5,6 C 89 % 1039,4 hPa 0,0 l/m 6,4 km/h (2 Bft) NO 45 0 min 0,0 UV-I 0 W/m -5,4 C -3,8 C 8,0 km/h (2 Bft)
07.02.2023 06:25 -3,9 C -5,6 C 89 % 1039,4 hPa 0,0 l/m 6,4 km/h (2 Bft) O-NO 67 0 min 0,0 UV-I 0 W/m -5,4 C -3,8 C 9,7 km/h (2 Bft)
07.02.2023 06:26 -3,8 C -5,6 C 89 % 1039,4 hPa 0,0 l/m 6,4 km/h (2 Bft) NO 45 0 min 0,0 UV-I 0 W/m -5,3 C -3,7 C 9,7 km/h (2 Bft)
07.02.2023 06:27 -3,8 C -5,6 C 89 % 1039,4 hPa 0,0 l/m 6,4 km/h (2 Bft) NO 45 0 min 0,0 UV-I 0 W/m -5,3 C -3,7 C 11,3 km/h (2 Bft)
07.02.2023 06:28 -3,8 C -5,6 C 89 % 1039,3 hPa 0,0 l/m 6,4 km/h (2 Bft) NO 45 0 min 0,0 UV-I 0 W/m -5,3 C -3,7 C 9,7 km/h (2 Bft)
07.02.2023 06:29 -3,8 C -5,6 C 89 % 1039,4 hPa 0,0 l/m 6,4 km/h (2 Bft) NO 45 0 min 0,0 UV-I 0 W/m -5,3 C -3,7 C 8,0 km/h (2 Bft)
07.02.2023 06:30 -3,8 C -5,6 C 89 % 1039,3 hPa 0,0 l/m 4,8 km/h (1 Bft) O-NO 67 0 min 0,0 UV-I 0 W/m -5,3 C -3,8 C 8,0 km/h (2 Bft)
07.02.2023 06:31 -3,8 C -5,6 C 89 % 1039,2 hPa 0,0 l/m 4,8 km/h (1 Bft) O-NO 67 0 min 0,0 UV-I 0 W/m -5,3 C -3,8 C 9,7 km/h (2 Bft)
07.02.2023 06:32 -3,8 C -5,6 C 89 % 1039,2 hPa 0,0 l/m 4,8 km/h (1 Bft) NO 45 0 min 0,0 UV-I 0 W/m -5,3 C -3,8 C 9,7 km/h (2 Bft)
07.02.2023 06:33 -3,8 C -5,6 C 89 % 1039,3 hPa 0,0 l/m 6,4 km/h (2 Bft) NO 45 0 min 0,0 UV-I 0 W/m -5,3 C -3,7 C 9,7 km/h (2 Bft)
07.02.2023 06:34 -3,8 C -5,0 C 89 % 1039,3 hPa 0,0 l/m 4,8 km/h (1 Bft) O-NO 67 0 min 0,0 UV-I 0 W/m -5,3 C -3,8 C 8,0 km/h (2 Bft)
07.02.2023 06:35 -3,8 C -5,0 C 89 % 1039,3 hPa 0,0 l/m 8,0 km/h (2 Bft) O-NO 67 0 min 0,0 UV-I 0 W/m -5,3 C -5,6 C 14,5 km/h (3 Bft)
07.02.2023 06:36 -3,7 C -5,0 C 89 % 1039,3 hPa 0,0 l/m 8,0 km/h (2 Bft) O-NO 67 0 min 0,0 UV-I 0 W/m -5,2 C -5,5 C 9,7 km/h (2 Bft)
07.02.2023 06:37 -3,8 C -5,0 C 89 % 1039,4 hPa 0,0 l/m 8,0 km/h (2 Bft) NO 45 0 min 0,0 UV-I 0 W/m -5,3 C -5,6 C 12,9 km/h (3 Bft)
07.02.2023 06:38 -3,8 C -5,0 C 89 % 1039,3 hPa 0,0 l/m 4,8 km/h (1 Bft) NO 45 0 min 0,0 UV-I 0 W/m -5,3 C -3,8 C 8,0 km/h (2 Bft)
07.02.2023 06:39 -3,8 C -5,6 C 89 % 1039,4 hPa 0,0 l/m 6,4 km/h (2 Bft) NO 45 0 min 0,0 UV-I 0 W/m -5,3 C -3,7 C 9,7 km/h (2 Bft)
07.02.2023 06:40 -3,8 C -5,6 C 89 % 1039,3 hPa 0,0 l/m 4,8 km/h (1 Bft) NO 45 0 min 0,0 UV-I 0 W/m -5,3 C -3,8 C 6,4 km/h (2 Bft)
07.02.2023 06:41 -3,8 C -5,6 C 89 % 1039,4 hPa 0,0 l/m 4,8 km/h (1 Bft) NO 45 0 min 0,0 UV-I 0 W/m -5,3 C -3,8 C 6,4 km/h (2 Bft)
07.02.2023 06:42 -3,8 C -5,6 C 89 % 1039,4 hPa 0,0 l/m 4,8 km/h (1 Bft) NO 45 0 min 0,0 UV-I 0 W/m -5,3 C -3,8 C 8,0 km/h (2 Bft)
07.02.2023 06:43 -3,8 C -5,6 C 89 % 1039,4 hPa 0,0 l/m 6,4 km/h (2 Bft) O-NO 67 0 min 0,0 UV-I 0 W/m -5,3 C -3,7 C 8,0 km/h (2 Bft)
07.02.2023 06:44 -3,9 C -5,6 C 89 % 1039,4 hPa 0,0 l/m 6,4 km/h (2 Bft) O-NO 67 0 min 0,0 UV-I 0 W/m -5,4 C -3,8 C 8,0 km/h (2 Bft)
07.02.2023 06:45 -3,9 C -5,6 C 89 % 1039,5 hPa 0,0 l/m 4,8 km/h (1 Bft) O-NO 67 0 min 0,0 UV-I 0 W/m -5,4 C -3,9 C 6,4 km/h (2 Bft)
07.02.2023 06:46 -3,9 C -5,6 C 88 % 1039,5 hPa 0,0 l/m 4,8 km/h (1 Bft) O-NO 67 0 min 0,0 UV-I 0 W/m -5,6 C -3,9 C 6,4 km/h (2 Bft)
07.02.2023 06:47 -3,9 C -5,6 C 89 % 1039,5 hPa 0,0 l/m 4,8 km/h (1 Bft) NO 45 0 min 0,0 UV-I 0 W/m -5,4 C -3,9 C 6,4 km/h (2 Bft)
07.02.2023 06:48 -3,9 C -5,6 C 89 % 1039,6 hPa 0,0 l/m 4,8 km/h (1 Bft) NO 45 0 min 0,0 UV-I 0 W/m -5,4 C -3,9 C 8,0 km/h (2 Bft)
07.02.2023 06:49 -4,0 C -5,6 C 88 % 1039,5 hPa 0,0 l/m 6,4 km/h (2 Bft) NO 45 0 min 0,0 UV-I 0 W/m -5,7 C -3,9 C 9,7 km/h (2 Bft)
07.02.2023 06:50 -4,0 C -5,6 C 89 % 1039,5 hPa 0,0 l/m 4,8 km/h (1 Bft) NO 45 0 min 0,0 UV-I 0 W/m -5,5 C -4,0 C 9,7 km/h (2 Bft)
07.02.2023 06:51 -4,0 C -5,6 C 89 % 1039,5 hPa 0,0 l/m 6,4 km/h (2 Bft) NO 45 0 min 0,0 UV-I 0 W/m -5,5 C -3,9 C 8,0 km/h (2 Bft)
07.02.2023 06:52 -4,0 C -5,6 C 89 % 1039,5 hPa 0,0 l/m 6,4 km/h (2 Bft) NO 45 0 min 0,0 UV-I 0 W/m -5,5 C -3,9 C 9,7 km/h (2 Bft)
07.02.2023 06:53 -4,1 C -5,6 C 89 % 1039,6 hPa 0,0 l/m 6,4 km/h (2 Bft) NO 45 0 min 0,0 UV-I 0 W/m -5,6 C -4,0 C 11,3 km/h (2 Bft)
07.02.2023 06:54 -4,0 C -5,6 C 89 % 1039,5 hPa 0,0 l/m 4,8 km/h (1 Bft) NO 45 0 min 0,0 UV-I 0 W/m -5,5 C -4,0 C 9,7 km/h (2 Bft)
07.02.2023 06:55 -4,0 C -5,6 C 89 % 1039,6 hPa 0,0 l/m 4,8 km/h (1 Bft) NO 45 0 min 0,0 UV-I 0 W/m -5,5 C -4,0 C 9,7 km/h (2 Bft)
07.02.2023 06:56 -4,0 C -5,6 C 89 % 1039,6 hPa 0,0 l/m 6,4 km/h (2 Bft) NO 45 0 min 0,0 UV-I 0 W/m -5,5 C -3,9 C 8,0 km/h (2 Bft)
07.02.2023 06:57 -4,1 C -5,6 C 89 % 1039,6 hPa 0,0 l/m 3,2 km/h (1 Bft) NO 45 0 min 0,0 UV-I 0 W/m -5,6 C -4,1 C 6,4 km/h (2 Bft)
07.02.2023 06:58 -4,1 C -5,6 C 89 % 1039,6 hPa 0,0 l/m 4,8 km/h (1 Bft) NO 45 0 min 0,0 UV-I 0 W/m -5,6 C -4,1 C 8,0 km/h (2 Bft)
07.02.2023 06:59 -4,1 C -5,6 C 89 % 1039,6 hPa 0,0 l/m 4,8 km/h (1 Bft) NO 45 0 min 0,0 UV-I 0 W/m -5,6 C -4,1 C 8,0 km/h (2 Bft)
07.02.2023 07:00 -4,1 C -5,6 C 89 % 1039,7 hPa 0,0 l/m 3,2 km/h (1 Bft) NO 45 0 min 0,0 UV-I 0 W/m -5,6 C -4,1 C 4,8 km/h (1 Bft)
07.02.2023 07:01 -4,1 C -5,6 C 89 % 1039,7 hPa 0,0 l/m 4,8 km/h (1 Bft) NO 45 0 min 0,0 UV-I 0 W/m -5,6 C -4,1 C 8,0 km/h (2 Bft)
07.02.2023 07:02 -4,0 C -5,6 C 89 % 1039,6 hPa 0,0 l/m 6,4 km/h (2 Bft) N-NO 22 0 min 0,0 UV-I 0 W/m -5,5 C -3,9 C 8,0 km/h (2 Bft)
07.02.2023 07:03 -4,0 C -5,6 C 89 % 1039,5 hPa 0,0 l/m 3,2 km/h (1 Bft) NO 45 0 min 0,0 UV-I 0 W/m -5,5 C -4,0 C 4,8 km/h (1 Bft)
07.02.2023 07:04 -4,1 C -5,6 C 89 % 1039,7 hPa 0,0 l/m 1,6 km/h (1 Bft) NO 45 0 min 0,0 UV-I 0 W/m -5,6 C -4,1 C 4,8 km/h (1 Bft)
07.02.2023 07:05 -4,1 C -6,1 C 89 % 1039,7 hPa 0,0 l/m 3,2 km/h (1 Bft) NO 45 0 min 0,0 UV-I 0 W/m -5,6 C -4,1 C 4,8 km/h (1 Bft)
07.02.2023 07:06 -4,1 C -6,1 C 89 % 1039,7 hPa 0,0 l/m 0,0 km/h (0 Bft) NO 45 0 min 0,0 UV-I 0 W/m -5,6 C -4,1 C 1,6 km/h (1 Bft)
07.02.2023 07:07 -4,2 C -6,1 C 88 % 1039,7 hPa 0,0 l/m 0,0 km/h (0 Bft) NO 45 0 min 0,0 UV-I 0 W/m -5,9 C -4,2 C 1,6 km/h (1 Bft)
07.02.2023 07:08 -4,3 C -6,1 C 88 % 1039,5 hPa 0,0 l/m 1,6 km/h (1 Bft) NO 45 0 min 0,0 UV-I 0 W/m -6,0 C -4,3 C 3,2 km/h (1 Bft)
07.02.2023 07:09 -4,3 C -6,1 C 88 % 1039,5 hPa 0,0 l/m 0,0 km/h (0 Bft) NO 45 0 min 0,0 UV-I 0 W/m -6,0 C -4,3 C 1,6 km/h (1 Bft)
07.02.2023 07:10 -4,3 C -6,7 C 89 % 1039,6 hPa 0,0 l/m 0,0 km/h (0 Bft) NO 45 0 min 0,0 UV-I 0 W/m -5,8 C -4,3 C 1,6 km/h (1 Bft)
07.02.2023 07:11 -4,4 C -6,7 C 89 % 1039,7 hPa 0,0 l/m 0,0 km/h (0 Bft) N 0 0 min 0,0 UV-I 0 W/m -5,9 C -4,4 C 0,0 km/h (0 Bft)
07.02.2023 07:12 -4,4 C -6,7 C 89 % 1039,6 hPa 0,0 l/m 0,0 km/h (0 Bft) NO 45 0 min 0,0 UV-I 0 W/m -5,9 C -4,4 C 1,6 km/h (1 Bft)
07.02.2023 07:13 -4,5 C -6,7 C 89 % 1039,7 hPa 0,0 l/m 1,6 km/h (1 Bft) NO 45 0 min 0,0 UV-I 0 W/m -6,0 C -4,5 C 3,2 km/h (1 Bft)
07.02.2023 07:14 -4,6 C -6,7 C 89 % 1039,7 hPa 0,0 l/m 1,6 km/h (1 Bft) N-NO 22 0 min 0,0 UV-I 0 W/m -6,1 C -4,6 C 4,8 km/h (1 Bft)
07.02.2023 07:15 -4,5 C -6,7 C 89 % 1039,7 hPa 0,0 l/m 1,6 km/h (1 Bft) N-NO 22 0 min 0,0 UV-I 0 W/m -6,0 C -4,5 C 3,2 km/h (1 Bft)
07.02.2023 07:16 -4,5 C -6,7 C 89 % 1039,7 hPa 0,0 l/m 1,6 km/h (1 Bft) N-NO 22 0 min 0,0 UV-I 0 W/m -6,0 C -4,5 C 3,2 km/h (1 Bft)
07.02.2023 07:17 -4,6 C -6,7 C 89 % 1039,7 hPa 0,0 l/m 1,6 km/h (1 Bft) N-NO 22 0 min 0,0 UV-I 0 W/m -6,1 C -4,6 C 3,2 km/h (1 Bft)
07.02.2023 07:18 -4,6 C -6,7 C 89 % 1039,6 hPa 0,0 l/m 1,6 km/h (1 Bft) N-NO 22 0 min 0,0 UV-I 0 W/m -6,1 C -4,6 C 3,2 km/h (1 Bft)
07.02.2023 07:19 -4,5 C -6,7 C 89 % 1039,7 hPa 0,0 l/m 3,2 km/h (1 Bft) N-NO 22 0 min 0,0 UV-I 0 W/m -6,0 C -4,5 C 3,2 km/h (1 Bft)
07.02.2023 07:20 -4,6 C -6,7 C 89 % 1039,7 hPa 0,0 l/m 1,6 km/h (1 Bft) N-NO 22 0 min 0,0 UV-I 0 W/m -6,1 C -4,6 C 1,6 km/h (1 Bft)
07.02.2023 07:21 -4,6 C -6,7 C 89 % 1039,7 hPa 0,0 l/m 1,6 km/h (1 Bft) N-NO 22 0 min 0,0 UV-I 0 W/m -6,1 C -4,6 C 3,2 km/h (1 Bft)
07.02.2023 07:22 -4,6 C -6,7 C 89 % 1039,7 hPa 0,0 l/m 1,6 km/h (1 Bft) N-NO 22 0 min 0,0 UV-I 0 W/m -6,1 C -4,6 C 4,8 km/h (1 Bft)
07.02.2023 07:23 -4,5 C -6,7 C 89 % 1039,6 hPa 0,0 l/m 3,2 km/h (1 Bft) N-NW 337 0 min 0,0 UV-I 0 W/m -6,0 C -4,5 C 4,8 km/h (1 Bft)
07.02.2023 07:24 -4,4 C -6,7 C 89 % 1039,7 hPa 0,0 l/m 1,6 km/h (1 Bft) N-NW 337 0 min 0,0 UV-I 0 W/m -5,9 C -4,4 C 3,2 km/h (1 Bft)
07.02.2023 07:25 -4,4 C -6,7 C 89 % 1039,7 hPa 0,0 l/m 1,6 km/h (1 Bft) N-NW 337 0 min 0,0 UV-I 0 W/m -5,9 C -4,4 C 3,2 km/h (1 Bft)
07.02.2023 07:26 -4,4 C -6,7 C 89 % 1039,8 hPa 0,0 l/m 1,6 km/h (1 Bft) N-NW 337 0 min 0,0 UV-I 0 W/m -5,9 C -4,4 C 3,2 km/h (1 Bft)
07.02.2023 07:27 -4,4 C -6,7 C 89 % 1039,7 hPa 0,0 l/m 3,2 km/h (1 Bft) N-NW 337 0 min 0,0 UV-I 0 W/m -5,9 C -4,4 C 4,8 km/h (1 Bft)
07.02.2023 07:28 -4,4 C -6,7 C 89 % 1039,8 hPa 0,0 l/m 3,2 km/h (1 Bft) N-NW 337 0 min 0,0 UV-I 0 W/m -5,9 C -4,4 C 4,8 km/h (1 Bft)
07.02.2023 07:29 -4,4 C -6,7 C 89 % 1039,8 hPa 0,0 l/m 3,2 km/h (1 Bft) N 360 0 min 0,0 UV-I 0 W/m -5,9 C -4,4 C 6,4 km/h (2 Bft)
07.02.2023 07:30 -4,4 C -6,7 C 89 % 1039,8 hPa 0,0 l/m 3,2 km/h (1 Bft) N 360 0 min 0,0 UV-I 0 W/m -5,9 C -4,4 C 4,8 km/h (1 Bft)
07.02.2023 07:31 -4,4 C -6,7 C 89 % 1039,8 hPa 0,0 l/m 3,2 km/h (1 Bft) N 360 0 min 0,0 UV-I 0 W/m -5,9 C -4,4 C 4,8 km/h (1 Bft)
07.02.2023 07:32 -4,4 C -6,7 C 89 % 1039,7 hPa 0,0 l/m 3,2 km/h (1 Bft) N 360 0 min 0,0 UV-I 0 W/m -5,9 C -4,4 C 4,8 km/h (1 Bft)
07.02.2023 07:33 -4,4 C -6,7 C 90 % 1039,7 hPa 0,0 l/m 3,2 km/h (1 Bft) N 360 0 min 0,0 UV-I 0 W/m -5,8 C -4,4 C 4,8 km/h (1 Bft)
07.02.2023 07:34 -4,4 C -6,7 C 89 % 1039,7 hPa 0,0 l/m 3,2 km/h (1 Bft) N 360 0 min 0,0 UV-I 0 W/m -5,9 C -4,4 C 4,8 km/h (1 Bft)
07.02.2023 07:35 -4,3 C -6,7 C 89 % 1039,8 hPa 0,0 l/m 4,8 km/h (1 Bft) N 360 0 min 0,0 UV-I 0 W/m -5,8 C -4,3 C 4,8 km/h (1 Bft)
07.02.2023 07:36 -4,3 C -6,7 C 90 % 1039,8 hPa 0,0 l/m 3,2 km/h (1 Bft) N 360 0 min 0,0 UV-I 0 W/m -5,7 C -4,3 C 4,8 km/h (1 Bft)
07.02.2023 07:37 -4,3 C -6,7 C 89 % 1039,9 hPa 0,0 l/m 3,2 km/h (1 Bft) N 360 0 min 0,0 UV-I 0 W/m -5,8 C -4,3 C 4,8 km/h (1 Bft)
07.02.2023 07:38 -4,3 C -6,7 C 89 % 1039,8 hPa 0,0 l/m 4,8 km/h (1 Bft) N 360 0 min 0,0 UV-I 0 W/m -5,8 C -4,3 C 4,8 km/h (1 Bft)
07.02.2023 07:39 -4,3 C -6,7 C 89 % 1039,9 hPa 0,0 l/m 4,8 km/h (1 Bft) N 360 0 min 0,0 UV-I 0 W/m -5,8 C -4,3 C 4,8 km/h (1 Bft)
07.02.2023 07:40 -4,3 C -6,7 C 90 % 1039,9 hPa 0,0 l/m 4,8 km/h (1 Bft) N 360 0 min 0,0 UV-I 0 W/m -5,7 C -4,3 C 4,8 km/h (1 Bft)
07.02.2023 07:41 -4,2 C -6,7 C 90 % 1039,9 hPa 0,0 l/m 4,8 km/h (1 Bft) N 360 0 min 0,0 UV-I 0 W/m -5,6 C -4,2 C 4,8 km/h (1 Bft)
07.02.2023 07:42 -4,2 C -6,7 C 90 % 1040,1 hPa 0,0 l/m 4,8 km/h (1 Bft) N 360 0 min 0,0 UV-I 0 W/m -5,6 C -4,2 C 6,4 km/h (2 Bft)
07.02.2023 07:43 -4,2 C -6,7 C 90 % 1040,1 hPa 0,0 l/m 4,8 km/h (1 Bft) N 360 0 min 0,0 UV-I 0 W/m -5,6 C -4,2 C 4,8 km/h (1 Bft)
07.02.2023 07:44 -4,2 C -6,7 C 89 % 1040,2 hPa 0,0 l/m 4,8 km/h (1 Bft) N 360 0 min 0,0 UV-I 0 W/m -5,7 C -4,2 C 6,4 km/h (2 Bft)
07.02.2023 07:48 -4,2 C -6,7 C 89 % 1040,2 hPa 0,0 l/m 2,7 km/h (1 Bft) N 5 0 min 0,0 UV-I 0 W/m -5,7 C -4,2 C 4,8 km/h (1 Bft)
07.02.2023 07:51 -4,3 C -6,7 C 89 % 1040,2 hPa 0,0 l/m 2,0 km/h (1 Bft) N 5 0 min 0,0 UV-I 0 W/m -5,8 C -4,3 C 4,8 km/h (1 Bft)
07.02.2023 07:54 -4,3 C -6,7 C 89 % 1040,2 hPa 0,0 l/m 0,9 km/h (0 Bft) N 5 0 min 0,0 UV-I 0 W/m -5,8 C -4,3 C 3,2 km/h (1 Bft)
07.02.2023 07:57 -4,6 C -6,7 C 89 % 1040,2 hPa 0,0 l/m 1,4 km/h (1 Bft) N 5 0 min 0,0 UV-I 0 W/m -6,1 C -4,6 C 3,2 km/h (1 Bft)
07.02.2023 08:00 -4,6 C -6,7 C 90 % 1040,3 hPa 0,0 l/m 3,8 km/h (1 Bft) N 5 0 min 0,0 UV-I 1 W/m -6,0 C -4,6 C 4,8 km/h (1 Bft)
07.02.2023 08:03 -4,4 C -6,1 C 90 % 1040,3 hPa 0,0 l/m 5,1 km/h (1 Bft) N 5 0 min 0,0 UV-I 5 W/m -5,8 C -4,4 C 6,4 km/h (2 Bft)
07.02.2023 08:06 -4,4 C -6,1 C 90 % 1040,5 hPa 0,0 l/m 6,4 km/h (2 Bft) N 5 0 min 0,0 UV-I 5 W/m -5,8 C -4,3 C 8,0 km/h (2 Bft)
07.02.2023 08:09 -4,3 C -5,6 C 90 % 1040,5 hPa 0,0 l/m 6,0 km/h (2 Bft) N 5 0 min 0,0 UV-I 7 W/m -5,7 C -4,3 C 8,0 km/h (2 Bft)
07.02.2023 08:12 -4,3 C -5,6 C 90 % 1040,6 hPa 0,0 l/m 5,8 km/h (2 Bft) N 9 0 min 0,0 UV-I 8 W/m -5,7 C -4,3 C 8,0 km/h (2 Bft)
07.02.2023 08:15 -4,3 C -5,6 C 90 % 1040,7 hPa 0,0 l/m 5,7 km/h (1 Bft) N 360 0 min 0,0 UV-I 9 W/m -5,7 C -4,3 C 8,0 km/h (2 Bft)
07.02.2023 08:18 -4,3 C -5,6 C 90 % 1040,7 hPa 0,0 l/m 6,9 km/h (2 Bft) N 5 0 min 0,0 UV-I 11 W/m -5,7 C -4,9 C 9,7 km/h (2 Bft)
07.02.2023 08:21 -4,4 C -5,6 C 90 % 1040,7 hPa 0,0 l/m 4,6 km/h (1 Bft) N 11 0 min 0,0 UV-I 11 W/m -5,8 C -4,4 C 8,0 km/h (2 Bft)
07.02.2023 08:24 -4,6 C -6,1 C 89 % 1040,8 hPa 0,0 l/m 1,7 km/h (1 Bft) N 11 0 min 0,0 UV-I 12 W/m -6,1 C -4,6 C 3,2 km/h (1 Bft)
07.02.2023 08:27 -4,9 C -6,1 C 89 % 1040,7 hPa 0,0 l/m 3,1 km/h (1 Bft) N 11 0 min 0,0 UV-I 12 W/m -6,4 C -4,9 C 4,8 km/h (1 Bft)
07.02.2023 08:30 -5,0 C -6,1 C 89 % 1040,8 hPa 0,0 l/m 4,2 km/h (1 Bft) N-NO 15 0 min 0,0 UV-I 13 W/m -6,5 C -5,0 C 6,4 km/h (2 Bft)
07.02.2023 08:33 -5,0 C -6,1 C 89 % 1040,9 hPa 0,0 l/m 5,3 km/h (1 Bft) N-NO 17 0 min 0,0 UV-I 15 W/m -6,5 C -5,0 C 6,4 km/h (2 Bft)
07.02.2023 08:36 -4,9 C -5,0 C 90 % 1040,7 hPa 0,0 l/m 4,3 km/h (1 Bft) N-NO 17 0 min 0,0 UV-I 20 W/m -6,3 C -4,9 C 6,4 km/h (2 Bft)
07.02.2023 08:39 -4,6 C -4,4 C 90 % 1040,8 hPa 0,0 l/m 4,7 km/h (1 Bft) N-NO 13 0 min 0,0 UV-I 30 W/m -6,0 C -4,6 C 6,4 km/h (2 Bft)
07.02.2023 08:42 -4,3 C -3,3 C 90 % 1040,9 hPa 0,0 l/m 4,1 km/h (1 Bft) N 355 0 min 0,0 UV-I 34 W/m -5,7 C -4,3 C 6,4 km/h (2 Bft)
07.02.2023 08:45 -4,2 C -2,2 C 90 % 1040,9 hPa 0,0 l/m 3,5 km/h (1 Bft) N 360 0 min 0,0 UV-I 41 W/m -5,6 C -4,2 C 4,8 km/h (1 Bft)
07.02.2023 08:48 -4,1 C -1,1 C 90 % 1041,0 hPa 0,0 l/m 3,0 km/h (1 Bft) N 360 0 min 0,0 UV-I 31 W/m -5,5 C -4,1 C 4,8 km/h (1 Bft)
07.02.2023 08:51 -3,9 C -0,6 C 90 % 1041,0 hPa 0,0 l/m 3,2 km/h (1 Bft) N 355 0 min 0,0 UV-I 30 W/m -5,3 C -3,9 C 4,8 km/h (1 Bft)
07.02.2023 08:54 -3,8 C 0,0 C 90 % 1041,1 hPa 0,0 l/m 1,7 km/h (1 Bft) N 360 0 min 0,0 UV-I 59 W/m -5,2 C -3,8 C 4,8 km/h (1 Bft)
07.02.2023 08:57 -3,8 C 1,1 C 90 % 1041,1 hPa 0,0 l/m 1,4 km/h (1 Bft) N 360 0 min 0,0 UV-I 48 W/m -5,2 C -3,8 C 3,2 km/h (1 Bft)
07.02.2023 09:00 -3,8 C 1,1 C 90 % 1041,2 hPa 0,0 l/m 0,2 km/h (0 Bft) N 360 0 min 0,0 UV-I 69 W/m -5,2 C -3,8 C 1,6 km/h (1 Bft)
07.02.2023 09:03 -3,7 C 1,7 C 90 % 1041,1 hPa 0,0 l/m 3,3 km/h (1 Bft) NO 42 0 min 0,0 UV-I 68 W/m -5,1 C -3,7 C 6,4 km/h (2 Bft)
07.02.2023 09:06 -3,5 C 1,7 C 90 % 1041,2 hPa 0,0 l/m 4,0 km/h (1 Bft) O-NO 65 0 min 0,0 UV-I 71 W/m -4,9 C -3,5 C 8,0 km/h (2 Bft)
07.02.2023 09:09 -3,3 C 2,2 C 90 % 1041,2 hPa 0,0 l/m 5,3 km/h (1 Bft) O-NO 60 0 min 0,0 UV-I 51 W/m -4,7 C -3,3 C 9,7 km/h (2 Bft)
07.02.2023 09:12 -3,1 C 2,2 C 89 % 1041,2 hPa 0,0 l/m 8,5 km/h (2 Bft) NO 55 0 min 0,0 UV-I 100 W/m -4,6 C -5,4 C 16,1 km/h (3 Bft)
07.02.2023 09:15 -2,9 C 2,2 C 89 % 1041,3 hPa 0,0 l/m 6,4 km/h (2 Bft) NO 47 0 min 0,0 UV-I 70 W/m -4,5 C -2,9 C 9,7 km/h (2 Bft)
07.02.2023 09:18 -2,9 C 1,1 C 89 % 1041,3 hPa 0,0 l/m 7,6 km/h (2 Bft) O-NO 68 0 min 0,0 UV-I 110 W/m -4,5 C -4,3 C 14,5 km/h (3 Bft)
07.02.2023 09:21 -2,8 C 1,1 C 88 % 1041,3 hPa 0,0 l/m 7,6 km/h (2 Bft) O 84 0 min 0,0 UV-I 98 W/m -4,5 C -4,2 C 14,5 km/h (3 Bft)
07.02.2023 09:24 -2,8 C 2,2 C 88 % 1041,1 hPa 0,0 l/m 11,8 km/h (2 Bft) NO 53 0 min 0,0 UV-I 54 W/m -4,5 C -8,1 C 17,7 km/h (3 Bft)
07.02.2023 09:27 -2,7 C 1,7 C 88 % 1041,2 hPa 0,0 l/m 11,7 km/h (2 Bft) O-NO 57 0 min 0,0 UV-I 45 W/m -4,4 C -7,9 C 17,7 km/h (3 Bft)
07.02.2023 09:30 -2,7 C 0,0 C 88 % 1041,2 hPa 0,0 l/m 11,4 km/h (2 Bft) NO 56 0 min 0,0 UV-I 112 W/m -4,4 C -7,6 C 16,1 km/h (3 Bft)
07.02.2023 09:33 -2,7 C -0,6 C 87 % 1041,2 hPa 0,0 l/m 12,9 km/h (3 Bft) NO 44 0 min 0,1 UV-I 158 W/m -4,6 C -8,8 C 19,3 km/h (3 Bft)
07.02.2023 09:36 -2,6 C 0,6 C 87 % 1041,2 hPa 0,0 l/m 11,8 km/h (2 Bft) NO 43 0 min 0,5 UV-I 118 W/m -4,5 C -7,8 C 20,9 km/h (4 Bft)
07.02.2023 09:39 -2,4 C 2,2 C 87 % 1041,3 hPa 0,0 l/m 13,3 km/h (3 Bft) N-NO 29 0 min 0,5 UV-I 130 W/m -4,3 C -8,7 C 19,3 km/h (3 Bft)
07.02.2023 09:42 -2,4 C 2,2 C 87 % 1041,2 hPa 0,0 l/m 10,6 km/h (2 Bft) N-NO 28 0 min 0,5 UV-I 165 W/m -4,3 C -6,6 C 19,3 km/h (3 Bft)
07.02.2023 09:45 -2,3 C 2,2 C 87 % 1041,2 hPa 0,0 l/m 13,3 km/h (3 Bft) NO 34 0 min 0,6 UV-I 201 W/m -4,2 C -8,6 C 19,3 km/h (3 Bft)
07.02.2023 09:48 -2,3 C 2,2 C 86 % 1041,2 hPa 0,0 l/m 8,2 km/h (2 Bft) NO 42 0 min 0,6 UV-I 178 W/m -4,3 C -4,3 C 16,1 km/h (3 Bft)
07.02.2023 09:51 -2,1 C 2,8 C 86 % 1041,2 hPa 0,0 l/m 6,7 km/h (2 Bft) NO 46 0 min 0,6 UV-I 170 W/m -4,1 C -2,4 C 14,5 km/h (3 Bft)
07.02.2023 09:54 -2,1 C 3,3 C 86 % 1041,1 hPa 0,0 l/m 8,2 km/h (2 Bft) N-NO 26 0 min 0,6 UV-I 167 W/m -4,1 C -4,1 C 17,7 km/h (3 Bft)
07.02.2023 09:57 -2,0 C 3,9 C 85 % 1041,2 hPa 0,0 l/m 10,9 km/h (2 Bft) NO 48 0 min 0,6 UV-I 192 W/m -4,2 C -6,4 C 16,1 km/h (3 Bft)
07.02.2023 10:00 -1,9 C 4,4 C 85 % 1041,1 hPa 0,0 l/m 10,5 km/h (2 Bft) NO 34 0 min 0,7 UV-I 186 W/m -4,1 C -6,0 C 16,1 km/h (3 Bft)
07.02.2023 10:03 -1,8 C 4,4 C 85 % 1041,1 hPa 0,0 l/m 10,1 km/h (2 Bft) NO 35 0 min 0,7 UV-I 206 W/m -4,0 C -5,5 C 17,7 km/h (3 Bft)
07.02.2023 10:06 -1,8 C 3,9 C 84 % 1041,0 hPa 0,0 l/m 9,6 km/h (2 Bft) NO 52 0 min 0,8 UV-I 236 W/m -4,1 C -5,1 C 16,1 km/h (3 Bft)
07.02.2023 10:09 -1,7 C 5,0 C 84 % 1041,0 hPa 0,0 l/m 6,1 km/h (2 Bft) NO 44 0 min 0,8 UV-I 242 W/m -4,0 C -1,7 C 9,7 km/h (2 Bft)
07.02.2023 10:12 -1,6 C 7,2 C 84 % 1041,0 hPa 0,0 l/m 3,6 km/h (1 Bft) NO 55 0 min 0,8 UV-I 248 W/m -3,9 C -1,6 C 6,4 km/h (2 Bft)
07.02.2023 10:15 -1,4 C 7,8 C 83 % 1040,9 hPa 0,0 l/m 4,2 km/h (1 Bft) NO 53 3 min 0,8 UV-I 256 W/m -3,9 C -1,4 C 8,0 km/h (2 Bft)
07.02.2023 10:18 -1,4 C 8,3 C 83 % 1040,9 hPa 0,0 l/m 3,5 km/h (1 Bft) O-NO 74 3 min 0,9 UV-I 262 W/m -3,9 C -1,4 C 6,4 km/h (2 Bft)
07.02.2023 10:21 -1,2 C 8,3 C 82 % 1040,9 hPa 0,0 l/m 4,5 km/h (1 Bft) O 92 3 min 0,9 UV-I 268 W/m -3,9 C -1,2 C 6,4 km/h (2 Bft)
07.02.2023 10:24 -1,2 C 8,3 C 82 % 1040,8 hPa 0,0 l/m 4,6 km/h (1 Bft) NO 36 3 min 0,9 UV-I 274 W/m -3,9 C -1,2 C 8,0 km/h (2 Bft)
07.02.2023 10:27 -1,1 C 8,3 C 80 % 1040,8 hPa 0,0 l/m 5,8 km/h (2 Bft) NO 41 3 min 1,0 UV-I 280 W/m -4,1 C -1,1 C 8,0 km/h (2 Bft)
07.02.2023 10:30 -0,9 C 8,3 C 80 % 1040,9 hPa 0,0 l/m 5,5 km/h (1 Bft) NO 44 3 min 1,0 UV-I 287 W/m -3,9 C -0,9 C 9,7 km/h (2 Bft)
07.02.2023 10:33 -0,9 C 8,9 C 79 % 1040,8 hPa 0,0 l/m 6,5 km/h (2 Bft) N-NO 32 3 min 1,0 UV-I 293 W/m -4,1 C -1,0 C 12,9 km/h (3 Bft)
07.02.2023 10:36 -0,8 C 8,9 C 79 % 1040,8 hPa 0,0 l/m 9,0 km/h (2 Bft) N-NO 15 3 min 1,0 UV-I 297 W/m -4,0 C -3,4 C 14,5 km/h (3 Bft)
07.02.2023 10:39 -0,7 C 8,9 C 79 % 1040,8 hPa 0,0 l/m 8,9 km/h (2 Bft) N-NO 13 3 min 1,1 UV-I 303 W/m -3,9 C -3,2 C 16,1 km/h (3 Bft)
07.02.2023 10:42 -0,7 C 8,3 C 78 % 1040,8 hPa 0,0 l/m 10,6 km/h (2 Bft) NO 38 3 min 1,1 UV-I 308 W/m -4,0 C -4,7 C 16,1 km/h (3 Bft)
07.02.2023 10:45 -0,6 C 8,3 C 78 % 1040,8 hPa 0,0 l/m 9,2 km/h (2 Bft) NO 46 3 min 1,1 UV-I 313 W/m -3,9 C -3,4 C 14,5 km/h (3 Bft)
07.02.2023 10:48 -0,6 C 8,3 C 77 % 1040,9 hPa 0,0 l/m 10,9 km/h (2 Bft) N-NO 13 3 min 1,1 UV-I 318 W/m -4,1 C -4,9 C 16,1 km/h (3 Bft)
07.02.2023 10:51 -0,4 C 8,9 C 77 % 1040,7 hPa 0,0 l/m 9,3 km/h (2 Bft) NO 42 3 min 1,2 UV-I 323 W/m -3,9 C -3,3 C 16,1 km/h (3 Bft)
07.02.2023 10:54 -0,3 C 10,0 C 77 % 1040,8 hPa 0,0 l/m 7,6 km/h (2 Bft) NO 40 3 min 1,2 UV-I 327 W/m -3,8 C -1,6 C 12,9 km/h (3 Bft)
07.02.2023 10:57 -0,3 C 9,4 C 76 % 1040,8 hPa 0,0 l/m 9,2 km/h (2 Bft) N-NO 33 3 min 1,2 UV-I 332 W/m -4,0 C -3,1 C 14,5 km/h (3 Bft)
07.02.2023 11:00 -0,2 C 9,4 C 76 % 1040,8 hPa 0,0 l/m 10,3 km/h (2 Bft) NO 37 3 min 1,2 UV-I 337 W/m -3,9 C -3,9 C 14,5 km/h (3 Bft)
07.02.2023 11:03 0,0 C 10,6 C 76 % 1040,8 hPa 0,0 l/m 9,1 km/h (2 Bft) NO 47 3 min 1,3 UV-I 339 W/m -3,7 C -2,7 C 14,5 km/h (3 Bft)
07.02.2023 11:06 -0,1 C 10,0 C 76 % 1040,8 hPa 0,0 l/m 12,4 km/h (3 Bft) N-NO 22 3 min 1,3 UV-I 345 W/m -3,8 C -5,4 C 19,3 km/h (3 Bft)
07.02.2023 11:09 0,0 C 10,0 C 75 % 1040,9 hPa 0,0 l/m 10,6 km/h (2 Bft) O-NO 60 3 min 1,3 UV-I 350 W/m -3,9 C -3,9 C 16,1 km/h (3 Bft)
07.02.2023 11:12 0,0 C 9,4 C 75 % 1040,8 hPa 0,0 l/m 12,0 km/h (2 Bft) N-NO 22 3 min 1,3 UV-I 355 W/m -3,9 C -5,0 C 17,7 km/h (3 Bft)
07.02.2023 11:15 0,1 C 9,4 C 75 % 1040,8 hPa 0,0 l/m 12,4 km/h (3 Bft) N-NO 13 3 min 1,3 UV-I 358 W/m -3,8 C -5,2 C 17,7 km/h (3 Bft)
07.02.2023 11:18 -0,1 C 9,4 C 73 % 1040,8 hPa 0,0 l/m 12,5 km/h (3 Bft) NO 44 3 min 1,4 UV-I 362 W/m -4,3 C -5,5 C 17,7 km/h (3 Bft)
07.02.2023 11:21 0,0 C 9,4 C 75 % 1040,9 hPa 0,0 l/m 11,0 km/h (2 Bft) NO 42 3 min 1,4 UV-I 366 W/m -3,9 C -4,3 C 17,7 km/h (3 Bft)
07.02.2023 11:24 0,2 C 10,6 C 74 % 1040,8 hPa 0,0 l/m 9,6 km/h (2 Bft) N-NO 33 3 min 1,4 UV-I 370 W/m -3,9 C -2,9 C 16,1 km/h (3 Bft)
07.02.2023 11:27 0,3 C 11,1 C 74 % 1040,9 hPa 0,0 l/m 10,3 km/h (2 Bft) N-NO 30 3 min 1,4 UV-I 374 W/m -3,8 C -3,4 C 14,5 km/h (3 Bft)
07.02.2023 11:30 0,3 C 11,7 C 73 % 1040,8 hPa 0,0 l/m 9,1 km/h (2 Bft) N-NO 15 3 min 1,5 UV-I 378 W/m -4,0 C -2,4 C 14,5 km/h (3 Bft)
07.02.2023 11:33 0,6 C 11,7 C 74 % 1040,7 hPa 0,0 l/m 9,1 km/h (2 Bft) NO 40 3 min 1,5 UV-I 381 W/m -3,5 C -2,0 C 12,9 km/h (3 Bft)
07.02.2023 11:36 0,6 C 11,7 C 73 % 1040,7 hPa 0,0 l/m 8,2 km/h (2 Bft) NO 39 3 min 1,5 UV-I 385 W/m -3,7 C -1,2 C 12,9 km/h (3 Bft)
07.02.2023 11:39 0,7 C 12,2 C 72 % 1040,8 hPa 0,0 l/m 9,1 km/h (2 Bft) NO 49 3 min 1,5 UV-I 388 W/m -3,8 C -1,9 C 16,1 km/h (3 Bft)
07.02.2023 11:42 0,7 C 12,2 C 72 % 1040,7 hPa 0,0 l/m 7,4 km/h (2 Bft) NO 46 3 min 1,5 UV-I 391 W/m -3,8 C -0,3 C 12,9 km/h (3 Bft)
07.02.2023 11:45 0,8 C 12,8 C 72 % 1040,8 hPa 0,0 l/m 10,4 km/h (2 Bft) NO 34 3 min 1,6 UV-I 394 W/m -3,7 C -2,9 C 14,5 km/h (3 Bft)
07.02.2023 11:48 0,8 C 13,3 C 71 % 1040,8 hPa 0,0 l/m 8,2 km/h (2 Bft) N-NO 22 3 min 1,6 UV-I 397 W/m -3,8 C -1,0 C 14,5 km/h (3 Bft)
07.02.2023 11:51 1,0 C 12,8 C 71 % 1040,8 hPa 0,0 l/m 8,9 km/h (2 Bft) NO 34 3 min 1,6 UV-I 402 W/m -3,7 C -1,4 C 14,5 km/h (3 Bft)
07.02.2023 11:54 1,0 C 12,8 C 70 % 1040,8 hPa 0,0 l/m 9,9 km/h (2 Bft) NO 39 3 min 1,6 UV-I 404 W/m -3,8 C -2,3 C 14,5 km/h (3 Bft)
07.02.2023 11:57 1,0 C 12,8 C 70 % 1040,8 hPa 0,0 l/m 9,5 km/h (2 Bft) NO 42 3 min 1,6 UV-I 405 W/m -3,8 C -1,9 C 14,5 km/h (3 Bft)
07.02.2023 12:00 1,1 C 13,9 C 70 % 1040,8 hPa 0,0 l/m 8,4 km/h (2 Bft) N-NO 17 3 min 1,6 UV-I 408 W/m -3,7 C -0,9 C 14,5 km/h (3 Bft)
07.02.2023 12:03 1,2 C 13,3 C 69 % 1040,8 hPa 0,0 l/m 9,7 km/h (2 Bft) NO 49 3 min 1,6 UV-I 411 W/m -3,8 C -1,9 C 16,1 km/h (3 Bft)
07.02.2023 12:06 1,2 C 12,8 C 69 % 1040,7 hPa 0,0 l/m 10,3 km/h (2 Bft) N-NO 24 3 min 1,7 UV-I 413 W/m -3,8 C -2,4 C 16,1 km/h (3 Bft)
07.02.2023 12:09 1,3 C 13,3 C 68 % 1040,7 hPa 0,0 l/m 12,0 km/h (2 Bft) N-NO 22 3 min 1,7 UV-I 415 W/m -3,9 C -3,5 C 16,1 km/h (3 Bft)
07.02.2023 12:12 1,3 C 12,8 C 67 % 1040,7 hPa 0,0 l/m 11,8 km/h (2 Bft) NO 46 3 min 1,7 UV-I 418 W/m -4,1 C -3,4 C 16,1 km/h (3 Bft)
07.02.2023 12:15 1,3 C 12,8 C 67 % 1040,6 hPa 0,0 l/m 11,3 km/h (2 Bft) NO 54 3 min 1,7 UV-I 419 W/m -4,1 C -3,0 C 17,7 km/h (3 Bft)
07.02.2023 12:18 1,5 C 12,8 C 67 % 1040,6 hPa 0,0 l/m 10,1 km/h (2 Bft) NO 49 3 min 1,7 UV-I 421 W/m -3,9 C -1,9 C 14,5 km/h (3 Bft)
07.02.2023 12:21 1,6 C 12,8 C 66 % 1040,6 hPa 0,0 l/m 11,1 km/h (2 Bft) NO 49 3 min 1,7 UV-I 423 W/m -4,1 C -2,5 C 17,7 km/h (3 Bft)
07.02.2023 12:24 1,6 C 13,3 C 66 % 1040,6 hPa 0,0 l/m 10,6 km/h (2 Bft) NO 49 3 min 1,7 UV-I 424 W/m -4,1 C -2,1 C 16,1 km/h (3 Bft)
07.02.2023 12:27 1,6 C 13,3 C 65 % 1040,7 hPa 0,0 l/m 8,9 km/h (2 Bft) N-NO 26 3 min 1,7 UV-I 424 W/m -4,3 C -0,8 C 16,1 km/h (3 Bft)
07.02.2023 12:30 1,8 C 13,9 C 66 % 1040,6 hPa 0,0 l/m 8,8 km/h (2 Bft) NO 40 3 min 1,7 UV-I 426 W/m -3,9 C -0,5 C 14,5 km/h (3 Bft)
07.02.2023 12:33 1,7 C 13,3 C 64 % 1040,6 hPa 0,0 l/m 8,4 km/h (2 Bft) N-NO 31 3 min 1,7 UV-I 427 W/m -4,4 C -0,2 C 12,9 km/h (3 Bft)
07.02.2023 12:36 1,8 C 13,9 C 65 % 1040,6 hPa 0,0 l/m 9,7 km/h (2 Bft) NO 34 3 min 1,7 UV-I 428 W/m -4,1 C -1,2 C 14,5 km/h (3 Bft)
07.02.2023 12:39 1,8 C 13,3 C 64 % 1040,5 hPa 0,0 l/m 9,6 km/h (2 Bft) N-NO 30 3 min 1,8 UV-I 429 W/m -4,3 C -1,1 C 14,5 km/h (3 Bft)
07.02.2023 12:42 2,1 C 13,9 C 63 % 1040,5 hPa 0,0 l/m 8,4 km/h (2 Bft) NO 42 3 min 1,8 UV-I 430 W/m -4,2 C 0,2 C 12,9 km/h (3 Bft)
07.02.2023 12:45 2,2 C 15,0 C 64 % 1040,6 hPa 0,0 l/m 7,0 km/h (2 Bft) O-NO 66 3 min 1,8 UV-I 431 W/m -3,9 C 1,6 C 12,9 km/h (3 Bft)
07.02.2023 12:48 2,3 C 14,4 C 64 % 1040,5 hPa 0,0 l/m 9,9 km/h (2 Bft) NO 52 3 min 1,8 UV-I 432 W/m -3,8 C -0,8 C 16,1 km/h (3 Bft)
07.02.2023 12:51 2,3 C 14,4 C 62 % 1040,5 hPa 0,0 l/m 11,0 km/h (2 Bft) NO 55 3 min 1,8 UV-I 433 W/m -4,2 C -1,7 C 16,1 km/h (3 Bft)
07.02.2023 12:54 2,2 C 13,9 C 62 % 1040,5 hPa 0,0 l/m 11,4 km/h (2 Bft) NO 39 3 min 1,8 UV-I 434 W/m -4,3 C -2,1 C 17,7 km/h (3 Bft)
07.02.2023 12:57 2,3 C 13,9 C 60 % 1040,5 hPa 0,0 l/m 11,0 km/h (2 Bft) NO 48 3 min 1,8 UV-I 432 W/m -4,6 C -1,7 C 17,7 km/h (3 Bft)
07.02.2023 13:00 2,3 C 14,4 C 61 % 1040,6 hPa 0,0 l/m 11,0 km/h (2 Bft) NO 49 3 min 1,8 UV-I 434 W/m -4,4 C -1,7 C 17,7 km/h (3 Bft)
07.02.2023 13:03 2,2 C 13,3 C 59 % 1040,6 hPa 0,0 l/m 12,9 km/h (3 Bft) O-NO 59 3 min 1,8 UV-I 433 W/m -5,0 C -3,1 C 17,7 km/h (3 Bft)
07.02.2023 13:06 2,4 C 13,9 C 59 % 1040,5 hPa 0,0 l/m 11,7 km/h (2 Bft) NO 36 3 min 1,8 UV-I 432 W/m -4,8 C -2,0 C 19,3 km/h (3 Bft)
07.02.2023 13:09 2,3 C 13,3 C 58 % 1040,5 hPa 0,0 l/m 13,3 km/h (3 Bft) O-NO 57 3 min 1,8 UV-I 432 W/m -5,1 C -3,2 C 17,7 km/h (3 Bft)
07.02.2023 13:12 2,4 C 13,3 C 58 % 1040,5 hPa 0,0 l/m 11,0 km/h (2 Bft) NO 38 3 min 1,8 UV-I 432 W/m -5,0 C -1,5 C 16,1 km/h (3 Bft)
07.02.2023 13:15 2,5 C 13,9 C 58 % 1040,6 hPa 0,0 l/m 11,0 km/h (2 Bft) N-NO 20 3 min 1,8 UV-I 431 W/m -4,9 C -1,4 C 16,1 km/h (3 Bft)
07.02.2023 13:18 2,6 C 13,9 C 58 % 1040,6 hPa 0,0 l/m 12,5 km/h (3 Bft) N-NO 31 3 min 1,7 UV-I 431 W/m -4,8 C -2,3 C 17,7 km/h (3 Bft)
07.02.2023 13:21 2,7 C 14,4 C 57 % 1040,7 hPa 0,0 l/m 10,5 km/h (2 Bft) NO 36 3 min 1,7 UV-I 430 W/m -4,9 C -0,8 C 16,1 km/h (3 Bft)
07.02.2023 13:24 2,8 C 14,4 C 58 % 1040,6 hPa 0,0 l/m 10,3 km/h (2 Bft) NO 52 3 min 1,7 UV-I 429 W/m -4,6 C -0,6 C 16,1 km/h (3 Bft)
07.02.2023 13:27 2,9 C 15,6 C 57 % 1040,6 hPa 0,0 l/m 7,1 km/h (2 Bft) N-NO 24 3 min 1,7 UV-I 429 W/m -4,8 C 2,2 C 11,3 km/h (2 Bft)
07.02.2023 13:30 3,1 C 15,6 C 57 % 1040,7 hPa 0,0 l/m 11,5 km/h (2 Bft) N-NO 31 3 min 1,7 UV-I 427 W/m -4,6 C -1,1 C 14,5 km/h (3 Bft)
07.02.2023 13:33 3,1 C 15,6 C 57 % 1040,6 hPa 0,0 l/m 10,3 km/h (2 Bft) NO 34 3 min 1,7 UV-I 425 W/m -4,6 C -0,2 C 16,1 km/h (3 Bft)
07.02.2023 13:36 3,1 C 15,0 C 55 % 1040,6 hPa 0,0 l/m 11,2 km/h (2 Bft) NO 36 3 min 1,7 UV-I 424 W/m -5,0 C -0,9 C 17,7 km/h (3 Bft)
07.02.2023 13:39 3,1 C 15,0 C 53 % 1040,4 hPa 0,0 l/m 13,6 km/h (3 Bft) NO 42 3 min 1,7 UV-I 423 W/m -5,5 C -2,4 C 17,7 km/h (3 Bft)
07.02.2023 13:42 3,1 C 13,9 C 52 % 1040,5 hPa 0,0 l/m 10,6 km/h (2 Bft) N-NO 30 3 min 1,7 UV-I 421 W/m -5,8 C -0,5 C 19,3 km/h (3 Bft)
07.02.2023 13:45 3,3 C 14,4 C 52 % 1040,4 hPa 0,0 l/m 7,2 km/h (2 Bft) O-NO 61 3 min 1,7 UV-I 419 W/m -5,6 C 2,5 C 11,3 km/h (2 Bft)
07.02.2023 13:48 3,4 C 13,3 C 49 % 1040,5 hPa 0,0 l/m 9,4 km/h (2 Bft) O-NO 73 3 min 1,6 UV-I 418 W/m -6,3 C 0,8 C 16,1 km/h (3 Bft)
07.02.2023 13:51 3,7 C 15,0 C 52 % 1040,4 hPa 0,0 l/m 7,4 km/h (2 Bft) O 84 3 min 1,6 UV-I 416 W/m -5,2 C 2,8 C 14,5 km/h (3 Bft)
07.02.2023 13:54 3,7 C 14,4 C 48 % 1040,4 hPa 0,0 l/m 10,6 km/h (2 Bft) O-NO 62 3 min 1,6 UV-I 415 W/m -6,3 C 0,2 C 16,1 km/h (3 Bft)
07.02.2023 13:57 3,9 C 16,1 C 49 % 1040,5 hPa 0,0 l/m 7,0 km/h (2 Bft) O-NO 59 3 min 1,6 UV-I 412 W/m -5,8 C 3,4 C 14,5 km/h (3 Bft)
07.02.2023 14:00 3,9 C 16,1 C 49 % 1040,3 hPa 0,0 l/m 7,7 km/h (2 Bft) O-NO 57 3 min 1,6 UV-I 410 W/m -5,8 C 2,7 C 16,1 km/h (3 Bft)
07.02.2023 14:03 3,9 C 16,1 C 49 % 1040,4 hPa 0,0 l/m 6,6 km/h (2 Bft) O-NO 67 3 min 1,6 UV-I 407 W/m -5,8 C 3,7 C 14,5 km/h (3 Bft)
07.02.2023 14:06 3,9 C 15,6 C 47 % 1040,4 hPa 0,0 l/m 8,6 km/h (2 Bft) O-NO 68 3 min 1,6 UV-I 404 W/m -6,4 C 1,9 C 14,5 km/h (3 Bft)
07.02.2023 14:09 3,9 C 16,1 C 46 % 1040,4 hPa 0,0 l/m 6,4 km/h (2 Bft) O-NO 59 3 min 1,5 UV-I 403 W/m -6,6 C 3,9 C 16,1 km/h (3 Bft)
07.02.2023 14:12 3,8 C 15,0 C 45 % 1040,5 hPa 0,0 l/m 10,4 km/h (2 Bft) NO 56 3 min 1,5 UV-I 400 W/m -7,0 C 0,5 C 17,7 km/h (3 Bft)
07.02.2023 14:15 4,1 C 16,1 C 49 % 1040,5 hPa 0,0 l/m 5,4 km/h (1 Bft) NO 51 3 min 1,5 UV-I 395 W/m -5,6 C 4,1 C 12,9 km/h (3 Bft)
07.02.2023 14:18 3,8 C 15,6 C 49 % 1040,4 hPa 0,0 l/m 10,5 km/h (2 Bft) N-NO 19 3 min 1,5 UV-I 393 W/m -5,9 C 0,4 C 16,1 km/h (3 Bft)
07.02.2023 14:21 3,8 C 15,0 C 52 % 1040,3 hPa 0,0 l/m 10,8 km/h (2 Bft) N-NO 27 3 min 1,5 UV-I 389 W/m -5,1 C 0,2 C 16,1 km/h (3 Bft)
07.02.2023 14:24 3,8 C 15,6 C 52 % 1040,4 hPa 0,0 l/m 11,3 km/h (2 Bft) N-NO 30 3 min 1,4 UV-I 385 W/m -5,1 C -0,2 C 16,1 km/h (3 Bft)
07.02.2023 14:27 3,8 C 15,0 C 51 % 1040,4 hPa 0,0 l/m 11,8 km/h (2 Bft) N-NO 32 3 min 1,4 UV-I 380 W/m -5,4 C -0,5 C 16,1 km/h (3 Bft)
07.02.2023 14:30 3,8 C 14,4 C 50 % 1040,5 hPa 0,0 l/m 12,8 km/h (3 Bft) N-NO 22 3 min 1,4 UV-I 376 W/m -5,6 C -1,1 C 16,1 km/h (3 Bft)
07.02.2023 14:33 3,8 C 15,0 C 49 % 1040,4 hPa 0,0 l/m 7,9 km/h (2 Bft) N-NO 17 3 min 1,4 UV-I 372 W/m -5,9 C 2,4 C 12,9 km/h (3 Bft)
07.02.2023 14:36 4,0 C 16,1 C 51 % 1040,4 hPa 0,0 l/m 6,0 km/h (2 Bft) O-NO 71 3 min 1,3 UV-I 368 W/m -5,2 C 4,0 C 11,3 km/h (2 Bft)
07.02.2023 14:39 4,0 C 15,6 C 49 % 1040,4 hPa 0,0 l/m 8,2 km/h (2 Bft) N-NO 32 3 min 1,3 UV-I 365 W/m -5,7 C 2,4 C 14,5 km/h (3 Bft)
07.02.2023 14:42 3,9 C 15,6 C 50 % 1040,5 hPa 0,0 l/m 7,5 km/h (2 Bft) NO 41 3 min 1,3 UV-I 361 W/m -5,6 C 2,9 C 12,9 km/h (3 Bft)
07.02.2023 14:45 3,9 C 15,6 C 51 % 1040,5 hPa 0,0 l/m 10,0 km/h (2 Bft) NO 39 3 min 1,3 UV-I 356 W/m -5,3 C 0,9 C 16,1 km/h (3 Bft)
07.02.2023 14:48 4,0 C 15,0 C 51 % 1040,4 hPa 0,0 l/m 9,0 km/h (2 Bft) NO 35 3 min 1,3 UV-I 352 W/m -5,2 C 1,7 C 16,1 km/h (3 Bft)
07.02.2023 14:51 3,8 C 14,4 C 50 % 1040,4 hPa 0,0 l/m 9,6 km/h (2 Bft) NO 50 3 min 1,2 UV-I 347 W/m -5,6 C 1,0 C 16,1 km/h (3 Bft)
07.02.2023 14:54 3,7 C 14,4 C 50 % 1040,4 hPa 0,0 l/m 10,6 km/h (2 Bft) NO 40 3 min 1,2 UV-I 342 W/m -5,7 C 0,2 C 16,1 km/h (3 Bft)
07.02.2023 14:57 3,8 C 15,0 C 50 % 1040,4 hPa 0,0 l/m 9,2 km/h (2 Bft) NO 55 3 min 1,2 UV-I 338 W/m -5,6 C 1,4 C 16,1 km/h (3 Bft)
07.02.2023 15:00 3,9 C 14,4 C 47 % 1040,4 hPa 0,0 l/m 7,4 km/h (2 Bft) NO 35 3 min 1,1 UV-I 332 W/m -6,4 C 3,0 C 11,3 km/h (2 Bft)
07.02.2023 15:03 3,9 C 15,6 C 47 % 1040,4 hPa 0,0 l/m 7,2 km/h (2 Bft) NO 54 3 min 1,1 UV-I 327 W/m -6,4 C 3,2 C 12,9 km/h (3 Bft)
07.02.2023 15:06 4,0 C 15,6 C 45 % 1040,4 hPa 0,0 l/m 6,2 km/h (2 Bft) NO 43 3 min 1,1 UV-I 321 W/m -6,8 C 4,0 C 12,9 km/h (3 Bft)
07.02.2023 15:09 3,9 C 15,6 C 45 % 1040,5 hPa 0,0 l/m 7,9 km/h (2 Bft) NO 47 3 min 1,1 UV-I 317 W/m -6,9 C 2,5 C 14,5 km/h (3 Bft)
07.02.2023 15:12 4,0 C 15,0 C 45 % 1040,4 hPa 0,0 l/m 8,1 km/h (2 Bft) NO 42 3 min 1,0 UV-I 312 W/m -6,8 C 2,5 C 12,9 km/h (3 Bft)
07.02.2023 15:15 3,9 C 13,9 C 45 % 1040,4 hPa 0,0 l/m 8,0 km/h (2 Bft) NO 46 3 min 1,0 UV-I 308 W/m -6,9 C 2,4 C 14,5 km/h (3 Bft)
07.02.2023 15:18 4,0 C 14,4 C 46 % 1040,4 hPa 0,0 l/m 8,2 km/h (2 Bft) O-NO 66 3 min 1,0 UV-I 302 W/m -6,6 C 2,4 C 12,9 km/h (3 Bft)
07.02.2023 15:21 3,8 C 13,3 C 44 % 1040,3 hPa 0,0 l/m 10,4 km/h (2 Bft) NO 38 3 min 0,9 UV-I 297 W/m -7,3 C 0,5 C 14,5 km/h (3 Bft)
07.02.2023 15:24 4,0 C 13,3 C 45 % 1040,4 hPa 0,0 l/m 8,9 km/h (2 Bft) O-NO 63 3 min 0,9 UV-I 291 W/m -6,8 C 1,8 C 14,5 km/h (3 Bft)
07.02.2023 15:27 3,9 C 13,3 C 44 % 1040,4 hPa 0,0 l/m 9,1 km/h (2 Bft) O-NO 65 3 min 0,9 UV-I 285 W/m -7,2 C 1,5 C 16,1 km/h (3 Bft)
07.02.2023 15:30 3,9 C 13,3 C 46 % 1040,4 hPa 0,0 l/m 7,5 km/h (2 Bft) O-NO 71 3 min 0,9 UV-I 279 W/m -6,6 C 2,9 C 14,5 km/h (3 Bft)
07.02.2023 15:33 3,9 C 12,8 C 45 % 1040,4 hPa 0,0 l/m 8,8 km/h (2 Bft) O 87 3 min 0,8 UV-I 273 W/m -6,9 C 1,8 C 14,5 km/h (3 Bft)
07.02.2023 15:36 3,9 C 11,7 C 45 % 1040,4 hPa 0,0 l/m 9,8 km/h (2 Bft) NO 53 3 min 0,8 UV-I 266 W/m -6,9 C 1,0 C 16,1 km/h (3 Bft)
07.02.2023 15:39 4,1 C 12,2 C 46 % 1040,3 hPa 0,0 l/m 5,5 km/h (1 Bft) NO 52 3 min 0,8 UV-I 259 W/m -6,5 C 4,1 C 12,9 km/h (3 Bft)
07.02.2023 15:42 4,1 C 12,8 C 48 % 1040,3 hPa 0,0 l/m 8,7 km/h (2 Bft) O-NO 76 3 min 0,7 UV-I 252 W/m -5,9 C 2,1 C 16,1 km/h (3 Bft)
07.02.2023 15:45 4,1 C 9,4 C 50 % 1040,3 hPa 0,0 l/m 6,8 km/h (2 Bft) NO 51 0 min 0,7 UV-I 246 W/m -5,4 C 3,7 C 12,9 km/h (3 Bft)
07.02.2023 15:48 3,9 C 6,7 C 49 % 1040,4 hPa 0,0 l/m 10,1 km/h (2 Bft) NO 55 0 min 0,7 UV-I 238 W/m -5,8 C 0,8 C 16,1 km/h (3 Bft)
07.02.2023 15:51 3,9 C 8,9 C 50 % 1040,5 hPa 0,0 l/m 7,6 km/h (2 Bft) O-NO 64 0 min 0,7 UV-I 232 W/m -5,6 C 2,8 C 14,5 km/h (3 Bft)
07.02.2023 15:54 3,9 C 10,6 C 51 % 1040,5 hPa 0,0 l/m 5,7 km/h (1 Bft) O-NO 67 0 min 0,6 UV-I 223 W/m -5,3 C 3,9 C 12,9 km/h (3 Bft)
07.02.2023 15:57 3,9 C 10,6 C 53 % 1040,4 hPa 0,0 l/m 5,4 km/h (1 Bft) NO 54 0 min 0,6 UV-I 216 W/m -4,8 C 3,9 C 8,0 km/h (2 Bft)
07.02.2023 16:00 3,8 C 10,0 C 52 % 1040,5 hPa 0,0 l/m 8,6 km/h (2 Bft) NO 51 0 min 0,6 UV-I 208 W/m -5,1 C 1,8 C 16,1 km/h (3 Bft)
07.02.2023 16:03 3,6 C 10,6 C 51 % 1040,4 hPa 0,0 l/m 8,1 km/h (2 Bft) NO 39 0 min 0,6 UV-I 200 W/m -5,6 C 2,0 C 14,5 km/h (3 Bft)
07.02.2023 16:06 3,6 C 11,1 C 53 % 1040,4 hPa 0,0 l/m 6,6 km/h (2 Bft) O-NO 67 0 min 0,5 UV-I 191 W/m -5,1 C 3,4 C 9,7 km/h (2 Bft)
07.02.2023 16:09 3,6 C 11,7 C 53 % 1040,5 hPa 0,0 l/m 5,7 km/h (1 Bft) O-NO 66 0 min 0,5 UV-I 182 W/m -5,1 C 3,6 C 8,0 km/h (2 Bft)
07.02.2023 16:12 3,5 C 11,1 C 52 % 1040,4 hPa 0,0 l/m 5,9 km/h (2 Bft) NO 55 0 min 0,5 UV-I 174 W/m -5,4 C 3,5 C 11,3 km/h (2 Bft)
07.02.2023 16:15 3,5 C 10,0 C 52 % 1040,4 hPa 0,0 l/m 6,8 km/h (2 Bft) NO 44 0 min 0,5 UV-I 166 W/m -5,4 C 3,1 C 12,9 km/h (3 Bft)
07.02.2023 16:18 3,4 C 5,6 C 53 % 1040,5 hPa 0,0 l/m 7,0 km/h (2 Bft) NO 36 0 min 0,0 UV-I 158 W/m -5,3 C 2,8 C 11,3 km/h (2 Bft)
07.02.2023 16:21 3,3 C 4,4 C 52 % 1040,4 hPa 0,0 l/m 6,8 km/h (2 Bft) N-NO 32 0 min 0,0 UV-I 148 W/m -5,6 C 2,9 C 9,7 km/h (2 Bft)
07.02.2023 16:24 3,2 C 5,6 C 52 % 1040,4 hPa 0,0 l/m 6,9 km/h (2 Bft) O-NO 68 0 min 0,0 UV-I 141 W/m -5,7 C 2,7 C 11,3 km/h (2 Bft)
07.02.2023 16:27 3,2 C 7,8 C 52 % 1040,4 hPa 0,0 l/m 8,8 km/h (2 Bft) O-NO 72 0 min 0,0 UV-I 132 W/m -5,7 C 1,0 C 14,5 km/h (3 Bft)
07.02.2023 16:30 3,1 C 8,9 C 53 % 1040,4 hPa 0,0 l/m 6,4 km/h (2 Bft) O-NO 67 0 min 0,0 UV-I 123 W/m -5,5 C 3,1 C 12,9 km/h (3 Bft)
07.02.2023 16:33 3,1 C 8,9 C 52 % 1040,4 hPa 0,0 l/m 8,2 km/h (2 Bft) O-NO 58 0 min 0,0 UV-I 115 W/m -5,8 C 1,4 C 12,9 km/h (3 Bft)
07.02.2023 16:36 3,0 C 8,9 C 52 % 1040,4 hPa 0,0 l/m 6,7 km/h (2 Bft) O-NO 65 0 min 0,0 UV-I 106 W/m -5,9 C 2,7 C 11,3 km/h (2 Bft)
07.02.2023 16:39 2,9 C 8,9 C 53 % 1040,4 hPa 0,0 l/m 6,4 km/h (2 Bft) NO 51 0 min 0,0 UV-I 98 W/m -5,7 C 2,9 C 12,9 km/h (3 Bft)
07.02.2023 16:42 2,8 C 8,9 C 53 % 1040,4 hPa 0,0 l/m 5,6 km/h (1 Bft) O-NO 65 0 min 0,0 UV-I 90 W/m -5,8 C 2,8 C 9,7 km/h (2 Bft)
07.02.2023 16:45 2,8 C 8,3 C 53 % 1040,5 hPa 0,0 l/m 5,6 km/h (1 Bft) NO 48 0 min 0,0 UV-I 82 W/m -5,8 C 2,8 C 11,3 km/h (2 Bft)
07.02.2023 16:48 2,7 C 8,9 C 54 % 1040,5 hPa 0,0 l/m 4,8 km/h (1 Bft) O 82 0 min 0,0 UV-I 75 W/m -5,7 C 2,7 C 8,0 km/h (2 Bft)
07.02.2023 16:51 2,7 C 8,9 C 55 % 1040,5 hPa 0,0 l/m 4,4 km/h (1 Bft) O-NO 61 0 min 0,0 UV-I 68 W/m -5,4 C 2,7 C 8,0 km/h (2 Bft)
07.02.2023 16:54 2,6 C 8,9 C 55 % 1040,6 hPa 0,0 l/m 4,2 km/h (1 Bft) NO 50 0 min 0,0 UV-I 61 W/m -5,5 C 2,6 C 8,0 km/h (2 Bft)
07.02.2023 16:57 2,4 C 8,9 C 55 % 1040,5 hPa 0,0 l/m 3,9 km/h (1 Bft) NO 39 0 min 0,0 UV-I 54 W/m -5,7 C 2,4 C 6,4 km/h (2 Bft)
07.02.2023 17:00 2,2 C 8,3 C 57 % 1040,5 hPa 0,0 l/m 5,5 km/h (1 Bft) NO 40 0 min 0,0 UV-I 48 W/m -5,4 C 2,2 C 8,0 km/h (2 Bft)
07.02.2023 17:03 1,9 C 7,2 C 58 % 1040,6 hPa 0,0 l/m 4,9 km/h (1 Bft) O-NO 69 0 min 0,0 UV-I 42 W/m -5,5 C 1,9 C 8,0 km/h (2 Bft)
07.02.2023 17:06 1,9 C 6,7 C 58 % 1040,6 hPa 0,0 l/m 4,9 km/h (1 Bft) O-NO 61 0 min 0,0 UV-I 36 W/m -5,5 C 1,9 C 8,0 km/h (2 Bft)
07.02.2023 17:09 1,9 C 5,6 C 58 % 1040,6 hPa 0,0 l/m 5,3 km/h (1 Bft) O-NO 63 0 min 0,0 UV-I 31 W/m -5,5 C 1,9 C 8,0 km/h (2 Bft)
07.02.2023 17:12 1,8 C 5,6 C 58 % 1040,6 hPa 0,0 l/m 5,2 km/h (1 Bft) NO 56 0 min 0,0 UV-I 26 W/m -5,6 C 1,8 C 8,0 km/h (2 Bft)
07.02.2023 17:15 1,7 C 3,9 C 58 % 1040,7 hPa 0,0 l/m 4,0 km/h (1 Bft) O-NO 57 0 min 0,0 UV-I 21 W/m -5,7 C 1,7 C 6,4 km/h (2 Bft)
07.02.2023 17:18 1,4 C 1,7 C 60 % 1040,6 hPa 0,0 l/m 3,9 km/h (1 Bft) O-NO 60 0 min 0,0 UV-I 13 W/m -5,5 C 1,4 C 6,4 km/h (2 Bft)
07.02.2023 17:21 1,3 C 0,0 C 60 % 1040,7 hPa 0,0 l/m 4,8 km/h (1 Bft) O-NO 65 0 min 0,0 UV-I 12 W/m -5,6 C 1,3 C 8,0 km/h (2 Bft)
07.02.2023 17:24 1,1 C -0,6 C 60 % 1040,8 hPa 0,0 l/m 5,7 km/h (1 Bft) NO 53 0 min 0,0 UV-I 11 W/m -5,8 C 1,1 C 8,0 km/h (2 Bft)
07.02.2023 17:27 0,9 C -1,1 C 61 % 1040,8 hPa 0,0 l/m 5,7 km/h (1 Bft) O-NO 58 0 min 0,0 UV-I 9 W/m -5,8 C 0,9 C 8,0 km/h (2 Bft)
07.02.2023 17:30 0,9 C -1,1 C 60 % 1040,9 hPa 0,0 l/m 6,2 km/h (2 Bft) NO 51 0 min 0,0 UV-I 8 W/m -6,0 C 0,9 C 9,7 km/h (2 Bft)
07.02.2023 17:33 0,9 C -1,7 C 60 % 1040,9 hPa 0,0 l/m 6,5 km/h (2 Bft) NO 54 0 min 0,0 UV-I 7 W/m -6,0 C 0,8 C 9,7 km/h (2 Bft)
07.02.2023 17:36 0,7 C -1,7 C 61 % 1041,0 hPa 0,0 l/m 5,2 km/h (1 Bft) NO 56 0 min 0,0 UV-I 5 W/m -5,9 C 0,7 C 9,7 km/h (2 Bft)
07.02.2023 17:39 0,5 C -1,7 C 61 % 1040,9 hPa 0,0 l/m 3,6 km/h (1 Bft) NO 52 0 min 0,0 UV-I 5 W/m -6,1 C 0,5 C 6,4 km/h (2 Bft)
07.02.2023 17:42 0,3 C -2,2 C 62 % 1041,0 hPa 0,0 l/m 3,5 km/h (1 Bft) O-NO 59 0 min 0,0 UV-I 1 W/m -6,1 C 0,3 C 6,4 km/h (2 Bft)
07.02.2023 17:45 0,3 C -2,2 C 62 % 1041,0 hPa 0,0 l/m 3,0 km/h (1 Bft) O-NO 59 0 min 0,0 UV-I 0 W/m -6,1 C 0,3 C 4,8 km/h (1 Bft)
07.02.2023 17:48 0,1 C -2,2 C 63 % 1041,0 hPa 0,0 l/m 3,8 km/h (1 Bft) O-NO 64 0 min 0,0 UV-I 0 W/m -6,1 C 0,1 C 6,4 km/h (2 Bft)
07.02.2023 17:51 0,0 C -2,8 C 63 % 1041,1 hPa 0,0 l/m 3,7 km/h (1 Bft) O-NO 59 0 min 0,0 UV-I 0 W/m -6,2 C 0,0 C 6,4 km/h (2 Bft)
07.02.2023 17:54 -0,1 C -2,8 C 63 % 1041,1 hPa 0,0 l/m 4,3 km/h (1 Bft) NO 55 0 min 0,0 UV-I 0 W/m -6,3 C -0,1 C 6,4 km/h (2 Bft)
07.02.2023 17:57 -0,2 C -2,8 C 63 % 1041,2 hPa 0,0 l/m 4,6 km/h (1 Bft) NO 38 0 min 0,0 UV-I 0 W/m -6,4 C -0,2 C 6,4 km/h (2 Bft)
07.02.2023 18:00 -0,1 C -2,8 C 63 % 1041,1 hPa 0,0 l/m 5,4 km/h (1 Bft) N-NO 13 0 min 0,0 UV-I 0 W/m -6,3 C -0,1 C 6,4 km/h (2 Bft)
07.02.2023 18:03 0,0 C -2,8 C 63 % 1041,1 hPa 0,0 l/m 5,6 km/h (1 Bft) N-NO 22 0 min 0,0 UV-I 0 W/m -6,2 C 0,0 C 8,0 km/h (2 Bft)
07.02.2023 18:06 0,2 C -2,8 C 62 % 1041,1 hPa 0,0 l/m 5,1 km/h (1 Bft) N-NO 22 0 min 0,0 UV-I 0 W/m -6,2 C 0,2 C 8,0 km/h (2 Bft)
07.02.2023 18:09 0,1 C -2,8 C 63 % 1041,1 hPa 0,0 l/m 5,9 km/h (2 Bft) N-NO 31 0 min 0,0 UV-I 0 W/m -6,1 C 0,1 C 8,0 km/h (2 Bft)
07.02.2023 18:12 0,0 C -2,8 C 63 % 1041,1 hPa 0,0 l/m 4,7 km/h (1 Bft) NO 34 0 min 0,0 UV-I 0 W/m -6,2 C 0,0 C 6,4 km/h (2 Bft)
07.02.2023 18:15 -0,1 C -2,8 C 63 % 1041,0 hPa 0,0 l/m 5,2 km/h (1 Bft) N-NO 32 0 min 0,0 UV-I 0 W/m -6,3 C -0,1 C 8,0 km/h (2 Bft)
07.02.2023 18:18 -0,1 C -2,8 C 63 % 1041,0 hPa 0,0 l/m 3,9 km/h (1 Bft) NO 52 0 min 0,0 UV-I 0 W/m -6,3 C -0,1 C 6,4 km/h (2 Bft)
07.02.2023 18:21 -0,3 C -3,3 C 64 % 1041,1 hPa 0,0 l/m 3,8 km/h (1 Bft) NO 49 0 min 0,0 UV-I 0 W/m -6,3 C -0,3 C 4,8 km/h (1 Bft)
07.02.2023 18:24 -0,5 C -3,3 C 65 % 1041,0 hPa 0,0 l/m 2,5 km/h (1 Bft) NO 49 0 min 0,0 UV-I 0 W/m -6,3 C -0,5 C 4,8 km/h (1 Bft)
07.02.2023 18:27 -0,7 C -3,3 C 67 % 1041,2 hPa 0,0 l/m 1,1 km/h (1 Bft) NO 49 0 min 0,0 UV-I 0 W/m -6,0 C -0,7 C 3,2 km/h (1 Bft)
07.02.2023 18:30 -0,8 C -3,3 C 67 % 1041,1 hPa 0,0 l/m 1,7 km/h (1 Bft) NO 49 0 min 0,0 UV-I 0 W/m -6,1 C -0,8 C 3,2 km/h (1 Bft)
07.02.2023 18:33 -0,8 C -3,3 C 66 % 1041,2 hPa 0,0 l/m 1,2 km/h (1 Bft) NO 47 0 min 0,0 UV-I 0 W/m -6,3 C -0,8 C 4,8 km/h (1 Bft)
07.02.2023 18:36 -0,7 C -3,3 C 66 % 1041,1 hPa 0,0 l/m 1,5 km/h (1 Bft) NO 45 0 min 0,0 UV-I 0 W/m -6,2 C -0,7 C 3,2 km/h (1 Bft)
07.02.2023 18:39 -0,7 C -3,3 C 66 % 1041,1 hPa 0,0 l/m 0,6 km/h (0 Bft) NO 45 0 min 0,0 UV-I 0 W/m -6,2 C -0,7 C 3,2 km/h (1 Bft)
07.02.2023 18:42 -0,7 C -3,3 C 66 % 1041,2 hPa 0,0 l/m 0,9 km/h (0 Bft) NO 44 0 min 0,0 UV-I 0 W/m -6,2 C -0,7 C 3,2 km/h (1 Bft)
07.02.2023 18:45 -0,7 C -3,3 C 66 % 1041,1 hPa 0,0 l/m 0,3 km/h (0 Bft) NO 44 0 min 0,0 UV-I 0 W/m -6,2 C -0,7 C 1,6 km/h (1 Bft)
07.02.2023 18:48 -0,6 C -3,3 C 65 % 1041,1 hPa 0,0 l/m 0,9 km/h (0 Bft) NO 44 0 min 0,0 UV-I 0 W/m -6,3 C -0,6 C 3,2 km/h (1 Bft)
07.02.2023 18:51 -0,7 C -3,3 C 66 % 1041,1 hPa 0,0 l/m 1,2 km/h (1 Bft) N-NO 24 0 min 0,0 UV-I 0 W/m -6,2 C -0,7 C 4,8 km/h (1 Bft)
07.02.2023 18:54 -0,7 C -3,3 C 66 % 1041,1 hPa 0,0 l/m 2,1 km/h (1 Bft) N-NO 22 0 min 0,0 UV-I 0 W/m -6,2 C -0,7 C 4,8 km/h (1 Bft)
07.02.2023 18:57 -0,6 C -3,3 C 65 % 1041,2 hPa 0,0 l/m 2,0 km/h (1 Bft) N-NO 18 0 min 0,0 UV-I 0 W/m -6,3 C -0,6 C 4,8 km/h (1 Bft)
07.02.2023 19:00 -0,4 C -3,3 C 64 % 1041,1 hPa 0,0 l/m 1,7 km/h (1 Bft) O-SO 109 0 min 0,0 UV-I 0 W/m -6,4 C -0,4 C 4,8 km/h (1 Bft)
07.02.2023 19:03 -0,6 C -3,3 C 65 % 1041,2 hPa 0,0 l/m 2,7 km/h (1 Bft) O-NO 64 0 min 0,0 UV-I 0 W/m -6,3 C -0,6 C 4,8 km/h (1 Bft)
07.02.2023 19:06 -1,1 C -3,9 C 67 % 1041,1 hPa 0,0 l/m 2,0 km/h (1 Bft) O-NO 64 0 min 0,0 UV-I 0 W/m -6,4 C -1,1 C 4,8 km/h (1 Bft)
07.02.2023 19:09 -1,4 C -3,9 C 68 % 1041,2 hPa 0,0 l/m 3,4 km/h (1 Bft) O-NO 63 0 min 0,0 UV-I 0 W/m -6,5 C -1,4 C 4,8 km/h (1 Bft)
07.02.2023 19:12 -1,6 C -4,4 C 69 % 1041,3 hPa 0,0 l/m 2,7 km/h (1 Bft) O-NO 62 0 min 0,0 UV-I 0 W/m -6,5 C -1,6 C 4,8 km/h (1 Bft)
07.02.2023 19:15 -1,6 C -4,4 C 70 % 1041,3 hPa 0,0 l/m 3,1 km/h (1 Bft) O-NO 59 0 min 0,0 UV-I 0 W/m -6,3 C -1,6 C 4,8 km/h (1 Bft)
07.02.2023 19:18 -1,4 C -3,9 C 69 % 1041,3 hPa 0,0 l/m 2,7 km/h (1 Bft) O-NO 58 0 min 0,0 UV-I 0 W/m -6,3 C -1,4 C 4,8 km/h (1 Bft)
07.02.2023 19:21 -1,3 C -4,4 C 68 % 1041,4 hPa 0,0 l/m 2,5 km/h (1 Bft) O-NO 57 0 min 0,0 UV-I 0 W/m -6,4 C -1,3 C 4,8 km/h (1 Bft)
07.02.2023 19:24 -1,1 C -3,9 C 67 % 1041,3 hPa 0,0 l/m 1,2 km/h (1 Bft) O-NO 57 0 min 0,0 UV-I 0 W/m -6,4 C -1,1 C 3,2 km/h (1 Bft)
07.02.2023 19:27 -1,1 C -3,9 C 67 % 1041,4 hPa 0,0 l/m 0,5 km/h (0 Bft) O-NO 57 0 min 0,0 UV-I 0 W/m -6,4 C -1,1 C 1,6 km/h (1 Bft)
07.02.2023 19:30 -1,3 C -3,9 C 68 % 1041,4 hPa 0,0 l/m 1,8 km/h (1 Bft) NO 41 0 min 0,0 UV-I 0 W/m -6,4 C -1,3 C 4,8 km/h (1 Bft)
07.02.2023 19:33 -1,3 C -3,9 C 68 % 1041,4 hPa 0,0 l/m 0,4 km/h (0 Bft) NO 41 0 min 0,0 UV-I 0 W/m -6,4 C -1,3 C 3,2 km/h (1 Bft)
07.02.2023 19:36 -1,3 C -3,9 C 68 % 1041,3 hPa 0,0 l/m 0,9 km/h (0 Bft) NO 40 0 min 0,0 UV-I 0 W/m -6,4 C -1,3 C 3,2 km/h (1 Bft)
07.02.2023 19:39 -1,4 C -4,4 C 69 % 1041,4 hPa 0,0 l/m 2,5 km/h (1 Bft) N-NW 344 0 min 0,0 UV-I 0 W/m -6,3 C -1,4 C 4,8 km/h (1 Bft)
07.02.2023 19:42 -1,9 C -5,0 C 70 % 1041,3 hPa 0,0 l/m 1,8 km/h (1 Bft) N-NW 333 0 min 0,0 UV-I 0 W/m -6,6 C -1,9 C 4,8 km/h (1 Bft)
07.02.2023 19:45 -2,1 C -4,4 C 72 % 1041,2 hPa 0,0 l/m 2,7 km/h (1 Bft) N-NW 332 0 min 0,0 UV-I 0 W/m -6,5 C -2,1 C 4,8 km/h (1 Bft)
07.02.2023 19:48 -1,9 C -4,4 C 72 % 1041,2 hPa 0,0 l/m 1,9 km/h (1 Bft) N-NW 331 0 min 0,0 UV-I 0 W/m -6,3 C -1,9 C 4,8 km/h (1 Bft)
07.02.2023 19:51 -1,8 C -3,9 C 71 % 1041,2 hPa 0,0 l/m 3,0 km/h (1 Bft) NW 326 0 min 0,0 UV-I 0 W/m -6,3 C -1,8 C 6,4 km/h (2 Bft)
07.02.2023 19:54 -1,8 C -4,4 C 71 % 1041,2 hPa 0,0 l/m 2,3 km/h (1 Bft) NW 325 0 min 0,0 UV-I 0 W/m -6,3 C -1,8 C 4,8 km/h (1 Bft)
07.02.2023 19:57 -1,8 C -4,4 C 71 % 1041,2 hPa 0,0 l/m 2,7 km/h (1 Bft) NW 324 0 min 0,0 UV-I 0 W/m -6,3 C -1,8 C 4,8 km/h (1 Bft)
07.02.2023 20:00 -1,8 C -4,4 C 71 % 1041,1 hPa 0,0 l/m 3,5 km/h (1 Bft) NW 323 0 min 0,0 UV-I 0 W/m -6,3 C -1,8 C 4,8 km/h (1 Bft)
07.02.2023 20:03 -1,8 C -4,4 C 71 % 1041,1 hPa 0,0 l/m 4,7 km/h (1 Bft) NW 325 0 min 0,0 UV-I 0 W/m -6,3 C -1,8 C 6,4 km/h (2 Bft)
07.02.2023 20:06 -1,8 C -4,4 C 71 % 1041,0 hPa 0,0 l/m 4,1 km/h (1 Bft) NW 326 0 min 0,0 UV-I 0 W/m -6,3 C -1,8 C 6,4 km/h (2 Bft)
07.02.2023 20:09 -1,8 C -4,4 C 71 % 1041,0 hPa 0,0 l/m 3,6 km/h (1 Bft) N 350 0 min 0,0 UV-I 0 W/m -6,3 C -1,8 C 6,4 km/h (2 Bft)
07.02.2023 20:12 -1,7 C -4,4 C 71 % 1041,0 hPa 0,0 l/m 5,0 km/h (1 Bft) N-NO 26 0 min 0,0 UV-I 0 W/m -6,2 C -1,7 C 8,0 km/h (2 Bft)
07.02.2023 20:15 -1,8 C -4,4 C 71 % 1041,1 hPa 0,0 l/m 3,9 km/h (1 Bft) N-NO 17 0 min 0,0 UV-I 0 W/m -6,3 C -1,8 C 6,4 km/h (2 Bft)
07.02.2023 20:18 -1,8 C -4,4 C 71 % 1041,0 hPa 0,0 l/m 4,5 km/h (1 Bft) N 349 0 min 0,0 UV-I 0 W/m -6,3 C -1,8 C 6,4 km/h (2 Bft)
07.02.2023 20:21 -1,8 C -4,4 C 71 % 1041,0 hPa 0,0 l/m 4,4 km/h (1 Bft) N 355 0 min 0,0 UV-I 0 W/m -6,3 C -1,8 C 6,4 km/h (2 Bft)
07.02.2023 20:24 -1,9 C -4,4 C 72 % 1041,0 hPa 0,0 l/m 4,2 km/h (1 Bft) N 360 0 min 0,0 UV-I 0 W/m -6,3 C -1,9 C 6,4 km/h (2 Bft)
07.02.2023 20:27 -1,9 C -4,4 C 72 % 1041,0 hPa 0,0 l/m 4,1 km/h (1 Bft) N-NO 19 0 min 0,0 UV-I 0 W/m -6,3 C -1,9 C 8,0 km/h (2 Bft)
07.02.2023 20:30 -1,9 C -4,4 C 72 % 1041,0 hPa 0,0 l/m 4,2 km/h (1 Bft) N 360 0 min 0,0 UV-I 0 W/m -6,3 C -1,9 C 6,4 km/h (2 Bft)
07.02.2023 20:33 -2,1 C -4,4 C 72 % 1041,0 hPa 0,0 l/m 4,0 km/h (1 Bft) N 5 0 min 0,0 UV-I 0 W/m -6,5 C -2,1 C 6,4 km/h (2 Bft)
07.02.2023 20:36 -2,1 C -4,4 C 73 % 1041,0 hPa 0,0 l/m 4,5 km/h (1 Bft) N 9 0 min 0,0 UV-I 0 W/m -6,3 C -2,1 C 6,4 km/h (2 Bft)
07.02.2023 20:39 -2,1 C -4,4 C 72 % 1041,0 hPa 0,0 l/m 4,7 km/h (1 Bft) N-NO 15 0 min 0,0 UV-I 0 W/m -6,5 C -2,1 C 6,4 km/h (2 Bft)
07.02.2023 20:42 -2,1 C -4,4 C 72 % 1041,0 hPa 0,0 l/m 4,7 km/h (1 Bft) N-NO 15 0 min 0,0 UV-I 0 W/m -6,5 C -2,1 C 6,4 km/h (2 Bft)
07.02.2023 20:45 -2,2 C -5,0 C 73 % 1041,1 hPa 0,0 l/m 3,8 km/h (1 Bft) N-NO 14 0 min 0,0 UV-I 0 W/m -6,4 C -2,2 C 6,4 km/h (2 Bft)
07.02.2023 20:48 -2,9 C -5,6 C 74 % 1041,1 hPa 0,0 l/m 1,7 km/h (1 Bft) N-NO 14 0 min 0,0 UV-I 0 W/m -6,9 C -2,9 C 3,2 km/h (1 Bft)
07.02.2023 20:51 -2,9 C -5,6 C 76 % 1041,0 hPa 0,0 l/m 4,3 km/h (1 Bft) N 5 0 min 0,0 UV-I 0 W/m -6,5 C -2,9 C 6,4 km/h (2 Bft)
07.02.2023 20:54 -2,7 C -5,0 C 75 % 1041,1 hPa 0,0 l/m 4,5 km/h (1 Bft) N 5 0 min 0,0 UV-I 0 W/m -6,5 C -2,7 C 6,4 km/h (2 Bft)
07.02.2023 20:57 -2,4 C -5,0 C 75 % 1041,0 hPa 0,0 l/m 4,8 km/h (1 Bft) N-NO 13 0 min 0,0 UV-I 0 W/m -6,2 C -2,4 C 8,0 km/h (2 Bft)
07.02.2023 21:00 -2,3 C -5,0 C 74 % 1041,0 hPa 0,0 l/m 4,7 km/h (1 Bft) N 360 0 min 0,0 UV-I 0 W/m -6,3 C -2,3 C 6,4 km/h (2 Bft)
07.02.2023 21:03 -2,3 C -5,0 C 73 % 1041,0 hPa 0,0 l/m 4,8 km/h (1 Bft) N 360 0 min 0,0 UV-I 0 W/m -6,5 C -2,3 C 6,4 km/h (2 Bft)
07.02.2023 21:06 -2,3 C -5,0 C 73 % 1041,2 hPa 0,0 l/m 3,9 km/h (1 Bft) N 5 0 min 0,0 UV-I 0 W/m -6,5 C -2,3 C 4,8 km/h (1 Bft)
07.02.2023 21:09 -3,3 C -5,6 C 73 % 1041,1 hPa 0,0 l/m 2,9 km/h (1 Bft) N 5 0 min 0,0 UV-I 0 W/m -7,4 C -3,3 C 4,8 km/h (1 Bft)
07.02.2023 21:12 -3,8 C -5,6 C 76 % 1041,1 hPa 0,0 l/m 3,4 km/h (1 Bft) N 5 0 min 0,0 UV-I 0 W/m -7,4 C -3,8 C 4,8 km/h (1 Bft)
07.02.2023 21:15 -3,8 C -6,1 C 77 % 1041,2 hPa 0,0 l/m 3,5 km/h (1 Bft) N 5 0 min 0,0 UV-I 0 W/m -7,2 C -3,8 C 4,8 km/h (1 Bft)
07.02.2023 21:18 -3,8 C -6,1 C 77 % 1041,1 hPa 0,0 l/m 2,7 km/h (1 Bft) N 5 0 min 0,0 UV-I 0 W/m -7,2 C -3,8 C 4,8 km/h (1 Bft)
07.02.2023 21:21 -3,8 C -6,1 C 78 % 1041,1 hPa 0,0 l/m 0,3 km/h (0 Bft) N 5 0 min 0,0 UV-I 0 W/m -7,1 C -3,8 C 1,6 km/h (1 Bft)
07.02.2023 21:24 -3,9 C -6,1 C 78 % 1041,1 hPa 0,0 l/m 0,0 km/h (0 Bft) N 5 0 min 0,0 UV-I 0 W/m -7,2 C -3,9 C 1,6 km/h (1 Bft)
07.02.2023 21:27 -3,9 C -6,1 C 78 % 1041,0 hPa 0,0 l/m 0,5 km/h (0 Bft) N 5 0 min 0,0 UV-I 0 W/m -7,2 C -3,9 C 1,6 km/h (1 Bft)
07.02.2023 21:30 -3,9 C -6,1 C 79 % 1041,0 hPa 0,0 l/m 0,2 km/h (0 Bft) N 5 0 min 0,0 UV-I 0 W/m -7,0 C -3,9 C 1,6 km/h (1 Bft)
07.02.2023 21:33 -4,0 C -6,1 C 79 % 1041,1 hPa 0,0 l/m 0,0 km/h (0 Bft) N 5 0 min 0,0 UV-I 0 W/m -7,1 C -4,0 C 1,6 km/h (1 Bft)
07.02.2023 21:36 -4,1 C -6,1 C 79 % 1040,9 hPa 0,0 l/m 0,5 km/h (0 Bft) N 5 0 min 0,0 UV-I 0 W/m -7,2 C -4,1 C 1,6 km/h (1 Bft)
07.02.2023 21:39 -4,3 C -6,7 C 79 % 1040,9 hPa 0,0 l/m 0,4 km/h (0 Bft) N 5 0 min 0,0 UV-I 0 W/m -7,4 C -4,3 C 1,6 km/h (1 Bft)
07.02.2023 21:42 -4,3 C -6,7 C 80 % 1041,0 hPa 0,0 l/m 0,0 km/h (0 Bft) N 5 0 min 0,0 UV-I 0 W/m -7,2 C -4,3 C 0,0 km/h (0 Bft)
07.02.2023 21:45 -4,4 C -6,7 C 81 % 1041,0 hPa 0,0 l/m 0,5 km/h (0 Bft) N 5 0 min 0,0 UV-I 0 W/m -7,2 C -4,4 C 1,6 km/h (1 Bft)
07.02.2023 21:48 -4,4 C -6,7 C 81 % 1041,0 hPa 0,0 l/m 1,1 km/h (1 Bft) N 5 0 min 0,0 UV-I 0 W/m -7,2 C -4,4 C 3,2 km/h (1 Bft)
07.02.2023 21:51 -4,3 C -6,7 C 81 % 1041,0 hPa 0,0 l/m 2,0 km/h (1 Bft) N 5 0 min 0,0 UV-I 0 W/m -7,1 C -4,3 C 4,8 km/h (1 Bft)
07.02.2023 21:54 -4,4 C -6,7 C 81 % 1041,1 hPa 0,0 l/m 0,9 km/h (0 Bft) N 5 0 min 0,0 UV-I 0 W/m -7,2 C -4,4 C 3,2 km/h (1 Bft)
07.02.2023 21:57 -4,4 C -6,7 C 81 % 1040,9 hPa 0,0 l/m 0,9 km/h (0 Bft) N 5 0 min 0,0 UV-I 0 W/m -7,2 C -4,4 C 3,2 km/h (1 Bft)
07.02.2023 22:00 -4,4 C -6,7 C 81 % 1041,0 hPa 0,0 l/m 1,4 km/h (1 Bft) N 5 0 min 0,0 UV-I 0 W/m -7,2 C -4,4 C 3,2 km/h (1 Bft)
07.02.2023 22:03 -4,4 C -6,7 C 81 % 1041,0 hPa 0,0 l/m 3,0 km/h (1 Bft) N 5 0 min 0,0 UV-I 0 W/m -7,2 C -4,4 C 4,8 km/h (1 Bft)
07.02.2023 22:09 -3,8 C -6,1 C 80 % 1041,0 hPa 0,0 l/m 4,7 km/h (1 Bft) N 350 0 min 0,0 UV-I 0 W/m -6,7 C -3,8 C 6,4 km/h (2 Bft)
07.02.2023 22:12 -4,3 C -6,7 C 79 % 1041,0 hPa 0,0 l/m 1,2 km/h (1 Bft) N 350 0 min 0,0 UV-I 0 W/m -7,4 C -4,3 C 4,8 km/h (1 Bft)
07.02.2023 22:15 -4,4 C -6,7 C 80 % 1040,9 hPa 0,0 l/m 1,5 km/h (1 Bft) N 350 0 min 0,0 UV-I 0 W/m -7,3 C -4,4 C 3,2 km/h (1 Bft)
07.02.2023 22:18 -4,3 C -6,7 C 81 % 1041,0 hPa 0,0 l/m 3,1 km/h (1 Bft) N 355 0 min 0,0 UV-I 0 W/m -7,1 C -4,3 C 4,8 km/h (1 Bft)
07.02.2023 22:21 -3,8 C -6,1 C 81 % 1041,0 hPa 0,0 l/m 3,4 km/h (1 Bft) N 355 0 min 0,0 UV-I 0 W/m -6,6 C -3,8 C 6,4 km/h (2 Bft)
07.02.2023 22:24 -3,6 C -6,1 C 80 % 1041,0 hPa 0,0 l/m 3,8 km/h (1 Bft) N-NW 346 0 min 0,0 UV-I 0 W/m -6,5 C -3,6 C 4,8 km/h (1 Bft)
07.02.2023 22:27 -4,2 C -6,7 C 79 % 1040,9 hPa 0,0 l/m 4,0 km/h (1 Bft) N-NW 346 0 min 0,0 UV-I 0 W/m -7,3 C -4,2 C 6,4 km/h (2 Bft)
07.02.2023 22:30 -3,8 C -6,1 C 80 % 1040,9 hPa 0,0 l/m 5,1 km/h (1 Bft) N 355 0 min 0,0 UV-I 0 W/m -6,7 C -3,8 C 6,4 km/h (2 Bft)
07.02.2023 22:33 -3,6 C -6,1 C 80 % 1040,9 hPa 0,0 l/m 5,4 km/h (1 Bft) N 5 0 min 0,0 UV-I 0 W/m -6,5 C -3,6 C 8,0 km/h (2 Bft)
07.02.2023 22:36 -3,3 C -5,6 C 79 % 1040,9 hPa 0,0 l/m 5,7 km/h (1 Bft) N-NW 348 0 min 0,0 UV-I 0 W/m -6,4 C -3,3 C 8,0 km/h (2 Bft)
07.02.2023 22:39 -3,4 C -5,6 C 77 % 1040,9 hPa 0,0 l/m 4,4 km/h (1 Bft) N-NW 346 0 min 0,0 UV-I 0 W/m -6,8 C -3,4 C 6,4 km/h (2 Bft)
07.02.2023 22:42 -4,3 C -6,7 C 77 % 1040,9 hPa 0,0 l/m 3,5 km/h (1 Bft) N-NW 346 0 min 0,0 UV-I 0 W/m -7,7 C -4,3 C 6,4 km/h (2 Bft)
07.02.2023 22:45 -4,3 C -6,7 C 80 % 1040,9 hPa 0,0 l/m 4,5 km/h (1 Bft) N-NW 346 0 min 0,0 UV-I 0 W/m -7,2 C -4,3 C 6,4 km/h (2 Bft)
07.02.2023 22:48 -4,1 C -6,7 C 80 % 1040,9 hPa 0,0 l/m 2,6 km/h (1 Bft) N-NW 346 0 min 0,0 UV-I 0 W/m -7,0 C -4,1 C 4,8 km/h (1 Bft)
07.02.2023 22:51 -4,6 C -6,7 C 79 % 1041,0 hPa 0,0 l/m 1,2 km/h (1 Bft) N-NW 346 0 min 0,0 UV-I 0 W/m -7,7 C -4,6 C 3,2 km/h (1 Bft)
07.02.2023 22:54 -4,9 C -7,2 C 80 % 1040,9 hPa 0,0 l/m 0,7 km/h (0 Bft) N-NW 346 0 min 0,0 UV-I 0 W/m -7,8 C -4,9 C 3,2 km/h (1 Bft)
07.02.2023 22:57 -5,2 C -7,2 C 81 % 1040,9 hPa 0,0 l/m 0,2 km/h (0 Bft) N-NW 346 0 min 0,0 UV-I 0 W/m -7,9 C -5,2 C 3,2 km/h (1 Bft)
07.02.2023 23:00 -5,3 C -7,2 C 82 % 1041,0 hPa 0,0 l/m 1,4 km/h (1 Bft) N-NW 339 0 min 0,0 UV-I 0 W/m -7,9 C -5,3 C 4,8 km/h (1 Bft)
07.02.2023 23:03 -5,3 C -7,2 C 82 % 1040,9 hPa 0,0 l/m 0,6 km/h (0 Bft) N-NW 338 0 min 0,0 UV-I 0 W/m -7,9 C -5,3 C 3,2 km/h (1 Bft)
07.02.2023 23:06 -5,3 C -7,2 C 83 % 1041,0 hPa 0,0 l/m 1,1 km/h (1 Bft) N-NW 339 0 min 0,0 UV-I 0 W/m -7,7 C -5,3 C 4,8 km/h (1 Bft)
07.02.2023 23:09 -5,3 C -7,2 C 83 % 1040,9 hPa 0,0 l/m 0,8 km/h (0 Bft) N-NW 339 0 min 0,0 UV-I 0 W/m -7,7 C -5,3 C 3,2 km/h (1 Bft)
07.02.2023 23:12 -5,2 C -7,2 C 83 % 1040,9 hPa 0,0 l/m 0,5 km/h (0 Bft) N-NW 339 0 min 0,0 UV-I 0 W/m -7,6 C -5,2 C 3,2 km/h (1 Bft)
07.02.2023 23:15 -4,8 C -6,7 C 84 % 1040,9 hPa 0,0 l/m 3,3 km/h (1 Bft) N-NW 340 0 min 0,0 UV-I 0 W/m -7,1 C -4,8 C 4,8 km/h (1 Bft)
07.02.2023 23:18 -4,6 C -6,7 C 83 % 1040,8 hPa 0,0 l/m 3,5 km/h (1 Bft) N-NW 341 0 min 0,0 UV-I 0 W/m -7,0 C -4,6 C 4,8 km/h (1 Bft)
07.02.2023 23:21 -4,3 C -6,7 C 83 % 1040,9 hPa 0,0 l/m 4,5 km/h (1 Bft) N-NW 343 0 min 0,0 UV-I 0 W/m -6,7 C -4,3 C 6,4 km/h (2 Bft)
07.02.2023 23:24 -4,5 C -7,2 C 81 % 1040,8 hPa 0,0 l/m 3,5 km/h (1 Bft) N-NW 344 0 min 0,0 UV-I 0 W/m -7,3 C -4,5 C 4,8 km/h (1 Bft)
07.02.2023 23:27 -4,3 C -7,2 C 82 % 1040,7 hPa 0,0 l/m 3,4 km/h (1 Bft) N-NW 344 0 min 0,0 UV-I 0 W/m -6,9 C -4,3 C 6,4 km/h (2 Bft)
07.02.2023 23:30 -4,9 C -7,2 C 80 % 1040,8 hPa 0,0 l/m 1,5 km/h (1 Bft) N-NW 344 0 min 0,0 UV-I 0 W/m -7,8 C -4,9 C 4,8 km/h (1 Bft)
07.02.2023 23:33 -5,1 C -7,2 C 81 % 1040,7 hPa 0,0 l/m 1,6 km/h (1 Bft) N-NW 344 0 min 0,0 UV-I 0 W/m -7,8 C -5,1 C 4,8 km/h (1 Bft)
07.02.2023 23:36 -5,3 C -7,8 C 81 % 1040,8 hPa 0,0 l/m 0,5 km/h (0 Bft) N-NW 344 0 min 0,0 UV-I 0 W/m -8,0 C -5,3 C 3,2 km/h (1 Bft)
07.02.2023 23:39 -5,4 C -7,2 C 82 % 1040,8 hPa 0,0 l/m 0,1 km/h (0 Bft) N-NW 344 0 min 0,0 UV-I 0 W/m -8,0 C -5,4 C 1,6 km/h (1 Bft)
07.02.2023 23:42 -5,4 C -7,2 C 82 % 1040,9 hPa 0,0 l/m 0,3 km/h (0 Bft) N-NW 344 0 min 0,0 UV-I 0 W/m -8,0 C -5,4 C 3,2 km/h (1 Bft)
07.02.2023 23:45 -5,4 C -7,2 C 83 % 1040,9 hPa 0,0 l/m 0,2 km/h (0 Bft) N-NW 344 0 min 0,0 UV-I 0 W/m -7,8 C -5,4 C 1,6 km/h (1 Bft)
07.02.2023 23:48 -5,4 C -7,2 C 83 % 1040,9 hPa 0,0 l/m 0,0 km/h (0 Bft) N-NW 344 0 min 0,0 UV-I 0 W/m -7,8 C -5,4 C 0,0 km/h (0 Bft)
07.02.2023 23:51 -5,4 C -7,2 C 83 % 1041,0 hPa 0,0 l/m 0,0 km/h (0 Bft) N-NW 344 0 min 0,0 UV-I 0 W/m -7,8 C -5,4 C 0,0 km/h (0 Bft)
07.02.2023 23:54 -5,4 C -7,2 C 83 % 1041,0 hPa 0,0 l/m 0,8 km/h (0 Bft) N-NW 344 0 min 0,0 UV-I 0 W/m -7,8 C -5,4 C 3,2 km/h (1 Bft)
07.02.2023 23:57 -5,4 C -7,2 C 83 % 1040,9 hPa 0,0 l/m 0,3 km/h (0 Bft) N-NW 344 0 min 0,0 UV-I 0 W/m -7,8 C -5,4 C 1,6 km/h (1 Bft)
07.02.2023 23:58 -5,4 C -7,2 C 83 % 1041,0 hPa 0,0 l/m 0,0 km/h (0 Bft) N 0 0 min 0,0 UV-I 0 W/m -7,8 C -5,4 C 0,0 km/h (0 Bft)
07.02.2023 23:59 -5,4 C -7,2 C 83 % 1040,9 hPa 0,0 l/m 0,0 km/h (0 Bft) N 0 0 min 0,0 UV-I 0 W/m -7,8 C -5,4 C 0,0 km/h (0 Bft)
_ Min-Zeit 23:06 23:36 15:21 05:33 - 07:06 - - - - - 23:36 03:09 00:02
Minimum _ -5,4 C -7,8 C 44 % 1039,2 hPa - 0,0 km/h (0 Bft) - - - - - -8,0 C -13,3 C 0,0 km/h (0 Bft)
_ Max-Zeit 14:15 13:57 01:06 19:21 00:00 03:09 - - 10:15 12:39 12:54 01:27 14:15 03:09
Maximum _ 4,1 C 16,1 C 91 % 1041,4 hPa 0,0 l/m 22,5 km/h
O-NO (4 Bft)
- - 3 min 1,8 UV-I 434 W/m -3,1 C 4,1 C 32,2 km/h
O-NO (5 Bft)
Durchschnitt _ -1,3 C 0,7 C 76 % 1040,5 hPa #0,0 l/m 6,3 km/h (2 Bft) NO - #5:30 h 1,3 UV-I 250 W/m -5,3 C -2,6 C 10,0 km/h (2 Bft)